[[{"header":{"parameterUnit":"m.s-1","parameterCategory":1,"la1":30.6,"la2":28.766,"lo1":-90.7593,"lo2":-88.6598,"dy":0.0162,"dx":0.0183,"nx":116,"ny":114,"refTime":"2023-10-07T06:00:00:Z","depth":0,"parameterNumber":2,"parameterNumberName":"U-component_of_WINDS"},"data":[0.0,0.0,0.0,0.0,0.0,0.0,0.0,0.0,0.0,0.0,0.0,0.0,0.0,0.0,0.0,0.0,0.0,0.0,0.0,0.0,0.0,0.0,0.0,0.0,0.0,0.0,0.0,0.0,0.0,0.0,0.0,0.0,0.0,0.0,0.0,0.0,0.0,0.0,0.0,0.0,0.0,0.0,0.0,0.0,0.0,0.0,0.0,0.0,0.0,0.0,0.0,0.0,0.0,0.0,0.0,0.0,0.0,0.0,0.0,0.0,0.0,0.0,0.0,0.0,0.0,0.0,0.0,0.0,0.0,0.0,0.0,0.0,0.0,0.0,0.0,0.0,0.0,0.0,0.0,0.0,0.0,0.0,0.0,0.0,0.0,0.0,0.0,0.0,0.0,0.0,0.0,0.0,0.0,0.0,0.0,0.0,0.0,0.0,0.0,0.0,0.0,0.0,0.0,0.0,0.0,0.0,0.0,0.0,0.0,0.0,0.0,0.0,0.0,0.0,0.0,0.0,0.0,0.0,0.0,0.0,0.0,0.0,0.0,0.0,0.0,0.0,0.0,0.0,0.0,0.0,0.0,0.0,0.0,0.0,0.0,0.0,0.0,0.0,0.0,0.0,0.0,0.0,0.0,0.0,0.0,0.0,0.0,0.0,0.0,0.0,0.0,0.0,0.0,0.0,0.0,0.0,0.0,0.0,0.0,0.0,0.0,0.0,0.0,0.0,0.0,0.0,0.0,0.0,0.0,0.0,0.0,0.0,0.0,0.0,0.0,0.0,0.0,0.0,0.0,0.0,0.0,0.0,0.0,0.0,0.0,0.0,0.0,0.0,0.0,0.0,0.0,0.0,0.0,0.0,0.0,0.0,0.0,0.0,0.0,0.0,0.0,0.0,0.0,0.0,0.0,0.0,0.0,0.0,0.0,0.0,0.0,0.0,0.0,0.0,0.0,0.0,0.0,0.0,0.0,0.0,0.0,0.0,0.0,0.0,0.0,0.0,0.0,0.0,0.0,0.0,0.0,0.0,0.0,0.0,0.0,0.0,0.0,0.0,0.0,0.0,0.0,0.0,0.0,0.0,0.0,0.0,0.0,0.0,0.0,0.0,0.0,0.0,0.0,0.0,0.0,0.0,0.0,0.0,0.0,0.0,0.0,0.0,0.0,0.0,0.0,0.0,0.0,0.0,0.0,0.0,0.0,0.0,0.0,0.0,0.0,0.0,0.0,0.0,0.0,0.0,0.0,0.0,0.0,0.0,0.0,0.0,0.0,0.0,0.0,0.0,0.0,0.0,0.0,0.0,0.0,0.0,0.0,0.0,0.0,0.0,0.0,0.0,0.0,0.0,0.0,0.0,0.0,0.0,0.0,0.0,0.0,0.0,0.0,0.0,0.0,0.0,0.0,0.0,0.0,0.0,0.0,0.0,0.0,0.0,0.0,0.0,0.0,0.0,0.0,0.0,0.0,0.0,0.0,0.0,0.0,0.0,0.0,0.0,0.0,0.0,0.0,0.0,0.0,0.0,0.0,0.0,0.0,0.0,0.0,0.0,0.0,0.0,0.0,0.0,0.0,0.0,0.0,0.0,0.0,0.0,0.0,0.0,0.0,0.0,0.0,0.0,0.0,0.0,0.0,0.0,0.0,0.0,0.0,0.0,0.0,0.0,0.0,0.0,0.0,0.0,0.0,0.0,0.0,0.0,0.0,0.0,0.0,0.0,0.0,0.0,0.0,0.0,0.0,0.0,0.0,0.0,0.0,0.0,0.0,0.0,0.0,0.0,0.0,0.0,0.0,0.0,0.0,0.0,0.0,0.0,0.0,0.0,0.0,0.0,0.0,0.0,0.0,0.0,0.0,0.0,0.0,0.0,0.0,0.0,0.0,0.0,0.0,0.0,0.0,0.0,0.0,0.0,0.0,0.0,0.0,0.0,0.0,0.0,0.0,0.0,0.0,0.0,0.0,0.0,0.0,0.0,0.0,0.0,0.0,0.0,0.0,0.0,0.0,0.0,0.0,0.0,0.0,0.0,0.0,0.0,0.0,0.0,0.0,0.0,0.0,0.0,0.0,0.0,0.0,0.0,0.0,0.0,0.0,0.0,0.0,0.0,0.0,0.0,0.0,0.0,0.0,0.0,0.0,0.0,0.0,0.0,0.0,0.0,0.0,0.0,0.0,0.0,0.0,0.0,0.0,0.0,0.0,0.0,0.0,0.0,0.0,0.0,0.0,0.0,0.0,0.0,0.0,0.0,0.0,0.0,0.0,0.0,0.0,0.0,0.0,0.0,0.0,0.0,0.0,0.0,0.0,0.0,0.0,0.0,0.0,0.0,0.0,0.0,0.0,0.0,0.0,0.0,0.0,0.0,0.0,0.0,0.0,0.0,0.0,0.0,0.0,0.0,0.0,0.0,0.0,0.0,0.0,0.0,0.0,0.0,0.0,0.0,0.0,0.0,0.0,0.0,0.0,0.0,0.0,0.0,0.0,0.0,0.0,0.0,0.0,0.0,0.0,0.0,0.0,0.0,0.0,0.0,0.0,0.0,0.0,0.0,0.0,0.0,0.0,0.0,0.0,0.0,0.0,0.0,0.0,0.0,0.0,0.0,0.0,0.0,0.0,0.0,0.0,0.0,0.0,0.0,0.0,0.0,0.0,0.0,0.0,0.0,0.0,0.0,0.0,0.0,0.0,0.0,0.0,0.0,0.0,0.0,0.0,0.0,0.0,0.0,0.0,0.0,0.0,0.0,0.0,0.0,0.0,0.0,0.0,0.0,0.0,0.0,0.0,0.0,0.0,0.0,0.0,0.0,0.0,0.0,0.0,0.0,0.0,0.0,0.0,0.0,0.0,0.0,0.0,0.0,0.0,0.0,0.0,0.0,0.0,0.0,0.0,0.0,0.0,0.0,0.0,0.0,0.0,0.0,0.0,0.0,0.0,0.0,0.0,0.0,0.0,0.0,0.0,0.0,0.0,0.0,0.0,0.0,0.0,0.0,0.0,0.0,0.0,0.0,0.0,0.0,0.0,0.0,0.0,0.0,0.0,0.0,0.0,0.0,0.0,0.0,0.0,0.0,0.0,0.0,0.0,0.0,0.0,0.0,0.0,0.0,0.0,0.0,0.0,0.0,0.0,0.0,0.0,0.0,0.0,0.0,0.0,0.0,0.0,0.0,0.0,0.0,0.0,0.0,0.0,0.0,0.0,0.0,0.0,0.0,0.0,0.0,0.0,0.0,0.0,0.0,0.0,0.0,0.0,0.0,0.0,0.0,0.0,0.0,0.0,0.0,0.0,0.0,0.0,0.0,0.0,0.0,0.0,0.0,0.0,0.0,0.0,0.0,0.0,0.0,0.0,0.0,0.0,0.0,0.0,0.0,0.0,0.0,0.0,0.0,0.0,0.0,0.0,0.0,0.0,0.0,0.0,0.0,0.0,0.0,0.0,0.0,0.0,0.0,0.0,0.0,0.0,0.0,0.0,0.0,0.0,0.0,0.0,0.0,0.0,0.0,0.0,0.0,0.0,0.0,0.0,0.0,0.0,0.0,0.0,0.0,0.0,0.0,0.0,0.0,0.0,0.0,0.0,0.0,0.0,0.0,0.0,0.0,0.0,0.0,0.0,0.0,0.0,0.0,0.0,0.0,0.0,0.0,0.0,0.0,0.0,0.0,0.0,0.0,0.0,0.0,0.0,0.0,0.0,0.0,0.0,0.0,0.0,0.0,0.0,0.0,0.0,0.0,0.0,0.0,0.0,0.0,0.0,0.0,0.0,0.0,0.0,0.0,0.0,0.0,0.0,0.0,0.0,0.0,0.0,0.0,0.0,0.0,0.0,0.0,0.0,0.0,0.0,0.0,0.0,0.0,0.0,0.0,0.0,0.0,0.0,0.0,0.0,0.0,0.0,0.0,0.0,0.0,0.0,0.0,0.0,0.0,0.0,0.0,0.0,0.0,0.0,0.0,0.0,0.0,0.0,0.0,0.0,0.0,0.0,0.0,0.0,0.0,0.0,0.0,0.0,0.0,0.0,0.0,0.0,0.0,0.0,0.0,0.0,0.0,0.0,0.0,0.0,0.0,0.0,0.0,0.0,0.0,0.0,0.0,0.0,0.0,0.0,0.0,0.0,0.0,0.0,0.0,0.0,0.0,0.0,0.0,0.0,0.0,0.0,0.0,0.0,0.0,0.0,0.0,0.0,0.0,0.0,0.0,0.0,0.0,0.0,0.0,0.0,0.0,0.0,0.0,0.0,0.0,0.0,0.0,0.0,0.0,0.0,0.0,0.0,0.0,0.0,0.0,0.0,0.0,0.0,0.0,0.0,0.0,0.0,0.0,0.0,0.0,0.0,0.0,0.0,0.0,0.0,0.0,0.0,0.0,0.0,0.0,0.0,0.0,0.0,0.0,0.0,0.0,0.0,0.0,0.0,0.0,0.0,0.0,0.0,0.0,0.0,0.0,0.0,0.0,0.0,0.0,0.0,0.0,0.0,0.0,0.0,0.0,0.0,0.0,0.0,0.0,0.0,0.0,0.0,0.0,0.0,0.0,0.0,0.0,0.0,0.0,0.0,0.0,0.0,0.0,0.0,0.0,0.0,0.0,0.0,0.0,0.0,0.0,0.0,0.0,0.0,0.0,0.0,0.0,0.0,0.0,0.0,0.0,0.0,0.0,0.0,0.0,0.0,0.0,0.0,0.0,0.0,0.0,0.0,0.0,0.0,0.0,0.0,0.0,0.0,0.0,0.0,0.0,0.0,0.0,0.0,0.0,0.0,0.0,0.0,0.0,0.0,0.0,0.0,0.0,0.0,0.0,0.0,0.0,0.0,0.0,0.0,0.0,0.0,0.0,0.0,0.0,0.0,0.0,0.0,0.0,0.0,0.0,0.0,0.0,0.0,0.0,0.0,0.0,0.0,0.0,0.0,0.0,0.0,0.0,0.0,0.0,0.0,0.0,0.0,0.0,0.0,0.0,0.0,0.0,0.0,0.0,0.0,0.0,0.0,0.0,0.0,0.0,0.0,0.0,0.0,0.0,0.0,0.0,0.0,0.0,0.0,0.0,0.0,0.0,0.0,0.0,0.0,0.0,0.0,0.0,0.0,0.0,0.0,0.0,0.0,0.0,0.0,0.0,0.0,0.0,0.0,0.0,0.0,0.0,0.0,0.0,0.0,0.0,0.0,0.0,0.0,0.0,0.0,0.0,0.0,0.0,0.0,0.0,0.0,0.0,0.0,0.0,0.0,0.0,0.0,0.0,0.0,0.0,0.0,0.0,0.0,0.0,0.0,0.0,0.0,0.0,0.0,0.0,0.0,0.0,0.0,0.0,0.0,0.0,0.0,0.0,0.0,0.0,0.0,0.0,0.0,0.0,0.0,0.0,0.0,0.0,0.0,0.0,0.0,0.0,0.0,0.0,0.0,0.0,0.0,0.0,0.0,0.0,0.0,0.0,0.0,0.0,0.0,0.0,0.0,0.0,0.0,0.0,0.0,0.0,0.0,0.0,0.0,0.0,0.0,0.0,0.0,0.0,0.0,0.0,0.0,0.0,0.0,0.0,0.0,0.0,0.0,0.0,0.0,0.0,0.0,0.0,0.0,0.0,0.0,0.0,0.0,0.0,0.0,0.0,0.0,0.0,0.0,0.0,0.0,0.0,0.0,0.0,0.0,0.0,0.0,0.0,0.0,0.0,0.0,0.0,0.0,0.0,0.0,0.0,0.0,0.0,0.0,0.0,0.0,0.0,0.0,0.0,0.0,0.0,0.0,0.0,0.0,0.0,0.0,0.0,0.0,0.0,0.0,0.0,0.0,0.0,0.0,0.0,0.0,0.0,0.0,0.0,0.0,0.0,0.0,0.0,0.0,0.0,0.0,0.0,0.0,0.0,0.0,0.0,0.0,0.0,0.0,0.0,0.0,0.0,0.0,0.0,0.0,0.0,0.0,0.0,0.0,0.0,0.0,0.0,0.0,0.0,0.0,0.0,0.0,0.0,0.0,0.0,0.0,0.0,0.0,0.0,0.0,0.0,0.0,0.0,0.0,0.0,0.0,0.0,0.0,0.0,0.0,0.0,0.0,0.0,0.0,0.0,0.0,0.0,0.0,0.0,0.0,0.0,3.5243,0.0,0.0,0.0,0.0,0.0,0.0,0.0,0.0,0.0,0.0,0.0,0.0,0.0,0.0,0.0,0.0,0.0,0.0,0.0,0.0,0.0,0.0,0.0,0.0,0.0,0.0,0.0,0.0,0.0,0.0,0.0,0.0,0.0,0.0,0.0,0.0,0.0,0.0,1.8723,1.8477,1.8766,1.9545,2.0889,2.1999,2.283,0.0,0.0,0.0,0.0,0.0,0.0,0.0,0.0,0.0,0.0,0.0,0.0,0.0,0.0,0.0,0.0,0.0,0.0,0.0,0.0,0.0,0.0,0.0,0.0,0.0,0.0,0.0,0.0,0.0,0.0,0.0,0.0,0.0,0.0,0.0,0.0,0.0,0.0,0.0,0.0,0.0,0.0,0.0,0.0,0.0,0.0,0.0,0.0,0.0,0.0,0.0,0.0,0.0,0.0,0.0,0.0,0.0,0.0,0.0,0.0,0.0,0.0,0.0,0.0,0.0,0.0,0.0,0.0,0.0,0.0,0.0,3.6042,0.0,0.0,0.0,0.0,0.0,0.0,0.0,0.0,0.0,0.0,0.0,0.0,0.0,0.0,0.0,0.0,0.0,0.0,0.0,0.0,0.0,0.0,0.0,0.0,1.9963,1.998,2.0843,2.1421,0.0,0.0,0.0,0.0,0.0,0.0,0.0,1.9159,1.8549,1.749,1.7477,1.8343,2.0017,2.1241,2.2435,2.3527,2.4281,0.0,0.0,0.0,0.0,0.0,0.0,0.0,0.0,0.0,0.0,0.0,0.0,0.0,0.0,0.0,0.0,0.0,0.0,0.0,0.0,0.0,0.0,0.0,0.0,0.0,0.0,0.0,0.0,0.0,0.0,0.0,0.0,0.0,0.0,0.0,0.0,0.0,0.0,0.0,0.0,0.0,0.0,0.0,0.0,0.0,0.0,0.0,0.0,0.0,0.0,0.0,0.0,0.0,0.0,0.0,0.0,0.0,0.0,0.0,0.0,0.0,0.0,0.0,3.6685,3.7076,3.7552,3.722,3.7212,3.7508,3.7011,3.7752,3.9181,0.0,0.0,0.0,0.0,0.0,0.0,0.0,0.0,0.0,0.0,0.0,0.0,0.0,0.0,0.0,0.0,0.0,0.0,0.0,0.0,0.0,0.0,1.8964,1.9008,1.9081,2.0038,2.0637,0.0,0.0,0.0,0.0,0.0,0.0,1.8229,1.7402,1.6773,1.6341,1.6265,1.712,1.8796,2.0133,2.1896,2.3869,2.4679,2.5212,2.5527,0.0,0.0,0.0,0.0,0.0,0.0,0.0,0.0,0.0,0.0,0.0,0.0,0.0,0.0,0.0,0.0,0.0,0.0,0.0,0.0,0.0,0.0,0.0,0.0,0.0,0.0,0.0,0.0,0.0,0.0,0.0,0.0,0.0,0.0,0.0,0.0,0.0,0.0,0.0,0.0,0.0,3.0876,3.1534,0.0,0.0,0.0,0.0,0.0,0.0,0.0,0.0,0.0,0.0,0.0,0.0,0.0,3.5568,3.5,3.7031,3.7196,3.551,3.7703,3.8411,3.7851,3.8253,3.8729,3.926,3.8883,0.0,3.9335,3.9781,0.0,0.0,0.0,0.0,0.0,0.0,0.0,0.0,0.0,0.0,0.0,0.0,0.0,0.0,0.0,0.0,0.0,0.0,0.0,0.0,0.0,1.7125,1.7437,1.7891,1.8838,1.9681,2.0353,2.0555,0.0,0.0,0.0,1.8328,1.6701,1.6228,1.5735,1.5195,1.5869,1.7031,1.8626,2.0996,2.2935,2.4476,2.5737,2.6536,2.6861,2.6411,0.0,0.0,0.0,0.0,0.0,0.0,0.0,0.0,0.0,0.0,0.0,0.0,0.0,0.0,0.0,0.0,0.0,0.0,0.0,0.0,0.0,0.0,0.0,0.0,0.0,0.0,0.0,0.0,0.0,0.0,0.0,0.0,0.0,0.0,0.0,0.0,0.0,0.0,0.0,2.8846,3.0085,2.9722,2.9663,2.9461,0.0,0.0,0.0,0.0,0.0,0.0,0.0,0.0,0.0,3.482,3.6104,3.6324,3.5429,3.7448,3.7638,3.5977,3.7184,3.7587,3.7311,3.75,3.7724,3.8027,3.9014,3.9479,3.949,3.9157,3.8912,3.8593,0.0,0.0,0.0,0.0,3.6097,3.6347,0.0,0.0,0.0,0.0,0.0,0.0,0.0,0.0,0.0,0.0,0.0,0.0,1.496,1.515,1.5715,1.6728,1.7428,1.8302,1.9462,1.9293,1.9043,1.8688,1.8175,1.699,1.5074,1.4835,1.4656,1.4412,1.5751,1.7248,1.8963,2.143,2.3293,2.4542,2.6085,2.7213,2.8008,2.7393,2.6895,2.6472,0.0,0.0,0.0,0.0,0.0,0.0,0.0,0.0,0.0,0.0,0.0,0.0,0.0,0.0,0.0,0.0,0.0,0.0,0.0,0.0,0.0,0.0,0.0,0.0,0.0,0.0,0.0,0.0,0.0,0.0,0.0,0.0,0.0,0.0,0.0,0.0,0.0,2.8625,2.9826,2.8617,2.9832,3.0201,0.0,0.0,0.0,0.0,0.0,0.0,3.0749,3.1518,3.2577,3.3871,3.591,3.6505,3.5646,3.7068,3.7206,3.6004,3.5935,3.6049,3.6278,3.626,3.6415,3.6777,3.8434,3.9175,3.9204,3.8827,3.8783,3.8832,3.7405,3.6971,3.7082,3.6638,3.6504,3.6703,0.0,0.0,0.0,0.0,0.0,0.0,0.0,0.0,0.0,0.0,0.0,1.3689,1.3253,1.3262,1.3931,1.553,1.5884,1.6362,1.7147,1.7669,1.7718,1.7048,1.6182,1.502,1.3474,1.277,1.3038,1.4141,1.5733,1.7578,1.9668,2.0386,2.1758,2.3616,2.4779,2.6438,2.8382,2.8332,2.8095,2.7707,2.7672,0.0,0.0,0.0,0.0,0.0,0.0,0.0,0.0,0.0,0.0,0.0,0.0,0.0,0.0,0.0,0.0,0.0,0.0,0.0,0.0,0.0,0.0,0.0,0.0,0.0,0.0,0.0,0.0,0.0,0.0,0.0,0.0,0.0,0.0,0.0,0.0,0.0,0.0,3.0137,3.1409,0.0,0.0,0.0,0.0,2.7458,2.7115,2.7494,2.8851,2.9898,3.1348,3.3357,3.4959,3.5762,3.5679,3.5753,3.5362,3.4609,3.403,3.4146,3.4889,3.5018,3.5678,3.6733,3.7359,3.7766,3.8133,3.9994,4.0755,4.0613,3.8942,3.8303,3.8101,3.6541,3.6466,3.702,0.0,0.0,0.0,0.0,0.0,0.0,0.0,0.0,1.4198,1.2855,1.2215,1.1738,1.1287,1.1554,1.2668,1.4849,1.4316,1.4623,1.6243,1.5554,1.5021,1.4873,1.4538,1.3961,1.3148,1.2823,1.3372,1.4874,1.6065,1.747,1.9072,2.0145,2.1367,2.2681,2.4326,2.5945,2.74,2.7869,2.7963,2.7817,2.7805,2.6768,0.0,0.0,0.0,0.0,0.0,0.0,0.0,0.0,0.0,0.0,0.0,0.0,0.0,0.0,0.0,0.0,0.0,0.0,0.0,0.0,0.0,0.0,0.0,0.0,0.0,0.0,0.0,0.0,0.0,0.0,0.0,0.0,0.0,0.0,0.0,0.0,0.0,2.8956,3.0223,0.0,2.8356,2.7309,2.6997,2.7637,2.7612,2.8231,2.9668,3.0499,3.1501,3.2773,3.4714,3.5247,3.429,3.5155,3.4759,3.3109,3.3434,3.3492,3.3348,3.3935,3.4457,3.4858,3.557,3.5965,3.6113,3.709,3.7779,3.8155,3.7015,3.6403,3.6034,3.515,3.5201,3.5598,0.0,0.0,0.0,0.0,0.0,0.0,0.0,0.0,1.2821,1.1271,1.1071,1.0937,1.0451,1.084,1.2041,1.4138,1.3185,1.3104,1.47,1.3785,1.3152,1.3088,1.3046,1.299,1.2989,1.2974,1.3934,1.5781,1.6462,1.7599,1.9095,1.9989,2.1038,2.2233,2.3694,2.5094,2.6353,2.704,2.7588,2.7999,2.815,2.725,2.5845,0.0,0.0,0.0,0.0,0.0,0.0,0.0,0.0,0.0,0.0,0.0,0.0,0.0,0.0,0.0,0.0,0.0,0.0,0.0,0.0,0.0,0.0,0.0,0.0,0.0,0.0,0.0,0.0,0.0,0.0,0.0,0.0,0.0,0.0,0.0,2.9532,2.8045,2.9205,2.9249,2.6944,2.6654,2.6775,2.7119,2.7387,2.8105,2.9352,3.0121,3.0901,3.1722,3.3439,3.3943,3.3176,3.3862,3.3556,3.2313,3.2911,3.2962,3.2517,3.3419,3.3807,3.3844,3.4669,3.4916,3.4809,3.5077,3.5328,3.5523,3.5239,3.4942,3.4603,3.4108,3.4129,3.4347,0.0,0.0,0.0,0.0,0.0,0.0,0.0,1.2764,1.2033,1.0064,1.0777,1.1274,1.0959,1.1113,1.1897,1.3486,1.2439,1.1957,1.2473,1.2446,1.2228,1.1878,1.1771,1.2112,1.2953,1.3136,1.4391,1.6697,1.6983,1.807,1.9876,1.9874,2.0727,2.2252,2.2815,2.39,2.5379,2.5959,2.7012,2.8364,2.8805,2.8054,2.6736,0.0,0.0,0.0,0.0,0.0,0.0,0.0,0.0,0.0,0.0,0.0,0.0,0.0,0.0,0.0,0.0,0.0,0.0,0.0,0.0,0.0,0.0,0.0,0.0,0.0,0.0,0.0,0.0,0.0,0.0,0.0,0.0,0.0,2.5354,2.8152,2.9629,2.7623,2.8561,2.8577,2.6431,2.6591,2.6556,2.5945,2.6362,2.6999,2.7709,2.8717,2.9592,3.0257,3.1167,3.1914,3.2444,3.1785,3.1707,3.228,3.2405,3.2484,3.2517,3.339,3.3807,3.3844,3.4605,3.4717,3.4339,3.4339,3.3837,3.3112,3.3838,3.4133,3.4056,3.3529,3.3339,3.3303,0.0,0.0,0.0,0.0,0.0,0.0,0.0,1.1984,1.0939,0.9857,0.9681,1.0006,1.0971,1.1209,1.1983,1.3614,1.2708,1.2184,1.2455,1.1291,1.0729,1.1151,1.2123,1.3067,1.4042,1.4622,1.5635,1.6979,1.7594,1.8321,1.9158,1.9155,1.9756,2.088,2.1925,2.2931,2.3973,2.5545,2.6437,2.6914,2.8084,2.7812,2.679,0.0,0.0,0.0,0.0,0.0,0.0,0.0,0.0,0.0,0.0,0.0,0.0,0.0,0.0,0.0,0.0,0.0,0.0,0.0,0.0,0.0,0.0,0.0,0.0,0.0,0.0,0.0,0.0,0.0,0.0,0.0,0.0,2.7685,2.682,2.8469,2.9002,2.7063,2.7042,2.6559,2.4983,2.4846,2.5077,2.5849,2.6011,2.6706,2.805,2.8867,2.9435,2.9755,3.1393,3.1831,3.1007,3.1692,3.1881,3.1495,3.1837,3.2161,3.2517,3.3105,3.3522,3.3807,3.3731,3.3628,3.3478,3.2785,3.2371,3.2171,3.2379,3.2276,3.202,3.1879,3.1799,3.1805,0.0,0.0,0.0,0.0,0.0,0.0,0.0,1.1706,1.0948,1.0265,1.0325,1.0883,1.1939,1.2245,1.2904,1.4338,1.3311,1.261,1.2641,1.1375,1.0872,1.1327,1.2787,1.402,1.4934,1.5595,1.6345,1.7239,1.7641,1.8079,1.8571,1.8795,1.9403,2.0324,2.1037,2.1969,2.3124,2.4056,2.5058,2.6017,2.683,2.6985,2.6754,2.7334,2.648,2.4997,2.5557,2.5121,2.4394,2.4931,0.0,0.0,0.0,0.0,0.0,0.0,0.0,0.0,0.0,0.0,0.0,0.0,0.0,0.0,0.0,0.0,0.0,0.0,0.0,0.0,0.0,0.0,0.0,0.0,2.6897,2.8381,2.7326,2.8561,2.8936,2.7225,2.6162,2.5226,2.4403,2.4201,2.4551,2.5488,2.614,2.7017,2.8268,2.8769,2.9181,2.9607,3.0948,3.1417,3.0877,3.1583,3.1832,3.1647,3.1757,3.2074,3.2517,3.2777,3.3136,0.0,3.3105,3.2809,3.2565,3.2022,3.1696,0.0,0.0,0.0,0.0,0.0,3.119,3.119,0.0,0.0,0.0,0.0,0.0,0.0,0.0,1.1814,1.1616,1.1107,1.1884,1.2819,1.3571,1.3848,1.4338,1.5274,1.4128,1.3184,1.2774,1.2413,1.2176,1.2163,1.3737,1.5008,1.5648,1.6109,1.6633,1.7309,1.7314,1.7572,1.8094,1.8651,1.9388,2.0222,2.0288,2.111,2.2488,2.2242,2.3405,2.5408,2.5425,2.5918,2.6601,2.6619,2.6281,2.5777,2.5433,2.5234,2.5211,2.5735,0.0,0.0,0.0,0.0,0.0,0.0,0.0,0.0,0.0,0.0,0.0,0.0,0.0,0.0,0.0,0.0,0.0,0.0,0.0,0.0,0.0,0.0,0.0,0.0,2.8121,2.8598,2.7196,2.8444,2.8935,2.7541,2.5725,2.453,2.4395,2.4345,2.4625,2.5335,2.6497,2.7567,2.8381,0.0,0.0,0.0,0.0,3.0982,3.1596,3.1609,3.1883,3.2432,3.2132,3.2177,3.2558,3.2558,3.277,3.3075,3.2616,3.2161,3.1789,3.1752,3.1507,3.119,3.119,3.119,3.119,3.119,3.119,3.119,0.0,0.0,0.0,0.0,0.0,0.0,0.0,1.1814,1.1953,1.2385,1.2608,1.3375,1.5017,1.52,1.5314,1.5517,1.4867,1.3903,1.2661,1.3416,1.3846,1.3578,1.4966,1.5846,1.6166,1.6232,1.6426,1.6654,1.7084,1.7572,1.8094,1.8651,1.9227,1.9837,2.0177,2.0681,2.1374,2.2222,2.3144,2.4122,2.4699,2.5416,2.6243,2.708,2.6269,2.4836,2.5749,2.5425,2.4625,2.516,2.5143,2.4891,2.4942,2.4794,0.0,0.0,0.0,0.0,0.0,0.0,0.0,0.0,0.0,0.0,0.0,0.0,0.0,0.0,0.0,0.0,0.0,0.0,0.0,2.5782,2.7053,2.7759,2.7092,2.7879,2.791,2.6267,2.5633,2.5109,2.4553,2.4422,2.5094,2.6904,2.6809,2.7432,2.9252,2.8889,2.9147,3.0354,3.1011,3.1614,3.2327,3.2777,3.3086,3.3186,0.0,0.0,3.2889,3.2889,3.2827,3.2616,3.2127,3.188,3.1789,3.1449,3.1252,3.119,3.119,3.119,3.119,3.119,3.119,3.119,0.0,0.0,0.0,0.0,0.0,0.0,0.0,1.3253,1.3348,1.369,1.3737,1.4332,1.5828,1.5752,1.584,1.6403,1.5365,1.4385,1.358,1.4358,1.4881,1.5091,1.6031,1.6483,1.6291,1.6353,1.6434,1.6522,1.7326,1.7841,1.8145,1.8898,1.9432,1.9726,1.9918,2.0222,2.0656,2.1043,2.1837,2.29,2.308,2.3564,2.4325,2.5529,2.532,2.4465,2.4806,2.4544,2.4081,2.4634,2.4863,2.4994,2.4999,2.5112,2.5057,0.0,0.0,0.0,0.0,0.0,0.0,0.0,0.0,0.0,0.0,0.0,0.0,0.0,0.0,2.5271,2.5704,0.0,2.6112,2.7507,2.8061,2.8293,2.8177,2.888,2.8616,2.6406,2.5785,2.5429,2.5039,2.5053,2.5749,2.736,2.755,2.8142,2.9546,2.9256,2.9561,3.0584,3.1532,3.2367,3.3027,3.3664,3.3947,3.3947,3.3592,3.3434,3.3554,3.3299,3.3045,3.2756,3.2641,3.2192,3.1504,3.1681,3.1968,3.2307,3.2307,3.185,3.119,3.119,3.119,3.119,0.0,0.0,0.0,0.0,0.0,0.0,0.0,1.4698,1.4744,1.488,1.496,1.5398,1.6318,1.6145,1.6188,1.6925,1.5804,1.4998,1.4913,1.534,1.5851,1.6327,1.6973,1.7027,1.6335,1.666,1.6751,1.668,1.7636,1.8153,1.8283,1.9266,1.9726,1.9726,1.9948,2.0222,2.0477,2.0146,2.0839,2.2101,2.1796,2.1891,2.2388,2.3618,2.4091,2.4023,2.3713,2.3595,2.3666,2.4107,2.4621,2.5033,2.5061,2.5398,2.5601,2.4343,2.3499,0.0,0.0,0.0,0.0,0.0,0.0,0.0,0.0,2.2877,2.4033,2.4355,2.5351,2.6586,2.7576,2.7188,2.7272,2.9233,2.9083,2.8914,2.9247,2.9847,2.951,2.761,2.6663,2.6236,2.6279,2.6293,2.6762,2.7966,2.8542,2.9154,2.9915,2.9839,3.0266,3.1372,3.2335,3.3226,3.4196,3.456,3.4709,3.4709,3.4117,3.3955,3.4134,3.3777,3.3434,3.3089,3.3301,3.273,3.1664,3.2256,3.2848,3.3406,3.3406,3.2679,3.1613,3.1461,3.141,3.1376,0.0,0.0,0.0,0.0,0.0,0.0,0.0,0.0,1.488,1.541,1.5915,1.6275,1.6454,1.6854,1.6744,1.5884,1.6049,1.6173,1.6014,1.6692,1.7071,1.701,1.769,1.7563,1.6504,1.7462,1.7725,1.7188,1.7787,1.8329,1.8829,1.9538,1.9822,1.9756,2.0937,2.1378,2.1183,2.1135,2.1565,2.2283,2.2217,2.2046,2.1843,2.2596,2.2896,2.2964,2.3419,2.3595,2.3595,2.3666,2.4036,2.4496,2.4499,2.4852,2.506,2.3933,2.3091,2.2571,2.2547,2.1885,2.138,2.2178,2.1417,2.1167,0.0,2.4903,2.5359,2.5419,2.7061,2.8405,2.8118,2.7617,2.7532,2.8497,2.8208,2.8183,2.917,2.9352,2.9614,2.9997,2.8994,2.849,2.9064,2.8618,2.8805,3.0043,2.9744,3.0026,3.1225,3.0746,3.1564,3.4138,3.3726,3.4431,3.6422,3.578,3.5504,3.5504,3.5402,3.5013,3.444,3.4414,3.4007,3.3354,3.3372,3.3322,3.3169,3.3237,3.3339,3.3406,3.3406,3.3305,3.3068,3.2408,3.2195,3.207,0.0,0.0,0.0,0.0,0.0,0.0,0.0,0.0,0.0,1.6095,1.6587,1.6925,1.6951,1.7146,1.6969,1.6152,1.6288,1.68,1.7693,1.7748,1.8027,1.862,1.8684,1.8317,1.7513,1.8312,1.861,1.8358,1.928,1.9843,2.0074,2.0684,2.0926,2.091,2.1461,2.1644,2.155,2.155,2.1712,2.1942,2.1931,2.1845,2.1772,2.246,2.2714,2.2777,2.33,2.3288,0.0,2.3713,2.3595,2.3213,2.3183,2.361,2.3919,2.2789,2.2486,2.2594,2.2808,2.2884,2.2793,2.2752,2.3062,2.3594,2.394,2.5445,2.6733,2.6995,2.8346,2.9384,2.913,2.91,2.9262,2.9667,3.0058,3.0517,3.1066,3.1517,3.1855,3.2227,3.1766,3.1276,3.0784,3.0091,3.0243,3.157,3.142,3.1693,3.2586,3.2817,3.3654,3.523,3.538,3.6109,3.7432,3.711,3.6958,3.6958,3.6958,3.6552,3.5825,3.5825,3.5656,3.5334,3.4895,3.5199,3.5994,3.5554,3.5622,3.6028,3.6028,3.5757,3.5165,3.3541,3.2933,3.2899,0.0,0.0,0.0,0.0,0.0,0.0,0.0,0.0,0.0,0.0,1.7188,1.7463,1.7312,1.7303,1.7135,1.6718,1.7061,1.786,1.9089,1.9089,1.942,2.025,2.0105,1.9723,1.921,1.9954,2.0307,2.0143,2.1141,2.1654,2.1674,2.2209,2.2406,2.2221,2.2604,2.2787,2.2759,2.2759,2.2821,2.3009,2.3005,2.2894,2.279,2.3456,2.3608,2.3427,2.3471,2.3229,2.3067,2.3749,2.3305,2.2452,2.245,2.2634,2.2768,2.1902,2.2049,2.2541,2.2711,2.3192,2.3555,2.3039,2.4193,2.5159,2.4268,2.5945,2.7748,2.8077,2.9245,3.0163,3.0022,3.0403,3.0861,3.1034,3.172,3.232,3.2706,3.3166,3.3598,3.3731,3.3588,3.326,3.2676,3.1809,3.173,3.2673,3.2798,3.3013,3.3499,3.4407,3.5284,3.5969,3.6721,3.7453,3.821,3.8007,3.7905,3.7905,3.7905,3.7618,3.7094,3.7094,3.7094,3.706,3.6502,3.6891,3.7872,3.7313,3.7415,3.7905,3.7905,3.7567,3.6891,3.525,3.4252,3.3677,0.0,0.0,0.0,0.0,0.0,0.0,0.0,0.0,0.0,0.0,0.0,0.0,0.0,1.735,1.7408,1.7375,1.8819,1.9697,1.9747,2.0815,2.1418,2.1443,2.2094,2.222,2.169,2.2909,2.3302,2.2786,2.3274,2.3519,2.352,2.4201,2.4184,2.3595,2.4912,2.5466,2.5364,2.5364,2.5737,2.626,2.6278,2.5878,2.5353,2.6043,2.5815,2.509,2.3978,2.3585,2.36,2.3606,2.3194,2.2694,2.2671,2.2254,2.171,2.1649,2.195,2.226,2.2018,2.2327,2.2868,2.3317,2.3926,2.456,2.5328,2.6858,2.8077,2.8118,2.9767,3.0997,3.047,3.1177,3.1849,3.2103,3.2161,3.2482,3.3372,3.3492,3.3703,3.4381,3.3921,3.3965,0.0,3.4153,3.3441,3.3499,3.3446,3.3498,3.3477,3.4805,3.5959,3.6759,3.7433,3.8166,3.8954,3.8261,3.7905,3.7905,3.7905,3.7889,3.7872,3.7872,3.7872,3.7872,3.7855,3.7872,3.7905,3.7889,3.7889,3.7905,3.7905,3.7889,3.7872,3.7804,3.6366,3.4353,0.0,0.0,0.0,0.0,0.0,0.0,0.0,0.0,0.0,0.0,0.0,0.0,0.0,0.0,0.0,0.0,1.8982,1.9748,2.0853,2.128,2.2076,2.3363,2.3659,2.4012,2.4391,2.5194,2.5517,2.535,2.6419,2.6933,2.691,2.7142,2.7121,2.6922,2.6922,2.6907,2.6942,2.7354,2.7437,2.7268,2.8188,2.8112,2.7522,2.7727,2.7621,2.7225,0.0,2.428,2.3502,2.3825,2.3108,2.2094,2.2363,2.2097,2.1766,2.2038,2.2483,2.2967,2.3666,2.4223,2.4707,2.4836,2.6334,2.7751,2.771,2.9409,3.1113,3.1113,3.1281,3.1543,3.1789,3.2291,3.269,3.276,3.3701,3.4349,3.4168,3.4916,3.5549,3.5814,3.5984,0.0,0.0,0.0,0.0,3.4752,3.5265,3.5555,3.5582,3.699,3.7915,3.8171,3.8935,3.948,3.9715,3.9462,3.9343,3.9343,3.8853,3.8633,3.8633,3.8633,3.8633,3.865,3.914,3.9343,3.9343,3.9343,3.9343,3.9343,3.9343,3.9056,3.8633,3.8633,3.7838,3.6721,0.0,0.0,0.0,0.0,0.0,0.0,0.0,0.0,0.0,0.0,0.0,0.0,0.0,0.0,0.0,0.0,0.0,2.0835,2.2135,2.2408,2.3392,2.5334,2.5268,2.573,2.6947,2.7205,2.7445,2.7659,2.8718,2.9268,2.9278,2.95,2.9656,2.9622,2.9207,2.9252,2.9743,3.0212,3.0113,2.9774,3.0912,3.0789,2.9931,2.988,2.9552,0.0,2.7147,2.5664,2.4438,2.4038,2.2949,2.1728,2.2003,2.1884,2.1728,2.2229,2.2857,2.3647,2.4772,2.5347,2.5728,2.6202,2.7971,2.9459,2.9463,3.107,3.26,3.26,3.2486,3.2595,3.303,3.379,3.4257,3.3994,3.5041,3.5689,3.5305,3.5969,3.6602,3.6803,3.7395,3.7652,0.0,0.0,0.0,3.6587,3.7105,3.7483,3.7799,3.9016,3.9742,3.9736,4.0201,4.0476,4.0476,4.0206,4.007,4.007,3.9597,3.9377,3.9377,3.9377,3.9377,3.9411,3.9868,4.007,4.007,4.007,4.007,4.007,4.007,3.9783,3.9377,3.9377,3.9089,3.8616,0.0,0.0,0.0,0.0,0.0,0.0,0.0,0.0,0.0,0.0,0.0,0.0,0.0,0.0,0.0,0.0,0.0,0.0,2.3602,2.413,2.5301,2.7183,2.6874,2.7504,2.9391,2.8975,2.9072,2.9667,3.0312,3.0643,3.0643,3.1315,3.162,3.1646,3.164,3.2346,3.3583,3.3629,3.3577,3.3462,3.4222,3.3718,3.2408,3.2384,3.1608,3.0297,2.8946,2.7563,2.6153,2.4306,2.2862,2.1816,2.1743,2.1655,2.1707,2.2197,2.3226,2.4402,2.5406,2.5753,2.6189,2.7503,2.8752,2.9916,3.0713,3.1846,3.2775,3.2775,3.3412,3.4021,3.4056,3.5369,3.623,3.5684,3.6105,3.6591,3.6607,3.6602,3.6788,3.7368,3.8035,3.8196,3.7536,3.8108,0.0,3.892,0.0,3.9155,4.0041,4.0838,4.1258,4.123,4.1233,4.1204,4.1204,4.046,4.007,4.007,4.007,4.007,4.007,4.007,4.007,4.007,4.007,4.007,4.007,4.007,4.007,4.007,4.007,4.007,4.007,4.007,4.007,3.9884,0.0,0.0,0.0,0.0,0.0,0.0,0.0,0.0,0.0,0.0,0.0,0.0,0.0,0.0,0.0,0.0,0.0,0.0,2.4221,2.4818,2.6036,2.7997,2.8398,2.929,3.0894,3.0827,3.0836,3.1012,3.1687,3.2272,3.2726,3.2886,3.3268,3.3806,3.3277,3.3258,3.3632,3.4136,3.4023,3.3623,3.4852,3.4823,3.4024,3.3967,3.3439,3.2366,2.987,2.8181,2.6922,2.5377,2.4309,2.3421,2.2517,2.2501,2.2869,2.2896,2.4532,2.6311,2.6514,2.8092,2.9615,2.948,3.0833,3.2326,3.2564,3.3703,3.4747,3.4747,3.4564,3.454,3.5052,3.5488,3.6007,3.6792,3.7091,3.7323,3.7824,3.7903,3.7982,3.8152,3.8766,3.9109,3.8933,3.9535,0.0,0.0,4.0537,4.0189,4.1621,4.1925,4.2004,4.2028,4.1473,4.1204,4.1204,4.046,4.007,4.007,4.007,4.007,4.007,4.007,4.007,4.007,4.007,4.007,4.007,4.007,4.007,4.007,4.007,4.007,4.007,4.007,4.007,4.002,0.0,0.0,0.0,0.0,0.0,0.0,0.0,0.0,0.0,0.0,0.0,0.0,0.0,0.0,0.0,0.0,0.0,0.0,0.0,2.6017,2.7122,2.8876,2.9234,3.0241,3.1968,3.169,3.1675,3.1968,3.2904,3.3456,3.3487,3.4141,3.4642,3.5038,3.4626,3.4645,3.5004,3.5354,3.5131,0.0,0.0,3.5471,3.4499,3.4175,3.3638,3.2772,3.0165,2.8455,2.7332,2.6288,2.531,2.436,2.3416,2.3756,2.4611,2.5077,2.6518,2.8108,2.8557,2.9811,3.0991,3.0943,3.2118,3.327,3.3671,3.4703,3.5504,3.5504,3.5195,3.5056,3.5394,3.6227,3.689,3.7347,3.8117,3.8722,3.8839,3.8825,3.8871,3.8812,3.942,3.9858,3.983,4.0418,4.1581,0.0,4.2346,4.2361,4.3719,4.3805,4.363,4.3301,4.2574,4.1863,4.1221,4.046,4.007,4.007,4.007,4.007,4.007,4.007,4.007,4.007,0.0,4.007,4.007,4.007,4.007,4.007,4.007,4.007,4.007,4.007,4.007,4.007,0.0,0.0,0.0,0.0,0.0,0.0,0.0,0.0,0.0,0.0,0.0,0.0,0.0,0.0,0.0,0.0,0.0,0.0,0.0,0.0,2.8291,2.9546,2.9781,3.0658,3.2397,3.1967,3.191,3.2344,3.3566,3.3864,3.3392,3.4595,3.52,3.5294,3.5301,3.5677,3.6253,3.6276,3.5898,3.5357,3.6163,3.569,3.4449,0.0,3.3185,3.2256,2.9773,2.8346,2.7563,2.7055,2.6213,2.5269,2.4703,2.5422,2.672,2.7872,2.8845,2.9754,3.0862,3.1391,3.1767,3.2376,3.2985,3.3688,3.4454,3.507,3.5504,3.5504,3.5504,3.5504,3.5504,3.7012,3.8135,3.7729,3.918,4.0285,3.9825,3.9747,3.9706,3.9695,4.0171,4.0502,4.0558,4.1169,4.2137,4.37,4.4179,4.4764,4.5597,4.5589,4.5175,4.4451,4.3775,4.276,4.1373,4.0696,4.0324,4.0223,4.0223,4.0172,4.007,4.007,4.007,4.007,0.0,0.0,4.007,4.007,4.007,4.007,4.007,4.007,4.007,4.007,4.007,4.007,0.0,0.0,0.0,0.0,0.0,0.0,0.0,0.0,0.0,0.0,2.2326,2.2919,0.0,0.0,0.0,0.0,0.0,0.0,0.0,0.0,0.0,2.9559,3.0643,3.1354,3.1584,3.2083,3.2083,3.1596,3.1836,3.2172,3.2575,3.2835,3.3255,3.3791,3.3769,3.3838,3.3981,3.3973,3.3912,3.3826,3.4617,3.4757,3.4482,3.4432,0.0,0.0,2.8502,2.7456,2.7703,2.7705,2.7848,2.7962,2.7379,2.7956,2.8889,2.9538,3.0701,3.1829,3.1982,3.3352,3.4629,3.4183,3.4593,3.5165,3.532,3.5394,3.5504,3.5504,3.5504,3.5504,3.5504,3.6674,3.7928,3.8928,3.9842,4.0783,4.1754,4.1413,4.1023,4.1008,4.1185,4.1263,4.1222,4.1789,0.0,0.0,4.5087,4.5729,4.5474,4.4847,4.4238,4.3601,4.3487,4.2997,4.2117,4.1965,4.161,4.1018,4.1018,4.0679,4.007,4.007,4.007,4.007,4.007,0.0,4.007,4.007,4.007,4.007,4.007,4.007,4.007,4.007,4.007,4.007,0.0,0.0,0.0,0.0,0.0,0.0,0.0,2.1911,2.3259,2.4622,2.4808,2.5195,2.609,2.6797,2.7409,0.0,0.0,0.0,0.0,0.0,0.0,0.0,3.0724,3.1525,3.144,3.2481,3.2613,3.1867,0.0,3.2411,3.2362,3.2757,3.3064,3.34,3.3389,3.3398,3.338,3.3405,3.3621,3.3957,3.3957,3.4236,3.4466,0.0,0.0,0.0,2.9619,2.9223,2.9409,2.9804,3.0579,3.1307,3.0254,3.0577,3.1376,3.1971,3.2762,3.3572,3.3809,3.4703,3.5394,3.507,3.524,3.5504,3.5504,3.5504,3.5504,3.5504,3.5504,3.5504,3.5504,3.6552,3.762,3.8246,3.9481,4.0619,4.1287,4.1374,4.1409,4.138,4.1435,4.1562,4.1863,4.2634,4.3487,4.4285,4.55,4.614,4.5993,4.5374,4.4725,4.4062,4.3639,4.325,4.2878,4.2489,4.2117,4.1762,4.139,4.1221,4.1204,4.0426,4.029,4.0646,4.0257,0.0,4.007,4.007,4.007,4.007,4.007,4.007,4.007,4.007,4.007,4.007,0.0,0.0,0.0,0.0,0.0,0.0,0.0,2.314,2.459,2.6574,2.6922,2.733,2.815,2.8429,2.8858,0.0,0.0,0.0,0.0,0.0,0.0,0.0,0.0,0.0,0.0,0.0,0.0,3.2297,3.3026,0.0,0.0,0.0,0.0,0.0,3.2993,3.2934,3.2933,3.2933,3.3271,0.0,0.0,3.3627,0.0,0.0,0.0,0.0,0.0,3.0893,3.1006,3.183,3.2973,3.3938,3.2894,3.3086,3.3731,3.421,3.4633,3.5017,3.5567,3.5954,3.6155,3.5999,3.5984,3.5984,3.5984,3.5704,3.5504,3.5504,3.5504,3.5504,3.5504,3.6451,3.7292,3.759,3.9086,4.0339,4.0742,4.1419,4.1792,4.1783,4.1967,4.2134,4.2565,4.3472,0.0,4.4765,4.585,0.0,4.6272,4.5888,4.5348,4.4604,4.3995,4.3673,4.3673,4.3081,4.2709,4.2523,4.1948,4.1897,4.2252,4.1085,4.0781,4.117,4.0578,0.0,0.0,4.007,4.007,4.007,4.007,4.007,4.007,4.007,4.007,4.007,0.0,0.0,0.0,0.0,0.0,0.0,0.0,2.4087,2.526,2.7233,2.8021,2.8862,3.0098,2.9282,2.8858,0.0,0.0,0.0,0.0,0.0,0.0,0.0,0.0,0.0,0.0,0.0,0.0,3.2293,3.3039,0.0,0.0,0.0,0.0,0.0,0.0,3.141,3.1393,3.1393,0.0,0.0,0.0,0.0,0.0,0.0,0.0,0.0,0.0,3.0563,3.1335,3.2659,3.3718,3.4523,3.5035,3.5204,3.5314,3.5371,3.58,3.6319,3.639,3.7418,3.828,3.7636,3.748,3.748,3.748,3.6466,3.5504,3.5504,3.5504,3.5504,3.5504,3.611,3.6964,3.8123,3.8962,4.0115,4.1947,4.2752,4.3149,4.312,4.3647,4.3796,4.3265,4.4144,4.4734,4.4812,4.6486,0.0,4.5549,4.5604,4.5348,4.4604,4.4502,4.4468,4.4468,4.4401,4.4012,4.3318,4.325,4.2895,4.2286,4.2151,4.1762,4.1204,4.1136,0.0,0.0,4.007,4.007,4.007,4.007,4.007,4.007,4.007,4.007,4.007,0.0,0.0,0.0,0.0,0.0,0.0,2.3094,2.4288,2.5774,2.7408,2.8203,2.9267,3.0896,3.0281,2.999,3.0698,0.0,0.0,0.0,0.0,0.0,0.0,0.0,0.0,0.0,0.0,3.369,3.2961,3.3259,0.0,0.0,0.0,0.0,0.0,0.0,3.119,3.1173,3.0825,0.0,0.0,0.0,0.0,0.0,0.0,0.0,0.0,0.0,0.0,3.2804,3.4133,3.4777,3.507,3.4916,3.5195,3.5584,3.6012,3.6543,3.7189,3.7694,3.8559,3.9355,3.9645,3.8729,3.7824,3.8311,3.6934,3.5504,3.5504,3.5504,3.5504,3.5504,3.5704,3.6185,3.7121,3.7764,3.8766,4.0353,4.114,4.2016,4.3195,4.4143,4.4649,4.4756,0.0,4.7232,4.7288,4.8015,0.0,4.6977,4.6557,4.6007,4.528,4.4823,4.4587,4.4587,4.4587,4.4418,4.4113,4.3639,4.3504,4.3639,4.2709,4.2388,4.2506,4.2049,0.0,0.0,4.0747,4.0493,4.007,4.007,4.007,4.007,4.007,4.007,4.007,0.0,0.0,0.0,0.0,0.0,2.3524,2.3287,2.4591,2.6171,2.771,2.849,2.9554,3.1315,3.108,3.099,3.1435,3.0659,0.0,0.0,0.0,0.0,0.0,0.0,0.0,0.0,0.0,3.3931,3.3428,3.3433,3.3624,0.0,0.0,3.2645,3.2599,0.0,0.0,0.0,0.0,0.0,0.0,0.0,0.0,0.0,0.0,0.0,0.0,0.0,0.0,0.0,0.0,0.0,3.5746,3.5265,3.5612,3.6196,3.6211,3.7106,3.8204,3.8877,4.0189,4.1485,4.1703,4.0398,3.9061,3.9196,3.7471,3.5782,3.5554,3.5504,3.5504,3.5504,3.5504,3.5799,3.6637,3.7099,3.7929,3.9469,4.0412,4.152,4.2864,4.4067,4.4756,4.4958,4.6763,4.8216,4.8973,0.0,0.0,4.8257,4.753,4.6684,4.5737,4.4976,4.4587,4.4587,4.4587,4.4587,4.457,4.4028,4.4045,4.4536,4.3453,4.3132,4.3386,4.2861,0.0,0.0,4.1204,4.0764,4.007,4.007,4.007,4.007,4.007,4.007,4.007,0.0,0.0,0.0,0.0,0.0,0.0,2.4462,2.5135,2.6324,2.8338,2.9192,3.0073,3.139,3.1524,3.1509,3.1482,3.1467,0.0,0.0,0.0,0.0,0.0,0.0,0.0,0.0,0.0,3.3523,3.3494,3.3512,3.4223,3.5526,3.4074,3.3393,3.3328,0.0,0.0,0.0,0.0,0.0,0.0,0.0,0.0,3.1482,0.0,0.0,0.0,0.0,0.0,0.0,0.0,0.0,0.0,0.0,3.7095,3.7498,3.598,3.7563,3.9804,3.9818,4.2561,4.5108,4.3736,4.2783,4.1868,4.0308,3.8231,3.6384,3.5668,3.5504,3.5504,3.5504,3.5504,3.5874,3.7166,3.7401,3.8089,4.0133,4.1504,4.2425,4.244,4.3503,4.4048,4.3396,4.5054,4.7036,4.8861,0.0,0.0,4.8984,4.8308,4.7242,4.5754,4.4976,4.4587,4.4587,4.4587,4.4587,4.4587,4.457,4.457,4.4587,4.4553,4.4147,0.0,0.0,0.0,0.0,4.1204,4.0764,4.007,4.007,4.007,4.007,4.007,4.007,4.007,0.0,0.0,0.0,0.0,0.0,0.0,0.0,2.5196,2.6324,2.8338,2.9192,3.0088,3.1332,3.1482,3.1895,3.2904,3.2144,0.0,0.0,0.0,0.0,0.0,0.0,0.0,0.0,0.0,3.4964,3.4939,3.4431,3.4678,3.5555,3.409,3.3433,3.3404,3.2038,3.1272,0.0,0.0,0.0,0.0,0.0,3.1482,3.1482,0.0,0.0,0.0,0.0,0.0,0.0,0.0,0.0,0.0,0.0,0.0,0.0,3.7215,3.8382,3.9893,4.0463,4.1832,4.3139,4.3339,4.2094,4.0639,4.0139,3.8276,3.6384,3.5668,3.5504,3.5504,3.5504,3.5859,3.6574,3.7886,3.8442,3.9281,4.0829,4.1876,4.2731,4.3633,4.5428,4.6904,0.0,0.0,4.8183,4.8973,0.0,0.0,4.9001,4.8308,4.7462,4.6481,4.5737,4.5094,4.4587,4.4587,4.4587,4.4587,4.4587,4.4587,4.4587,4.4587,4.4451,0.0,0.0,0.0,0.0,4.1407,4.0764,4.007,4.007,4.007,4.007,4.007,4.007,4.007,0.0,0.0,0.0,0.0,0.0,0.0,0.0,2.5571,2.6633,2.8357,2.92,3.0066,3.1375,3.1757,3.2257,3.3224,3.295,0.0,0.0,0.0,0.0,0.0,0.0,0.0,0.0,3.4218,3.4333,3.4108,3.335,3.3516,3.4442,3.3245,3.2863,3.308,3.1968,3.1339,0.0,0.0,0.0,0.0,3.1202,3.1482,3.1482,0.0,0.0,0.0,0.0,0.0,0.0,0.0,0.0,0.0,0.0,0.0,0.0,0.0,3.904,4.0056,4.0835,4.2016,4.3031,4.3352,4.2169,4.0696,3.9796,3.8257,3.6779,3.5703,3.5504,3.5504,3.5504,3.5829,3.6567,3.7846,3.8603,3.9556,4.1171,4.2195,4.3349,4.5102,4.6237,4.7589,0.0,4.8693,4.8431,0.0,0.0,0.0,4.9001,4.8308,4.7564,4.6802,4.6075,4.5348,4.4587,4.4587,4.4587,4.4587,4.4587,4.4587,4.4587,4.4587,4.4587,0.0,0.0,0.0,0.0,4.1796,4.1018,4.007,4.007,4.007,4.0104,4.0392,4.051,4.0544,0.0,0.0,0.0,0.0,0.0,0.0,0.0,2.6144,2.7018,2.8341,2.9157,3.009,3.1354,3.2149,3.2648,3.2714,0.0,0.0,0.0,0.0,0.0,0.0,0.0,0.0,0.0,3.2647,3.2345,3.1652,3.0917,3.1258,3.2496,3.1774,3.1773,3.2408,3.1801,3.1127,0.0,0.0,0.0,0.0,3.1275,3.1482,0.0,0.0,0.0,0.0,0.0,0.0,0.0,0.0,0.0,0.0,0.0,0.0,0.0,0.0,0.0,0.0,0.0,4.2672,4.4082,4.3356,4.2625,4.1473,3.9347,3.827,0.0,3.5785,3.5504,3.5519,3.5644,3.5659,3.6045,3.7411,3.8196,3.9278,4.1227,4.2669,4.4419,4.6624,4.6314,4.6671,4.8458,4.8034,4.8065,0.0,0.0,0.0,4.9001,4.8308,4.7564,4.6802,4.6075,4.5348,4.4587,4.4587,4.4587,4.4587,4.4587,4.4587,4.4587,4.4587,4.4587,0.0,0.0,0.0,0.0,4.2202,4.139,4.0223,4.0121,4.0138,4.0307,4.0967,4.1238,4.139,0.0,0.0,0.0,0.0,0.0,0.0,0.0,0.0,0.0,0.0,2.8847,3.009,3.1449,3.2187,3.3028,0.0,0.0,0.0,0.0,0.0,0.0,0.0,0.0,0.0,0.0,3.3357,3.3024,3.2364,3.1626,3.1454,3.1823,3.1101,3.1117,3.1758,3.1149,3.07,0.0,0.0,0.0,0.0,3.1437,3.1482,0.0,0.0,0.0,0.0,3.2707,3.3814,0.0,0.0,0.0,0.0,0.0,0.0,0.0,0.0,3.9952,4.0138,4.029,0.0,4.1121,4.0951,4.0273,3.9425,0.0,3.7472,3.6593,3.5706,3.5504,3.5814,3.6778,3.6949,3.7536,3.9395,4.0249,4.1069,4.2027,4.4414,4.6249,4.6623,4.7697,4.8247,4.7816,4.8131,4.8547,0.0,0.0,4.9001,4.9001,4.8308,4.7564,4.6802,4.6075,4.5348,4.4587,4.4587,4.4587,4.4587,4.4587,4.4587,4.4587,4.4587,4.4587,0.0,0.0,0.0,4.3031,4.1305,4.1068,4.166,4.0527,4.0781,4.1728,4.1339,4.1559,4.2066,0.0,0.0,0.0,0.0,0.0,0.0,0.0,0.0,0.0,0.0,0.0,3.0105,3.1467,3.245,0.0,0.0,0.0,0.0,0.0,0.0,0.0,0.0,0.0,0.0,3.2622,3.2614,3.2283,3.165,3.1259,3.0923,3.0678,3.055,3.0716,3.1097,3.1397,0.0,0.0,0.0,0.0,3.191,3.1599,0.0,0.0,0.0,0.0,0.0,3.316,3.4064,0.0,3.5444,3.6189,3.6992,0.0,0.0,0.0,0.0,3.9817,4.007,4.007,4.007,4.007,4.007,3.948,3.8703,3.7961,3.7157,3.6405,3.5649,3.5504,3.5814,3.6793,3.7193,3.7955,3.9655,4.0734,4.1851,4.3096,4.5011,4.661,4.7291,4.8061,4.8523,0.0,4.8775,0.0,0.0,0.0,4.9001,4.9001,4.7986,4.7208,4.6802,4.5754,4.4993,4.4587,4.4587,4.4587,4.4587,4.4587,4.4587,4.4587,4.4587,4.4587,0.0,0.0,0.0,4.3318,4.2117,4.1677,4.1745,4.1271,4.1373,4.183,4.2117,4.2472,4.2861,0.0,0.0,0.0,0.0,0.0,0.0,0.0,0.0,0.0,0.0,0.0,0.0,0.0,0.0,0.0,0.0,0.0,0.0,0.0,0.0,0.0,0.0,0.0,3.2101,3.139,3.1422,3.115,3.0357,3.0447,3.0193,2.9594,3.0318,3.0875,3.1182,3.2423,3.2638,0.0,0.0,0.0,3.2773,3.2088,0.0,0.0,0.0,0.0,0.0,0.0,0.0,0.0,3.4958,3.5424,3.5757,3.6535,0.0,0.0,0.0,0.0,0.0,4.007,4.0003,3.9935,3.9935,3.9345,3.8535,3.7809,3.6977,3.6268,3.5652,3.5504,3.5814,3.6778,3.7288,3.809,3.9643,4.0886,4.2369,4.4325,4.552,4.6667,4.793,4.8099,0.0,4.9649,0.0,0.0,0.0,0.0,4.9001,4.9001,4.7597,4.6786,4.6786,4.5348,4.4587,4.4587,4.4587,4.4587,4.4587,4.4587,4.4587,4.4587,4.4587,4.4587,0.0,0.0,0.0,4.3572,4.3352,4.2642,4.1762,4.2151,4.2049,4.1863,4.2997,4.3504,4.369,0.0,0.0,0.0,0.0,0.0,0.0,0.0,0.0,0.0,0.0,0.0,0.0,0.0,0.0,0.0,0.0,0.0,0.0,0.0,0.0,0.0,0.0,3.1687,3.133,3.0672,3.124,3.0941,2.9729,3.0253,3.0193,2.9648,3.0937,3.2457,3.4144,3.434,3.4654,3.5156,0.0,0.0,3.4286,3.3628,0.0,0.0,0.0,0.0,0.0,0.0,0.0,0.0,3.4037,3.4657,3.5757,3.6535,0.0,0.0,0.0,0.0,0.0,4.007,3.9598,3.9059,3.9059,3.8505,3.7786,3.6964,3.62,3.5637,3.5509,3.5504,3.6185,3.8515,3.8542,3.9046,4.1538,4.2547,4.379,4.5743,4.7632,4.8424,4.734,0.0,4.9978,4.8409,0.0,0.0,0.0,0.0,4.9001,4.9001,4.7597,4.6786,4.6786,4.5348,4.4587,4.4587,4.4587,4.4587,4.4587,4.4587,4.4587,4.4587,4.4587,4.4587,0.0,0.0,4.391,4.4299,4.2997,4.3081,4.3944,4.276,4.3014,4.4012,4.3589,4.3842,4.4418,0.0,0.0,0.0,0.0,0.0,0.0,0.0,0.0,0.0,0.0,0.0,0.0,0.0,0.0,0.0,0.0,0.0,0.0,0.0,0.0,0.0,3.1482,3.1482,3.139,3.1061,3.0994,3.0666,3.0088,3.0022,3.0048,3.0173,3.1945,3.3698,3.5342,3.5675,3.5796,3.5767,0.0,3.5556,3.511,0.0,0.0,0.0,0.0,0.0,0.0,0.0,0.0,0.0,0.0,3.5115,3.5673,3.6045,0.0,0.0,0.0,0.0,0.0,3.9463,3.9194,3.869,3.787,3.7386,3.7061,3.6683,3.6045,3.5629,3.5984,3.6014,3.6763,3.8989,3.9722,4.0882,4.3548,4.4265,4.4576,4.5104,4.6124,4.6564,0.0,0.0,4.8408,4.7791,0.0,0.0,0.0,0.0,0.0,4.9001,4.7597,4.6786,4.6786,4.5348,4.4587,4.4587,4.4587,4.4587,4.4587,4.4587,4.4587,4.4587,4.4587,4.4587,4.4553,0.0,4.4248,4.4536,4.3826,4.369,4.3927,4.3639,4.369,4.3961,4.4012,4.4265,4.4587,0.0,0.0,0.0,0.0,0.0,0.0,0.0,0.0,0.0,0.0,0.0,0.0,0.0,0.0,0.0,0.0,0.0,0.0,0.0,0.0,3.1409,3.1219,3.1409,3.1332,3.1091,3.0698,3.0357,3.0058,2.9729,3.0213,3.1365,3.3281,3.5043,3.658,3.71,3.711,3.6767,3.6532,3.6321,3.5997,0.0,0.0,0.0,0.0,0.0,0.0,0.0,0.0,0.0,0.0,0.0,0.0,0.0,0.0,0.0,3.7483,3.8269,3.8952,3.8722,3.8623,3.8288,3.6953,3.6607,3.6646,3.6781,3.634,3.617,3.6995,3.7026,3.7531,3.9298,4.0741,4.2364,4.4488,4.4923,4.4935,4.4616,4.4889,4.5093,4.5044,4.6191,4.7177,0.0,0.0,0.0,0.0,0.0,0.0,4.8748,4.7513,4.6718,4.6549,4.5263,4.4587,4.4587,4.4587,4.4587,4.4587,4.4587,4.4587,4.4587,4.4587,4.4587,4.4587,4.4587,4.4587,4.4587,4.4587,4.4231,4.3741,4.435,4.4215,4.3775,4.435,4.4604,4.4598,0.0,0.0,0.0,0.0,0.0,0.0,0.0,0.0,0.0,0.0,0.0,0.0,0.0,0.0,0.0,0.0,0.0,0.0,0.0,0.0,3.1161,3.0389,3.1087,3.0971,2.9744,3.0253,2.9953,2.8742,2.9325,3.0944,3.3524,3.4921,3.6705,3.8788,3.8836,3.9175,3.9732,3.9011,3.83,3.7494,3.6014,0.0,0.0,0.0,0.0,0.0,0.0,0.0,0.0,0.0,0.0,0.0,0.0,0.0,3.6801,3.6865,3.7891,3.8865,3.8108,3.7884,3.7669,3.6803,3.6594,3.6758,3.7216,3.7292,3.7636,3.8893,3.8682,3.8671,4.0055,4.1418,4.2539,4.3286,4.3975,4.4601,4.5173,0.0,4.6423,4.5696,4.7332,0.0,0.0,0.0,0.0,0.0,0.0,0.0,4.8037,4.7225,4.6481,4.5805,4.4993,4.4587,4.4587,4.4587,4.4587,4.4587,4.4587,4.4587,4.4587,4.4587,4.4587,4.4587,4.4587,4.4587,4.4587,4.4587,4.4553,4.4502,4.4553,4.4536,4.4502,4.4553,4.4592,4.4572,0.0,0.0,0.0,0.0,0.0,0.0,0.0,0.0,0.0,0.0,0.0,0.0,0.0,0.0,0.0,0.0,0.0,0.0,0.0,0.0,3.0962,3.1073,3.1351,3.1106,3.0178,3.0003,2.966,2.9164,3.1158,3.3111,3.5103,3.6936,3.842,3.9665,3.9697,3.9579,3.936,3.8548,3.7801,3.7033,3.5982,3.4718,0.0,0.0,0.0,0.0,0.0,0.0,0.0,0.0,3.4186,3.4958,3.4963,3.5475,3.6045,3.6101,3.6808,3.7377,3.6669,3.7053,3.7373,3.6204,3.6213,3.6667,3.7277,3.7396,3.7797,3.9136,3.9562,4.0081,4.1389,4.2364,4.3169,4.3812,4.4488,4.482,4.4704,4.552,4.5912,4.5246,4.6872,0.0,0.0,0.0,0.0,0.0,0.0,0.0,4.7936,4.6786,4.5991,4.572,4.4976,4.4587,4.4587,4.4587,4.4587,4.4587,4.4587,4.4587,4.4587,4.4587,4.4587,4.4587,4.4587,4.4587,4.4587,4.4587,4.4587,4.4587,4.4587,4.4587,4.4604,4.4609,4.4596,4.4865,0.0,0.0,0.0,0.0,0.0,0.0,0.0,0.0,0.0,0.0,0.0,0.0,0.0,0.0,0.0,0.0,0.0,0.0,2.9879,3.0283,3.0604,3.0777,3.1232,3.1195,3.0447,3.0091,2.9858,2.9844,3.2352,3.4242,3.5577,3.7663,3.8918,3.9394,3.9423,3.9103,3.8584,3.7327,3.6646,3.6279,3.5276,3.4188,0.0,0.0,0.0,0.0,0.0,0.0,0.0,0.0,3.4064,3.4644,3.487,3.5245,3.5622,3.5656,3.618,3.6525,3.5756,3.6413,3.7005,3.5785,3.5992,3.6682,3.751,3.7886,3.8502,4.0047,4.052,4.0901,4.1614,4.213,4.257,4.3307,4.3931,4.4306,4.4174,4.4695,4.5042,4.4888,4.6076,0.0,0.0,0.0,0.0,0.0,0.0,0.0,0.0,4.6261,4.5602,4.5348,4.484,4.4587,4.4587,4.4587,4.4587,4.4587,4.4587,4.4587,4.4587,4.4587,4.4587,4.4587,4.4587,4.4587,4.4587,4.4587,4.4587,4.4587,4.4587,4.4621,4.4575,4.4596,4.5168,4.627,0.0,0.0,0.0,0.0,0.0,0.0,0.0,0.0,0.0,0.0,0.0,0.0,0.0,0.0,0.0,0.0,0.0,0.0,2.8607,2.9774,3.014,2.9333,3.0733,3.1135,3.0313,3.0486,3.0556,3.0627,3.2627,3.4008,3.4775,3.6905,3.7905,3.7889,3.7889,3.7899,3.7748,3.5558,3.5004,3.5584,3.4103,3.3095,0.0,0.0,0.0,0.0,0.0,0.0,0.0,0.0,3.4053,3.4704,3.5375,3.5594,3.5656,3.5622,3.6118,3.6531,3.5695,3.6053,3.6445,3.5668,3.6001,3.6823,3.8123,3.8896,4.0003,4.2001,4.1851,4.1146,4.0519,4.0372,4.0634,4.1268,4.1926,4.2682,4.3603,4.3733,4.405,4.5011,4.5277,0.0,0.0,0.0,0.0,0.0,0.0,0.0,0.0,4.5703,4.5348,4.4604,4.4587,4.4587,4.4587,4.4587,4.4587,4.4587,4.4587,4.4587,4.4587,4.4587,4.4587,4.4587,4.4587,4.4587,4.4587,4.4587,4.4587,4.4587,4.4587,4.4592,4.4606,4.4606,4.6456,4.8991,0.0,0.0,0.0,0.0,0.0,0.0,0.0,0.0,0.0,0.0,0.0,0.0,0.0,0.0,0.0,0.0,0.0,0.0,2.8562,2.8951,2.9456,3.011,3.1061,3.1673,3.1888,3.338,3.3664,3.269,3.3711,3.5177,3.6978,3.7617,3.7648,3.7131,3.7667,3.7297,3.6262,3.5619,3.5211,3.4829,3.3905,3.308,3.2497,0.0,0.0,0.0,0.0,0.0,0.0,0.0,0.0,0.0,3.484,3.6313,3.7595,3.5525,3.6114,3.7089,3.5282,3.5676,3.6351,3.5681,3.6289,3.7263,3.758,3.8602,3.9862,4.1369,4.0768,4.0062,4.0347,4.0372,0.0,4.0634,4.128,4.1985,4.2865,4.3553,4.4277,4.5228,4.5972,0.0,0.0,0.0,0.0,0.0,0.0,0.0,0.0,4.5213,4.4807,4.4587,4.4587,4.4587,4.4587,4.4587,4.4587,4.4587,4.4587,4.4587,4.4587,4.4587,4.4587,4.4587,4.4587,4.4587,4.4587,4.4587,4.4587,4.4587,4.4587,4.4592,4.4606,4.4624,4.6473,4.9001,0.0,0.0,0.0,0.0,0.0,0.0,0.0,0.0,0.0,0.0,0.0,0.0,0.0,0.0,0.0,0.0,0.0,0.0,0.0,0.0,2.92,3.0479,3.1213,3.2138,3.3375,3.4874,3.5521,3.5285,3.5391,3.6265,3.7882,3.7254,3.6741,3.631,3.6182,3.5583,3.4665,3.3924,3.3511,3.3272,3.2296,3.1842,3.1694,0.0,0.0,0.0,0.0,0.0,0.0,0.0,0.0,0.0,3.5259,3.6468,3.7286,3.5461,3.5886,3.6622,3.524,3.5504,3.6045,3.5954,3.6637,3.7491,3.7703,3.8616,3.9631,4.0474,3.9981,3.9498,3.9891,4.0019,0.0,4.0338,4.0755,4.1438,4.2669,4.3289,4.4155,4.5363,4.5765,0.0,0.0,0.0,0.0,0.0,0.0,0.0,0.0,4.4823,4.4587,4.4587,4.4587,4.4587,4.4587,4.4587,4.4587,4.4587,4.4587,4.4587,4.4587,4.4587,4.4587,4.4587,4.4587,4.4587,4.4587,4.4587,4.4587,4.4587,4.4587,4.4592,4.4723,4.5933,4.7471,4.8839,0.0,0.0,0.0,0.0,0.0,0.0,0.0,0.0,0.0,0.0,0.0,0.0,0.0,0.0,0.0,0.0,0.0,0.0,0.0,0.0,2.9152,3.053,3.141,3.2739,3.4671,3.545,3.6485,3.7804,3.704,3.706,3.7796,3.6243,3.5405,3.5238,3.3951,3.3351,3.3185,3.1303,3.0893,3.1406,3.0114,2.9977,3.0498,3.0498,0.0,0.0,0.0,0.0,0.0,0.0,0.0,0.0,3.6159,3.628,3.5853,3.5569,3.5628,3.5653,3.5599,3.5564,3.5719,3.634,3.6945,3.7449,3.8091,3.8713,3.9125,3.9227,3.9242,3.9233,3.9269,3.9268,3.9529,4.0202,4.0381,4.1046,4.2677,4.2957,4.3683,4.5395,4.4993,0.0,0.0,0.0,0.0,0.0,0.0,0.0,0.0,4.4587,4.4587,4.4587,4.4587,4.4587,4.4587,4.4587,4.4587,4.4587,4.4587,4.4587,4.4587,4.4587,4.4587,4.4587,4.4587,4.4587,4.4587,4.4587,4.4587,4.4587,4.4587,4.4592,4.4899,4.7626,4.8616,4.8216,0.0,0.0,0.0,0.0,0.0,0.0,0.0,0.0,0.0,0.0,0.0,0.0,0.0,0.0,0.0,0.0,0.0,0.0,0.0,0.0,2.8652,3.0514,3.277,3.4379,3.5362,3.6696,3.728,3.7026,3.6253,3.6243,3.699,3.5437,3.4144,3.302,3.3304,3.3063,3.2469,3.1645,3.1326,3.1406,3.0114,2.9977,3.0498,3.0498,3.1349,0.0,0.0,0.0,0.0,0.0,0.0,0.0,3.5704,3.6854,3.7858,3.6027,3.6337,3.7074,3.6435,3.6295,3.631,3.6466,3.6588,3.6722,3.6873,3.7014,3.7298,3.7704,3.7831,3.8009,3.8498,3.8639,3.8837,3.9514,4.0203,4.0976,4.2092,4.281,4.3657,4.4693,4.4671,0.0,0.0,0.0,0.0,0.0,0.0,0.0,4.4587,4.4587,4.4587,4.4587,4.4587,4.4587,4.4587,4.4587,4.4587,0.0,4.4587,4.4587,4.4587,4.4587,4.4587,4.4587,4.4587,4.4587,4.4587,4.4587,4.4587,4.4587,4.4587,4.4592,4.4673,4.5336,4.5564,4.579,0.0,0.0,0.0,0.0,0.0,0.0,0.0,0.0,0.0,0.0,0.0,0.0,0.0,0.0,0.0,0.0,0.0,0.0,0.0,0.0,0.0,3.1406,3.3818,3.5421,3.6163,3.6958,3.7347,3.733,3.6552,3.6192,3.6197,3.4661,3.3376,3.2298,3.2343,3.215,3.1742,3.1161,3.0784,3.04,2.947,2.9477,3.0063,3.0098,3.1127,3.2491,3.2121,0.0,0.0,0.0,0.0,0.0,0.0,0.0,3.701,3.5844,3.6041,3.6583,3.6152,3.6265,3.658,3.6834,3.6708,3.652,3.6486,3.628,3.6125,3.6451,3.6763,3.7131,3.7789,3.8157,3.8737,3.9868,4.0432,4.1147,4.2458,4.2986,4.3621,4.4514,4.4587,0.0,0.0,0.0,0.0,0.0,0.0,4.4587,4.4587,4.4587,4.4587,4.4587,4.4587,4.4587,4.4587,4.4587,4.4587,4.4587,4.4587,4.4587,4.4587,4.4587,4.4587,4.4587,4.4587,4.4587,4.4587,4.4587,4.4587,4.4587,4.4587,4.4581,4.4586,4.4613,4.5479,4.6921,0.0,0.0,0.0,0.0,0.0,0.0,0.0,0.0,0.0,0.0,0.0,0.0,0.0,0.0,0.0,0.0,0.0,0.0,0.0,0.0,0.0,3.2368,3.4482,3.5926,3.6569,3.6705,3.7026,3.7516,3.6891,3.618,3.5402,3.4033,3.293,3.207,3.1461,3.119,3.1151,3.0692,3.0146,2.9536,2.9053,2.9296,2.992,2.977,0.0,3.2473,3.2397,3.2849,3.3681,3.4844,0.0,0.0,0.0,0.0,3.5504,3.5504,3.5504,3.5519,3.5659,3.6112,3.66,3.7157,3.6859,3.6445,3.6386,3.6069,3.5753,3.5564,3.5954,3.6501,3.7098,3.791,3.8903,4.0276,4.0883,4.1658,4.3108,4.3426,4.3814,4.4514,4.4587,0.0,0.0,0.0,0.0,0.0,0.0,4.4299,4.457,4.4451,4.4451,4.4587,4.4587,4.4519,4.4384,4.4519,4.4519,4.4384,4.4519,4.4587,4.4587,4.4587,4.4587,4.4587,4.4587,4.4587,4.4587,4.4587,4.4587,4.4587,4.4587,4.4587,4.4587,4.4598,4.614,4.8294,0.0,0.0,0.0,0.0,0.0,0.0,0.0,0.0,0.0,0.0,0.0,0.0,0.0,0.0,0.0,0.0,0.0,0.0,2.6542,0.0,0.0,3.2434,3.4482,3.5673,3.5774,3.6434,3.6502,3.5926,3.5825,3.5385,3.4624,3.3778,3.2662,3.1326,3.1241,3.119,3.1185,3.1224,3.0858,3.0268,3.0307,3.0748,3.1268,0.0,0.0,0.0,3.1865,3.2451,3.3505,3.3683,3.45,0.0,0.0,0.0,3.5504,3.5504,3.5504,3.5644,3.6185,3.6452,3.6555,3.6601,3.6565,3.6351,3.5747,3.6403,3.6841,3.5708,3.5549,3.5859,3.6522,3.7709,3.8901,3.9709,4.1566,4.3047,4.3246,4.3948,4.4457,4.4587,4.4587,0.0,0.0,0.0,0.0,0.0,4.3352,4.3183,4.4502,4.3944,4.3876,4.4553,4.4587,4.4265,4.3589,4.4248,4.4248,4.3589,4.4265,4.4587,4.4587,4.4587,4.4587,4.4587,4.4587,4.4587,4.4587,4.4587,4.4587,4.4587,4.4587,4.4587,4.4621,4.4615,4.4834,4.5555,0.0,0.0,0.0,0.0,0.0,0.0,0.0,0.0,0.0,0.0,0.0,0.0,0.0,0.0,0.0,2.4477,2.4773,2.5469,2.6783,2.9371,3.1325,3.2336,3.4054,3.5182,3.5605,3.596,3.5757,3.4979,3.4979,3.4387,3.3254,3.2933,3.2645,3.2425,3.2425,3.2425,3.2459,3.2513,3.1934,3.1024,3.11,3.083,0.0,0.0,0.0,0.0,0.0,0.0,3.3093,3.4256,3.4745,3.5026,3.5365,0.0,0.0,0.0,3.5504,3.5659,3.631,3.6216,3.6094,3.6843,3.6461,3.5946,3.606,3.6507,3.6609,3.5703,3.6451,3.7357,3.7655,3.8258,3.933,4.1374,4.225,4.2811,4.3306,4.3328,4.3483,4.3893,4.3555,0.0,0.0,0.0,0.0,0.0,4.3555,4.3403,4.4519,4.3436,4.3149,4.391,4.3927,4.3775,4.342,4.4198,4.4401,4.4079,4.4418,4.4587,4.4587,4.4587,4.4587,4.4587,4.4587,4.4587,4.4587,4.4587,4.4587,4.4587,4.4587,4.4587,4.4621,4.4606,4.5681,4.7234,0.0,0.0,0.0,0.0,0.0,0.0,0.0,0.0,0.0,0.0,0.0,0.0,0.0,0.0,0.0,0.0,2.4074,2.5155,2.6977,2.909,3.0792,3.1968,3.3592,3.4759,3.5318,3.5334,3.5064,3.4489,3.4117,3.3457,3.256,3.2374,3.278,3.366,3.3288,3.3119,3.3119,3.333,3.2689,3.1474,3.1498,0.0,0.0,0.0,0.0,0.0,0.0,0.0,0.0,0.0,0.0,3.4777,3.5165,3.5365,0.0,0.0,0.0,3.5629,3.6125,3.5859,3.5708,3.6677,3.6477,3.6052,3.6246,3.6664,3.6692,3.5701,3.7014,3.8515,3.8919,3.9357,4.0309,4.2397,4.261,4.2682,4.3069,4.2655,4.2483,4.3081,4.2625,4.2811,0.0,0.0,0.0,0.0,4.3673,4.3555,4.4536,4.3132,4.2642,4.3403,4.3234,4.3047,4.2861,4.3606,4.4198,4.4587,4.4384,4.4384,4.457,4.4367,4.4282,4.4282,4.4282,4.4401,4.4553,4.4316,4.4367,4.4587,4.4587,4.4587,4.4604,4.4572,4.6489,4.9017,0.0,0.0,0.0,0.0,0.0,0.0,0.0,0.0,0.0,0.0,0.0,0.0,0.0,2.3625,2.3595,2.3595,2.4074,2.5155,2.6977,2.909,3.0593,3.1241,3.3339,0.0,3.4556,3.4556,3.4523,3.4489,3.3085,3.2713,3.3339,3.2611,3.3051,3.437,3.2966,3.2341,3.2391,0.0,0.0,0.0,0.0,0.0,0.0,0.0,0.0,0.0,0.0,0.0,0.0,0.0,0.0,0.0,0.0,3.5011,3.5504,0.0,0.0,0.0,3.5534,3.5519,3.5534,3.5609,3.6477,3.6966,3.5813,3.6985,3.7778,3.5857,3.6537,3.7953,3.9609,4.1151,4.1913,4.1421,4.2456,4.3127,4.2472,4.2325,4.2291,4.2337,4.2303,4.2608,0.0,0.0,0.0,0.0,4.32,4.2997,4.4502,4.3132,4.2642,4.3403,4.2726,4.2016,4.1322,4.2049,4.3132,4.457,4.3826,4.3859,4.4553,4.3809,4.347,4.347,4.347,4.391,4.4519,4.3567,4.3736,4.4587,4.4587,4.4587,4.4621,4.4591,4.6473,4.8975,0.0,0.0,0.0,0.0,0.0,0.0,0.0,0.0,0.0,0.0,0.0,0.0,0.0,2.3595,2.3767,2.4074,2.491,2.5824,2.6786,2.8498,2.9765,3.048,3.2611,3.4015,3.4472,3.4962,3.4785,3.386,3.3304,3.2656,3.2038,3.1756,3.2381,3.3803,3.3736,3.3964,3.4404,3.427,0.0,0.0,0.0,0.0,0.0,0.0,0.0,0.0,0.0,0.0,0.0,0.0,0.0,0.0,0.0,0.0,0.0,3.5504,3.5504,3.5504,3.5504,3.5504,3.5624,3.6037,3.6134,3.6201,3.6163,3.7076,3.7547,3.6385,3.8446,4.0495,4.0619,4.1107,4.1906,4.3194,4.2966,4.26,4.2356,4.1493,4.1239,4.2168,4.188,4.2269,4.3995,0.0,0.0,0.0,0.0,4.325,4.3809,4.2405,4.1728,4.1982,4.1728,4.1694,4.1897,4.2642,4.3047,4.3098,4.2828,4.2844,4.3098,4.2828,4.2692,4.2675,4.2202,4.2692,4.3809,4.3415,4.3826,4.4587,4.4587,4.4598,4.4579,4.4599,4.6456,4.8984,0.0,0.0,0.0,0.0,0.0,0.0,0.0,0.0,0.0,0.0,0.0,0.0,0.0,0.0,2.4013,2.4961,2.5689,2.6495,2.7401,2.8653,2.9583,3.0091,3.2222,3.3541,3.3778,3.4516,3.4313,3.3144,3.2656,3.2034,3.1276,3.1033,3.178,3.342,3.3685,3.4344,0.0,0.0,0.0,3.3144,0.0,0.0,3.1213,0.0,0.0,0.0,0.0,0.0,0.0,0.0,0.0,0.0,0.0,0.0,0.0,0.0,3.5325,3.5459,3.522,3.5325,3.5624,3.6066,3.5977,3.5893,3.6103,3.6728,3.7113,3.6656,3.87,4.0713,4.1035,4.1225,4.1874,4.3575,4.2957,4.2227,4.1984,4.1102,4.0933,4.2151,4.1863,4.2252,4.4028,0.0,0.0,0.0,0.0,0.0,4.3809,4.2388,4.1339,4.0849,4.0832,4.1066,4.156,4.2297,4.2432,4.193,4.1926,4.2049,4.2286,4.2033,4.1931,4.1897,4.1407,4.2049,4.3403,4.3339,4.3813,4.4587,4.4587,4.4592,4.4707,4.5732,4.731,4.9008,0.0,0.0,0.0,0.0,0.0,0.0,0.0,0.0,0.0,0.0,0.0,0.0,0.0,0.0,0.0,2.6166,2.635,2.7108,2.8887,2.9685,3.0108,3.0108,3.2181,3.3074,3.2422,3.3129,3.316,3.249,3.115,3.0787,3.1325,3.0705,3.1466,3.3386,3.2747,3.3253,3.4504,0.0,3.3194,3.2442,0.0,3.1334,3.2458,0.0,0.0,0.0,3.4226,3.4516,0.0,3.3742,0.0,0.0,0.0,0.0,0.0,0.0,0.0,0.0,0.0,0.0,0.0,3.5504,3.5983,3.6349,3.5654,3.5998,3.6501,3.6631,3.7121,3.8284,4.0802,4.1703,4.2096,4.2307,4.232,4.2066,4.1373,4.1253,4.1523,4.2236,4.232,4.2625,4.3369,0.0,0.0,0.0,4.4587,4.457,4.4553,4.3081,4.1593,4.0121,4.0104,4.01,4.0106,4.0838,4.1208,4.118,4.1174,4.1542,4.2202,4.1491,4.1187,4.1204,4.1204,4.2049,4.3386,4.3192,4.3664,4.4626,4.4587,4.4592,4.4933,4.7834,4.895,4.9008,0.0,0.0,0.0,0.0,0.0,0.0,2.7118,2.6138,0.0,0.0,0.0,0.0,0.0,0.0,2.5998,2.6949,2.7389,2.8015,2.8921,2.9685,3.0108,3.0108,3.1733,3.2574,3.2422,3.3178,3.3259,3.256,3.2611,3.251,3.216,3.2426,3.3117,3.4192,3.3987,3.4429,3.5214,3.3563,0.0,3.3895,3.2512,3.2443,0.0,0.0,0.0,0.0,0.0,3.411,3.4445,0.0,3.4658,3.5085,0.0,0.0,0.0,0.0,0.0,0.0,3.4442,0.0,0.0,0.0,0.0,0.0,3.5649,3.6031,3.6907,3.7932,3.9185,4.0707,4.238,4.3339,4.3729,4.3196,4.3115,4.3031,4.2844,4.2354,4.2286,4.3031,4.3115,4.3403,4.4181,0.0,0.0,0.0,4.4587,4.4333,4.3775,4.232,4.1068,4.0104,4.0612,4.061,4.0101,4.0813,4.0914,4.0404,4.0425,4.0493,4.0679,4.0476,4.0696,4.1204,4.1204,4.2049,4.3369,4.278,4.3325,4.4623,4.4592,4.4592,4.4673,4.5503,4.7149,4.8923,0.0,0.0,0.0,0.0,0.0,2.7131,2.7412,2.6655,2.6134,0.0,0.0,0.0,0.0,0.0,0.0,2.811,2.8514,2.9304,3.0746,3.0986,3.1041,3.1041,3.1954,3.2288,3.1967,3.2768,3.2826,3.212,3.2212,3.2342,3.2492,3.2597,3.3295,3.4496,0.0,0.0,0.0,0.0,0.0,0.0,3.3367,0.0,0.0,3.3893,3.4103,0.0,0.0,0.0,3.4847,3.4295,3.434,0.0,0.0,0.0,0.0,0.0,0.0,0.0,0.0,0.0,0.0,0.0,0.0,0.0,3.5619,3.6054,3.6955,3.8074,3.9321,4.0631,4.2152,4.3063,4.3574,4.3432,4.369,4.3792,4.347,4.3031,4.3047,4.3809,4.391,4.4079,4.4536,4.4587,4.4587,4.4587,4.4587,4.4096,4.3014,4.1547,4.0555,4.0104,4.0202,3.9887,3.9172,4.0219,4.0219,3.9172,3.9782,4.007,4.0087,4.0409,4.0781,4.1221,4.1525,4.2151,4.2929,4.2811,4.3474,4.4601,4.4592,4.4592,4.4606,4.4606,4.6052,4.802,0.0,0.0,2.7859,2.8397,2.8098,2.773,2.7534,2.7124,2.6751,0.0,0.0,0.0,0.0,0.0,0.0,0.0,2.973,3.0751,3.3136,3.2796,3.2467,3.2377,3.2482,3.219,3.1554,3.2238,3.2283,3.1586,3.1072,3.1497,3.2732,3.2144,3.282,3.4585,0.0,0.0,0.0,0.0,0.0,3.4438,3.3739,3.3965,0.0,0.0,3.5011,3.5489,3.5385,3.537,3.5224,3.3938,3.3442,0.0,0.0,0.0,0.0,0.0,3.3321,0.0,0.0,0.0,0.0,0.0,0.0,0.0,3.5619,3.6117,3.6874,3.7844,3.8547,3.9405,4.1009,4.1877,4.2534,4.3192,4.4079,4.4434,4.3656,4.3623,4.3927,4.4621,4.4773,4.479,4.4705,4.4705,4.4671,4.4587,4.4502,4.3809,4.2371,4.0883,4.0043,3.9986,3.9193,3.8525,3.7921,3.9279,3.9332,3.8092,3.9454,4.007,4.0104,4.0781,4.1119,4.1238,4.188,4.2269,4.2472,4.3149,4.3809,4.4434,4.4536,4.4575,4.4646,4.4781,4.5673,4.6885,0.0,2.8113,2.8263,2.7844,2.8562,2.8981,2.8367,2.8232,2.8203,0.0,0.0,0.0,0.0,0.0,0.0,0.0,3.1063,3.1468,3.2508,3.2988,3.2988,3.2422,3.2482,3.2408,3.2307,3.244,3.2435,3.2317,3.2688,3.3365,3.417,3.4055,3.4466,3.5351,3.4662,3.4527,0.0,0.0,0.0,3.3701,3.3558,0.0,3.532,3.532,3.5379,3.54,3.4889,3.4723,3.4535,3.377,3.311,3.2781,0.0,0.0,0.0,0.0,0.0,0.0,0.0,0.0,0.0,0.0,0.0,0.0,3.6384,3.6492,3.7181,3.9235,3.9762,4.0321,4.1789,4.2686,4.3036,4.2608,4.4181,4.5213,4.4451,4.4874,4.5314,4.5466,4.6007,4.6126,4.5534,4.5483,4.5229,4.4621,4.3995,4.325,4.2337,4.0883,3.9792,3.9156,3.843,3.8246,3.869,3.8962,3.9315,3.9679,3.9969,4.007,4.007,4.0223,4.0629,4.1221,4.1356,4.21,4.3217,4.3352,4.3382,4.3483,4.4282,4.4604,4.4756,4.5936,4.654,4.6895,2.8008,2.8368,2.8592,2.8577,2.9131,2.9342,2.8677,2.8574,2.8576,0.0,0.0,0.0,0.0,0.0,0.0,0.0,0.0,0.0,0.0,3.4013,3.386,3.3521,3.2894,3.2536,3.2536,3.2551,3.2675,3.3096,3.3393,3.4085,3.5143,3.4775,3.4785,3.5074,3.4741,3.4555,3.4514,0.0,3.4222,3.453,3.4505,0.0,3.5041,3.5365,3.5504,3.5415,3.4741,3.4083,3.3514,3.3499,3.3275,0.0,0.0,3.3261,3.3006,0.0,3.3276,3.3649,0.0,0.0,0.0,3.5518,0.0,0.0,0.0,3.6904,3.7653,3.9165,3.9827,4.035,4.1067,4.1813,4.2303,4.2286,4.3572,4.457,4.4587,4.5534,4.6244,4.6244,4.6244,4.6109,4.5737,4.5365,4.4993,4.4604,4.3859,4.3098,4.2337,4.0519,3.9331,3.8924,3.8189,3.7978,3.8358,3.9086,3.9489,3.9489,3.9901,4.007,4.0087,4.046,4.0645,4.0676,4.1422,4.2168,4.2878,4.3267,4.3314,4.3331,4.4248,4.4587,4.471,4.5428,4.6605,4.7801,2.8539,2.8801,2.9131,2.9669,2.9864,2.9729,2.9071,2.8966,2.8921,0.0,0.0,0.0,0.0,0.0,0.0,0.0,0.0,0.0,0.0,3.4977,3.4576,3.4431,3.3646,3.3014,3.2602,3.2804,3.3273,3.4079,3.395,3.4643,3.6091,3.5333,3.5021,3.4972,3.4742,3.4555,3.4453,0.0,0.0,3.5145,0.0,3.5195,3.4747,3.532,3.5415,3.5205,3.4396,3.3342,3.2407,3.3276,3.3532,3.3608,3.4014,3.4319,0.0,0.0,0.0,0.0,0.0,0.0,0.0,0.0,0.0,3.5958,0.0,0.0,0.0,3.8978,3.9662,4.007,4.007,4.0696,0.0,4.1796,0.0,0.0,0.0,4.5635,0.0,4.6583,4.6194,4.5872,4.572,4.5026,4.4587,4.4587,4.3732,4.2968,4.254,4.0058,3.8808,3.9139,3.81,3.769,3.8035,3.9226,3.961,3.9139,3.9782,4.007,4.0104,4.0713,4.0644,4.017,4.1371,4.2033,4.2337,4.2946,4.3369,4.3707,4.4333,4.4587,4.4587,4.4621,4.6106,4.7979,2.8718,2.952,3.0313,3.0387,3.0911,3.1091,3.0387,3.0283,3.0088,0.0,0.0,0.0,0.0,0.0,0.0,0.0,0.0,0.0,3.5497,0.0,3.4431,3.382,3.4782,3.4517,3.2617,3.3713,3.4652,3.536,3.536,3.6099,3.7538,3.69,3.6503,3.6401,3.5198,3.4627,3.4445,0.0,3.3574,0.0,3.5026,3.5474,0.0,3.5489,3.5149,3.4415,3.32,3.2243,3.1807,0.0,3.3702,3.4007,0.0,3.5609,3.4934,3.6077,0.0,0.0,0.0,0.0,0.0,0.0,3.6508,0.0,0.0,0.0,3.8978,3.9782,0.0,4.007,4.007,0.0,0.0,0.0,0.0,0.0,4.3639,4.4874,4.5821,4.5821,4.6329,4.6413,4.5771,4.5026,4.4587,4.4587,4.3189,4.2591,4.323,3.9774,3.8423,3.9913,3.7859,3.7365,3.8745,3.8978,3.9368,3.9952,4.007,4.007,4.007,4.0172,4.0172,4.0121,4.0273,4.1068,4.2303,4.2388,4.3217,4.4451,4.4536,4.4587,4.4604,4.4619,4.4783,4.5295,2.9395,3.0258,3.111,3.1087,3.1659,3.1869,3.121,3.1106,3.1001,0.0,0.0,0.0,0.0,0.0,0.0,0.0,0.0,3.4426,0.0,0.0,0.0,3.5407,3.514,3.4591,3.3748,3.4235,3.5087,3.6321,3.6262,3.6599,3.7195,3.6882,3.6092,3.4838,3.4636,3.4523,3.4501,0.0,3.4292,0.0,0.0,0.0,0.0,3.5075,3.4237,3.3246,3.2719,3.2075,3.1629,0.0,3.3587,0.0,0.0,0.0,0.0,0.0,0.0,0.0,0.0,0.0,0.0,0.0,0.0,0.0,3.8052,0.0,3.9139,0.0,0.0,0.0,0.0,0.0,0.0,0.0,4.1796,0.0,0.0,0.0,4.4367,0.0,0.0,0.0,4.5077,0.0,0.0,0.0,4.3705,4.309,4.2042,4.054,3.9559,3.9347,3.8431,3.823,3.8908,3.9368,3.9782,4.007,4.007,4.007,4.007,4.007,4.007,4.0104,4.0544,4.1085,4.1728,4.2591,4.3318,4.3944,4.4401,4.4587,4.4587,4.4615,4.5703,4.7031,3.0599,0.0,0.0,3.206,3.2467,3.2617,3.2138,3.2078,0.0,0.0,0.0,0.0,3.4462,3.471,0.0,0.0,3.4803,3.4774,0.0,0.0,3.4819,3.582,3.5379,0.0,3.4576,3.4721,3.564,3.7397,3.6918,3.6937,3.7378,3.7134,3.6021,3.4342,3.4651,3.4789,3.4741,3.4562,3.4876,3.5504,3.5504,3.5385,3.516,3.4685,3.3758,3.276,3.2581,3.2219,3.1902,3.2831,3.3944,0.0,3.534,0.0,0.0,0.0,0.0,0.0,3.7243,0.0,0.0,0.0,0.0,0.0,0.0,0.0,0.0,0.0,0.0,0.0,0.0,0.0,0.0,0.0,0.0,4.139,0.0,4.1999,0.0,0.0,0.0,0.0,0.0,0.0,0.0,4.3086,4.3381,4.2897,4.1316,4.0788,4.0196,3.9446,3.9054,3.9032,3.9209,3.9782,4.007,4.007,4.007,4.007,4.007,4.007,4.007,4.0104,4.0663,4.1035,4.139,4.278,4.3335,4.3504,4.4282,4.4587,4.4587,4.4587,4.6459,4.8668,3.2405,3.2947,0.0,3.3427,3.344,3.3455,3.344,0.0,0.0,0.0,0.0,0.0,0.0,0.0,0.0,0.0,0.0,3.2396,3.6519,0.0,3.3763,3.3815,3.5577,3.5962,0.0,3.5185,3.6579,3.8821,3.739,3.7446,3.8842,3.8068,3.7302,3.6476,3.584,3.5508,3.5429,3.4756,3.4876,3.5504,3.5504,3.51,3.4502,0.0,3.4072,3.3397,3.2736,0.0,0.0,3.4156,3.5102,0.0,0.0,0.0,0.0,0.0,0.0,0.0,0.0,0.0,0.0,3.763,0.0,0.0,0.0,0.0,4.007,0.0,0.0,0.0,0.0,0.0,0.0,0.0,0.0,0.0,0.0,0.0,0.0,0.0,0.0,0.0,0.0,4.3366,4.301,4.2301,4.15,4.1362,4.2144,4.0065,3.9495,4.0918,3.961,3.9262,4.007,4.007,4.007,4.007,4.007,4.007,4.007,4.007,4.007,4.007,4.0104,4.0697,4.168,4.2683,4.3206,4.3504,4.4282,4.4587,4.4587,4.4587,4.6459,4.888,0.0,0.0,0.0,0.0,0.0,0.0,0.0,3.4711,0.0,0.0,0.0,0.0,0.0,3.5848,3.583,0.0,0.0,3.4775,3.6668,3.5669,0.0,0.0,0.0,3.6959,0.0,0.0,3.7643,3.8908,3.7916,3.747,3.7478,3.716,3.6383,3.5213,3.5455,3.5522,3.5489,3.525,0.0,0.0,0.0,3.537,3.51,0.0,0.0,3.3442,3.3252,3.3198,0.0,3.3787,3.4723,3.5724,3.5694,3.6208,3.6688,3.6204,3.6238,0.0,0.0,0.0,3.6798,3.7094,0.0,0.0,0.0,0.0,0.0,0.0,0.0,0.0,0.0,0.0,0.0,0.0,0.0,0.0,0.0,0.0,0.0,0.0,0.0,0.0,0.0,0.0,0.0,4.2277,4.1524,4.1162,4.1313,4.0739,4.0565,4.1025,4.0617,4.0522,4.0832,4.0324,4.007,4.007,4.007,4.007,4.007,4.007,4.007,4.0121,4.0814,4.1285,4.1656,4.2665,4.3512,4.4215,4.4468,4.4587,4.4587,4.4587,4.5869,4.764,3.4407,0.0,0.0,0.0,0.0,0.0,0.0,0.0,0.0,0.0,3.6738,0.0,3.7361,0.0,3.6847,0.0,3.5808,3.5469,3.6701,3.6108,0.0,3.6699,3.7446,0.0,0.0,0.0,0.0,0.0,3.7916,3.7196,3.6701,3.6353,3.57,3.4861,3.531,3.5504,3.5504,3.5504,3.5504,0.0,0.0,3.5504,0.0,0.0,3.4804,3.4228,0.0,3.4288,3.4355,3.4654,3.5145,3.5645,3.5432,3.5662,3.5887,3.5143,3.5112,3.5197,3.4769,3.549,0.0,3.671,3.7698,0.0,3.9215,0.0,0.0,0.0,0.0,0.0,0.0,0.0,0.0,0.0,0.0,0.0,0.0,4.007,0.0,0.0,4.1967,4.2879,0.0,4.2812,4.2639,4.1824,4.1132,4.0689,0.0,0.0,4.115,4.1009,4.1117,4.1204,4.1204,4.046,4.007,4.007,4.007,4.007,4.0087,4.0477,4.0443,4.0155,4.1336,4.2185,4.2732,4.3382,4.3782,4.4113,4.4451,4.4621,4.4682,4.5185,4.615,4.7361,3.4517,3.5085,0.0,0.0,3.5639,0.0,0.0,0.0,3.6995,0.0,3.8152,3.8035,3.8745,3.762,3.7061,3.7735,3.5299,3.46,3.6653,3.6113,0.0,0.0,3.7491,3.8182,3.8939,0.0,0.0,0.0,0.0,3.6674,3.66,3.5846,3.5504,3.5504,3.5504,3.5504,3.5504,3.5504,3.5504,3.5504,3.5504,3.5504,3.5619,3.6322,3.6257,3.5742,3.5711,3.576,3.5893,3.6636,3.6319,3.5774,3.6548,3.5756,3.4417,3.3777,3.3124,3.2567,3.2523,3.4115,3.5925,3.6621,0.0,0.0,0.0,0.0,4.007,0.0,0.0,0.0,0.0,0.0,0.0,0.0,0.0,0.0,0.0,0.0,4.029,0.0,4.176,4.1855,4.1029,4.1656,4.1807,4.1025,4.0334,3.9939,0.0,0.0,4.1204,4.1066,4.1238,4.1322,4.1322,4.0561,4.0172,4.0121,4.0172,4.0172,4.0172,4.1154,4.1084,4.0286,4.1673,4.3178,4.4607,4.4579,4.402,4.3297,4.4248,4.4676,4.4966,4.636,4.7293,4.7926,3.5145,3.5774,3.6327,0.0,3.6163,3.6237,0.0,0.0,0.0,0.0,3.7608,3.7203,3.7978,3.7223,3.6972,3.7711,3.6115,0.0,0.0,0.0,0.0,3.6774,3.8037,3.8519,3.8148,3.8418,0.0,3.8092,0.0,3.6611,3.66,3.5846,3.5504,3.5504,3.5504,3.5504,3.5504,3.5504,3.5504,3.5504,3.5504,3.5831,3.6337,0.0,3.718,3.7984,3.741,3.7269,3.7275,3.7517,3.7123,3.6441,3.6089,3.5013,3.3731,3.3043,3.268,3.2518,3.2568,3.4058,3.5859,3.6609,3.8022,3.9368,0.0,0.0,0.0,0.0,0.0,0.0,0.0,0.0,0.0,0.0,0.0,0.0,0.0,0.0,0.0,3.9422,0.0,0.0,4.0328,4.0532,4.0562,4.0381,4.0183,4.0304,0.0,0.0,0.0,4.1946,4.2534,4.2861,4.2861,4.21,4.1457,4.0916,4.1457,4.1441,4.0933,4.1405,4.1639,4.1777,4.2142,4.3166,4.4596,4.4601,4.4456,4.4265,4.4485,4.5949,4.7903,4.8311,4.7861,4.7299,3.5804,3.6447,0.0,3.7734,0.0,0.0,3.7793,3.703,0.0,3.8482,3.7468,0.0,3.8133,3.7287,3.6814,3.7305,3.6284,0.0,3.6743,0.0,0.0,3.7263,3.7782,3.7819,3.736,3.7474,0.0,3.6821,0.0,3.6153,3.6117,3.5668,3.5504,3.5504,3.5504,3.5504,3.5504,3.5504,3.5504,3.5504,3.5831,3.6228,0.0,3.7365,3.8149,3.8903,3.883,3.8602,3.832,3.8379,3.7455,3.625,3.5861,3.4547,3.3122,3.2695,3.2588,3.2536,3.26,3.4109,3.5828,3.6596,3.7882,3.9157,3.9935,4.007,4.007,0.0,0.0,0.0,0.0,0.0,0.0,0.0,0.0,0.0,0.0,0.0,0.0,0.0,3.9217,0.0,3.9471,4.0155,4.0554,4.0554,4.0554,0.0,0.0,0.0,0.0,4.2303,4.3352,4.3775,4.342,4.2997,4.2405,4.1694,4.21,4.1999,4.137,4.1994,4.192,4.1389,4.2728,4.377,4.4601,4.4592,4.4581,4.4727,4.6034,4.7522,4.8991,4.9016,4.846,4.7916,3.6492,0.0,0.0,0.0,0.0,0.0,0.0,3.7345,0.0,3.8505,0.0,3.7306,3.8728,3.7735,3.6997,3.7017,0.0,3.6055,3.6738,3.6624,3.6848,3.7559,3.6987,3.6664,3.6659,3.6174,3.5805,0.0,0.0,3.5538,3.5504,3.5504,3.5504,3.5504,3.5504,3.5504,3.5504,3.5504,3.5504,3.5554,3.6306,3.6645,3.6904,3.8342,3.8952,3.9139,3.9849,3.9613,3.8984,3.892,3.7436,3.5691,3.5463,3.4133,3.2581,3.2616,3.2586,3.2641,3.2788,3.4266,3.5877,3.6605,3.7836,3.9005,3.9648,3.9868,3.9935,3.9935,3.9935,3.9732,0.0,0.0,0.0,0.0,0.0,0.0,0.0,0.0,0.0,0.0,0.0,0.0,0.0,0.0,0.0,0.0,0.0,0.0,0.0,0.0,0.0,4.2303,4.3792,4.4299,4.3724,0.0,4.325,4.2591,4.2591,4.2317,4.1822,4.2837,4.2332,4.0862,4.3435,4.4587,4.4587,4.4587,4.4834,4.5452,4.7971,4.9008,4.8982,4.9012,4.9001,4.9001,3.7225,0.0,0.0,0.0,0.0,3.8691,3.7584,3.6971,3.6965,3.7716,3.7705,3.7905,3.8799,3.8677,3.8526,3.8572,3.732,0.0,0.0,0.0,0.0,3.6059,3.5974,3.584,3.5786,3.6247,3.6153,0.0,0.0,3.5499,3.5504,3.5504,3.5504,3.5504,3.5504,3.5504,3.5504,3.5504,0.0,3.5554,3.6307,3.6974,3.769,3.858,3.9332,3.9901,4.0037,3.9611,3.8931,3.8352,3.7067,3.5513,3.4409,3.338,3.26,3.2617,3.2586,3.2841,3.3937,3.4972,3.5877,3.6609,3.7422,3.8125,3.8261,3.8751,3.9191,3.9191,3.9191,3.914,3.9005,0.0,0.0,0.0,0.0,0.0,0.0,0.0,0.0,0.0,0.0,3.8969,0.0,0.0,0.0,0.0,0.0,0.0,0.0,0.0,0.0,0.0,4.3792,0.0,0.0,0.0,4.4299,4.4181,4.4181,4.3741,4.2871,4.3855,4.4142,4.385,4.4401,4.4587,4.4587,4.4587,4.6028,4.8302,4.8813,4.9016,4.9029,4.8984,4.9001,4.9018,3.7913,0.0,0.0,0.0,0.0,0.0,0.0,3.715,0.0,3.7079,3.7122,3.7499,3.8246,3.8308,3.8338,3.8387,3.7753,3.7185,3.6769,3.6075,3.566,3.5659,3.5284,0.0,3.505,3.4987,3.5016,3.4966,0.0,0.0,3.5504,3.5504,3.5504,3.5504,3.5504,3.5504,3.5504,0.0,0.0,3.6136,3.6892,3.7695,3.8469,3.9209,3.9487,3.9465,3.9465,3.8543,3.7275,3.736,3.6149,3.4451,3.3466,3.2628,3.212,3.2492,3.2841,3.3339,3.4333,3.5096,3.5827,3.6624,3.706,3.7432,3.7821,3.8176,3.843,3.843,3.843,3.843,3.843,3.8086,0.0,0.0,0.0,0.0,0.0,0.0,0.0,0.0,0.0,0.0,0.0,0.0,0.0,0.0,0.0,0.0,0.0,0.0,0.0,0.0,0.0,0.0,0.0,0.0,0.0,4.4587,4.4587,4.435,4.3872,4.4367,4.4581,4.4693,4.6243,4.6017,4.4569,4.4613,4.6336,4.9017,4.9008,4.8995,4.9001,4.9001,4.899,4.9029,0.0,3.905,0.0,0.0,3.932,0.0,3.7614,3.7404,3.718,3.6444,3.6492,3.6843,3.7456,3.7871,3.8031,3.8031,3.7936,3.7636,3.6997,3.6506,3.5948,3.5379,3.4841,3.4509,3.4509,3.4121,3.4173,0.0,0.0,0.0,0.0,3.5504,3.5504,3.5504,0.0,0.0,0.0,0.0,3.5936,3.669,3.7449,3.8253,3.899,3.961,3.9465,3.8897,3.8697,3.7271,3.5586,3.6157,3.5045,3.3352,3.2613,3.2064,3.191,3.2586,3.3287,3.3987,3.464,3.5207,3.5774,3.6383,3.6535,3.6688,3.728,3.755,3.7669,3.7669,3.7669,3.7719,3.7872,3.7385,0.0,0.0,0.0,0.0,0.0,0.0,0.0,0.0,0.0,0.0,4.0172,0.0,0.0,0.0,0.0,0.0,0.0,0.0,0.0,0.0,0.0,4.4654,4.4823,0.0,4.5263,0.0,4.4671,4.4587,4.4587,4.4621,4.4609,4.4781,4.7728,4.734,4.4615,4.4624,4.6338,4.9026,4.9006,4.9001,4.9001,4.899,4.9029,4.9089,0.0,0.0,0.0,0.0,0.0,0.0,3.7614,3.7404,3.6956,3.5784,3.6165,3.66,3.6722,3.7939,3.8809,3.8809,3.8167,3.7755,3.7702,3.5792,3.467,3.4627,3.4562,3.4493,3.4493,3.506,3.5355,0.0,0.0,0.0,0.0,0.0,0.0,0.0,0.0,0.0,0.0,3.5504,3.596,3.6662,3.7488,3.8209,3.8924,3.8962,3.8952,3.8825,3.8116,3.6542,3.482,3.4862,3.3948,3.2545,3.1826,3.2007,3.2641,3.3287,3.3987,3.464,3.5316,3.556,3.5639,3.5707,3.5723,3.574,3.5825,3.6383,3.6891,3.6891,3.6891,3.7094,3.7787,3.7858,3.8019,0.0,0.0,0.0,0.0,0.0,3.9834,3.9174,0.0,0.0,0.0,3.9278,0.0,0.0,4.1085,0.0,0.0,0.0,0.0,4.2286,0.0,4.4908,4.5602,4.4993,4.5117,4.5862,4.5032,4.4587,4.4587,4.4603,4.4589,4.4781,4.7749,4.7335,4.4624,4.4587,4.6361,4.8974,4.8995,4.9001,4.9018,4.9001,4.9005,4.9422,0.0,0.0,0.0,0.0,0.0,0.0,0.0,3.7404,3.6941,3.5669,3.6165,3.6446,3.6006,3.7338,3.8076,3.7584,3.7705,3.7601,3.7128,3.6232,3.5568,3.5138,3.5127,3.51,3.51,3.537,3.5504,0.0,0.0,0.0,0.0,0.0,0.0,0.0,0.0,3.5504,3.5504,3.5504,3.6181,3.7334,3.764,3.8504,3.9547,3.9094,3.8642,3.8115,3.7373,3.5763,3.397,3.397,3.3048,3.1966,3.2104,3.2382,3.2803,3.3899,3.4399,3.4736,3.5407,3.5622,3.5622,3.5622,3.5622,3.5622,3.5622,3.5859,3.6079,3.6079,3.6079,3.6315,3.7094,3.7215,3.7553,0.0,0.0,0.0,0.0,0.0,0.0,3.9039,0.0,3.7752,0.0,0.0,0.0,0.0,0.0,0.0,0.0,0.0,0.0,4.2963,0.0,4.3792,4.501,4.4722,4.4812,4.5185,4.4756,4.4931,4.549,4.6703,4.7223,4.7319,4.8507,4.8303,4.725,4.7214,4.7953,4.9008,4.8995,4.9001,4.9018,4.9017,4.8963,4.9433,3.9334,0.0,3.9649,0.0,3.9245,3.8796,3.7838,3.7389,3.6806,3.5908,3.6064,3.6054,3.5554,3.6662,3.7219,3.6661,3.71,3.7219,3.6676,3.6384,3.6054,3.5504,3.5504,0.0,3.5504,3.5504,3.5504,3.5504,3.5504,0.0,0.0,0.0,0.0,0.0,3.5265,3.5504,3.5504,3.5504,3.6261,3.7431,3.7431,3.8209,3.9312,3.8553,3.788,3.7308,3.6538,3.5108,3.3466,3.3493,3.2751,3.189,3.2415,3.2848,3.3355,3.4316,3.4723,3.4988,3.547,3.5622,3.5622,3.5622,3.5622,3.5622,3.5622,3.5622,3.5622,3.5622,3.5808,3.6197,3.6975,3.7267,3.782,3.9125,0.0,0.0,0.0,0.0,0.0,0.0,3.7286,3.6904,3.8229,3.8489,0.0,0.0,0.0,0.0,0.0,0.0,0.0,0.0,0.0,0.0,0.0,4.4807,4.4604,4.4615,4.4604,4.4942,4.5686,4.7943,4.9009,4.8999,4.8999,4.8999,4.8999,4.8999,4.8999,4.9016,4.9018,4.9024,4.8979,4.8963,4.9019,4.9423,3.9424,3.9948,4.0187,3.9529,3.8856,3.8407,3.8377,3.7315,3.6492,3.6477,3.5908,3.5504,3.5504,3.6165,3.6615,3.6615,3.6615,3.6615,3.6615,3.5958,3.5504,0.0,0.0,3.5504,3.5504,3.5504,3.5504,3.5504,0.0,0.0,3.5504,0.0,3.5489,3.5489,3.5504,3.5504,3.5504,3.5504,3.5915,3.6609,3.6609,3.7121,3.7754,3.6953,3.6656,3.6508,3.5782,3.4644,3.3505,3.3498,3.3069,3.2569,3.2623,3.3521,3.4576,3.4592,3.5052,3.5577,3.5622,3.5622,3.5622,3.5622,3.5622,3.5622,3.5622,3.5622,3.5622,3.5622,3.6231,3.6992,3.7753,3.8481,3.9225,3.9952,0.0,0.0,0.0,0.0,0.0,3.7748,3.7923,3.7651,3.6895,3.8785,0.0,0.0,0.0,0.0,0.0,0.0,0.0,4.342,4.4147,0.0,4.6752,4.5314,4.4615,4.4589,4.4615,4.4632,4.4707,4.7683,4.9016,4.9001,4.9001,4.9001,4.9001,4.9001,4.9001,4.9018,4.9001,4.9005,4.8992,4.8992,4.9011,4.941,3.9245,3.9589,3.9664,3.9454,3.923,3.8931,3.8467,3.8048,3.7464,3.6596,3.6297,3.6013,3.5549,3.5733,3.5831,0.0,3.5831,3.5831,0.0,3.5619,3.5504,3.5504,3.5504,3.5504,3.5504,3.5504,3.5504,3.5504,0.0,0.0,0.0,3.5295,3.5235,3.482,3.528,3.5504,3.5504,3.5504,3.5928,3.6599,3.6599,3.7074,3.7686,3.6894,3.6628,3.6511,3.5789,3.4902,3.428,3.4772,3.4851,3.4819,3.531,3.5054,3.4802,3.5816,3.6253,3.6299,3.5757,3.6011,3.6282,3.5757,3.5622,3.5622,3.5622,3.6028,3.6265,3.5723,3.6654,3.7618,3.7872,3.8497,3.9059,3.9251,3.9086,0.0,0.0,0.0,0.0,0.0,3.7061,3.702,0.0,3.8328,0.0,0.0,0.0,0.0,0.0,0.0,0.0,0.0,4.5309,0.0,4.6786,4.6312,4.5923,4.5544,4.4929,4.5669,4.7639,4.8548,4.9012,4.9001,4.9001,4.9001,4.9001,4.9001,4.9001,4.9018,4.9001,5.0265,5.1821,4.9756,5.0291,5.22,3.9215,3.9424,3.9424,3.9424,3.92,3.8975,3.8796,3.8347,3.7734,3.6941,3.6626,3.6327,3.5923,3.5654,0.0,3.5504,3.5504,3.5504,3.5504,3.5504,3.5504,3.5504,3.5504,3.5504,3.5504,0.0,0.0,3.5504,3.5504,3.5295,3.4876,3.5295,3.525,3.488,3.5295,3.5504,3.5504,3.5504,3.5782,3.6165,3.6165,3.6475,3.6894,3.6367,3.6189,3.614,3.5674,3.5262,3.5003,3.5422,3.5824,3.6241,3.7019,3.6571,3.6016,3.6954,3.7204,3.7026,3.6265,3.6417,3.6586,3.5808,3.5842,3.6129,3.6417,3.6857,3.706,3.6586,3.7194,3.7869,3.7869,3.8235,3.8537,3.8515,3.823,3.7889,3.7381,0.0,0.0,0.0,0.0,0.0,0.0,3.87,3.9665,0.0,0.0,0.0,0.0,0.0,0.0,4.5881,4.6015,0.0,4.7614,4.7251,4.7106,4.7089,4.5412,4.6136,4.9001,4.8989,4.9001,4.9001,4.9001,4.9001,4.9001,4.9001,4.8973,4.8996,4.8992,5.0858,5.3246,5.1344,5.1899,5.3532,3.929,3.9424,3.9424,0.0,3.8886,0.0,3.932,3.8347,3.7524,3.7479,3.6971,3.6596,3.6552,3.5968,3.5579,3.5579,0.0,0.0,0.0,3.5504,3.5504,3.5504,3.5504,3.5504,3.5504,3.5504,3.5504,3.5504,3.5504,3.5504,3.5504,3.5504,3.5504,3.5504,3.5504,3.5504,3.5504,3.5504,3.5504,3.5504,3.5504,3.5504,3.5504,3.5504,3.5504,3.5504,3.5504,3.5546,3.5658,3.5745,3.6252,3.7103,3.7864,3.8121,3.8041,3.799,3.799,3.7821,3.706,3.6891,3.6738,3.5977,3.6315,3.7043,3.7736,3.7939,3.7973,3.7858,3.7852,3.7867,3.7748,3.7792,3.7748,3.7764,3.71,3.6615,3.6554,0.0,0.0,0.0,0.0,0.0,0.0,3.9732,3.9918,0.0,0.0,0.0,0.0,0.0,4.5838,4.5947,4.6566,4.7614,4.8984,4.8073,4.8048,4.8974,4.625,4.6334,4.8991,4.8995,4.9001,4.9001,4.9001,4.9018,4.9018,4.9018,4.8996,4.9009,4.9234,5.1006,5.3496,5.35,5.3501,5.3501,0.0,0.0,3.9424,3.9424,3.929,3.923,3.9394,3.9155,3.8751,3.8227,3.8033,3.7749,3.724,3.6626,3.6252,3.6252,3.5804,3.5504,3.5504,3.5504,3.5504,3.5504,3.5504,3.5504,3.5504,3.5504,3.5504,3.5504,3.5504,3.5504,3.5504,3.5504,3.5504,3.5504,3.5504,3.5504,3.5504,3.5504,3.5504,3.5504,3.5504,3.5504,3.5504,3.5504,3.5504,3.5504,3.5504,3.5852,3.6459,3.7085,3.7769,3.8543,3.9344,3.9581,3.9462,3.8903,3.8734,3.8582,3.7838,3.8041,3.8294,3.755,3.7499,3.7686,3.7872,3.8345,3.8402,3.7219,3.7892,3.8318,3.718,3.7439,3.7573,3.6964,3.6722,3.6384,3.5846,3.5469,0.0,0.0,3.779,3.8755,3.975,4.051,4.1339,0.0,0.0,0.0,0.0,4.6462,4.7444,4.8199,4.8361,4.8646,4.9001,4.8731,4.8768,4.8974,4.8267,4.8301,4.8991,4.8995,4.9001,4.9001,4.9001,4.9024,4.9017,4.9017,4.9009,4.9251,5.1524,5.2887,5.3496,5.35,5.3501,5.3501,3.9409,3.9664,3.9768,3.9469,3.9424,3.9424,3.9424,3.9424,3.917,3.8482,3.8392,3.8257,3.7898,3.7285,3.703,3.733,3.6222,3.5504,3.5504,3.5789,3.5953,3.5953,3.5953,3.5953,3.5953,3.5669,3.5504,3.5504,3.5804,3.5804,3.5519,3.5804,3.5789,3.5504,3.5504,3.5504,3.5504,3.5504,3.5504,3.5504,3.5504,3.5504,3.5504,3.5504,3.5504,3.5554,3.5894,3.6523,3.7263,3.8019,3.8816,3.9542,3.9952,4.007,4.0003,3.9597,3.9478,3.9326,3.8599,3.87,3.8903,3.8497,3.8396,3.8481,3.8819,3.8925,3.8737,3.789,3.779,3.7588,3.6817,3.6951,3.6956,3.6226,3.6362,3.6405,3.6037,3.6006,0.0,3.8052,3.8959,3.9755,4.0454,4.123,4.1856,4.2284,0.0,0.0,4.5618,4.7285,4.8303,4.8507,4.8836,4.9001,4.9001,4.9001,4.9012,4.8989,4.8989,4.8989,4.8989,4.9029,4.9001,4.9001,4.9001,4.8979,4.9106,5.0515,5.1044,5.1239,5.2887,5.353,5.3482,5.3534,5.3501,5.3501,3.9828,4.0083,4.0247,3.9798,3.9634,3.9574,3.9574,3.9574,3.9364,3.8766,3.8691,3.8691,3.8691,3.8108,3.7898,3.8347,3.6806,3.5789,3.5789,3.6312,3.6626,3.6626,3.6626,3.6582,3.6492,3.5938,3.5654,3.5654,3.6312,3.6342,3.5804,3.6267,3.6163,3.5659,3.5534,3.5504,3.5504,3.5504,3.5504,3.5504,3.5504,3.5504,3.5504,3.5504,3.5554,3.5733,3.6399,3.7203,3.8035,3.869,3.942,4.007,4.007,4.007,4.007,4.007,4.007,3.9935,3.9326,3.9157,3.9157,3.9157,3.9157,3.9326,3.9935,3.9489,3.8854,3.8745,3.76,3.6554,3.643,3.6413,3.6193,3.5729,3.6028,3.6396,3.6552,0.0,3.7566,3.9666,4.0226,4.0644,4.1312,4.2016,4.2189,4.1519,4.324,4.4691,0.0,4.7619,4.8506,4.8105,4.868,4.9001,4.9001,4.9001,4.9001,4.9001,4.9001,4.9001,4.9001,4.9001,4.9001,4.9001,4.9001,4.8996,4.9241,5.2272,5.3515,5.3513,5.3513,5.3482,5.3501,5.3501,5.3501,5.3501,4.11,4.0711,4.0546,4.0995,4.0621,4.0247,4.0247,4.0247,4.0217,4.0098,4.0098,4.0098,4.0098,3.9499,3.8916,3.8437,3.7614,3.712,3.712,3.721,3.727,3.727,3.727,3.7015,3.6492,3.6387,3.6327,3.6327,3.6956,3.721,3.7105,3.6686,3.6445,3.631,3.5719,3.5504,3.5504,3.5504,3.5504,3.5504,3.5504,3.5504,3.5504,3.5504,3.5894,3.6446,3.6554,3.7526,3.8745,3.8854,3.942,4.007,4.007,4.007,4.007,4.007,4.007,4.0054,3.9935,3.9918,3.9918,3.9918,3.9918,3.9935,4.0054,3.9489,3.8745,3.8092,3.7263,3.6384,3.5782,3.5644,3.5804,3.6267,3.5953,3.5869,3.6436,0.0,3.7933,3.8932,4.0794,4.2252,4.2925,4.2974,4.3218,4.3756,4.3329,4.3735,4.5485,4.6761,4.7872,4.8832,4.8951,4.9001,4.9001,4.9001,4.9001,4.9001,4.9001,4.9001,4.9001,4.9001,4.9001,4.9001,4.9001,4.9017,4.9251,5.2286,5.3508,5.3517,5.3517,5.3484,5.3501,5.3501,5.3501,5.3501,4.1444,4.1414,4.1444,4.1384,4.113,4.0935,4.0935,4.0935,4.0935,4.0935,4.0935,4.0935,4.0935,4.0651,4.0202,3.9529,3.92,3.8871,3.8512,3.8138,3.7943,3.7943,3.7943,3.7644,3.7,3.6985,3.6985,3.6985,3.7629,3.7749,3.7404,3.7479,3.7323,3.6992,3.6678,3.6342,3.6028,3.6009,3.6039,3.6043,3.606,3.603,3.6094,3.6489,3.6597,3.6722,3.7526,3.8286,3.8978,3.9368,3.9782,4.007,4.007,4.007,4.007,4.007,4.007,4.007,4.007,4.007,4.007,4.007,4.007,4.002,3.9542,3.887,3.8076,3.7322,3.6508,3.6001,3.6019,3.6312,3.6626,3.6926,3.7101,0.0,0.0,3.8724,3.959,4.1156,4.1849,4.2499,4.3136,4.3127,4.317,4.3448,4.3941,4.4626,4.5538,4.7201,4.8375,4.9001,4.9001,4.9001,4.9001,4.9001,4.9001,4.9001,4.9001,4.9001,4.9001,4.9001,4.9001,4.9001,4.8979,4.9936,5.1536,5.2949,5.3513,5.3501,5.3501,5.3501,5.3501,5.3501,5.3501,5.3501,4.1938,4.2117,4.2252,4.1893,4.1713,4.1609,4.1609,4.1609,4.1609,4.1609,4.1609,4.1609,4.1609,4.1609,4.1339,4.0681,4.0621,4.0412,3.9903,3.9379,3.8945,3.8646,3.8467,3.8153,3.7644,3.7644,3.7644,3.7644,3.8302,3.8377,3.7883,3.8227,3.8123,3.7629,3.7479,3.715,3.6671,3.6688,3.6718,3.6671,3.6704,3.6745,3.6814,3.7589,3.7654,3.7559,3.8949,3.9528,3.9744,4.0222,4.0341,4.0307,4.0121,4.0206,4.0341,4.0341,4.0222,4.012,4.0121,4.007,4.007,4.007,4.007,3.9901,3.9086,3.8302,3.7621,3.7001,3.6234,3.5923,3.6582,3.709,3.7464,3.7614,0.0,0.0,0.0,4.0097,4.1,4.2839,4.2657,4.2642,4.3197,4.3186,4.3094,4.2968,4.4246,4.5255,4.575,4.74,4.8568,4.9001,4.9001,4.9001,4.9001,4.9001,4.9001,4.9001,4.9001,4.9001,4.9001,4.9001,4.9001,4.9018,4.9001,5.0723,5.3485,5.3525,5.3532,5.3501,5.3501,5.3501,5.3501,5.3501,5.3501,5.3501,4.3195,4.2746,4.2536,4.309,4.2686,4.2374,4.2374,4.2374,4.2374,4.2374,4.2374,4.2374,4.2374,4.2374,4.2028,4.1369,4.1309,4.1294,4.1235,4.119,4.0606,3.9394,3.8736,3.8362,3.8317,3.8317,3.8317,3.8317,3.9005,3.932,3.926,3.8661,3.8362,3.8287,3.7689,3.7389,3.73,3.7339,3.7324,3.7301,3.7308,3.7443,3.7576,3.8357,3.9129,3.9972,4.072,4.1488,4.1963,4.1339,4.1119,4.1001,4.0307,4.0561,4.1119,4.1119,4.0648,4.0088,4.0087,4.007,4.007,4.007,4.007,3.9901,3.9086,3.8302,3.7764,3.7546,3.6919,3.6596,3.7225,3.7375,3.7599,3.8227,0.0,0.0,3.9629,4.0452,4.1195,4.2028,4.2623,4.3213,4.4061,4.3835,4.3665,4.3685,4.3568,4.4242,4.6029,4.635,4.7174,4.8923,4.9001,4.9001,4.9001,4.9001,4.9001,4.9001,4.9001,4.9001,4.9001,4.9001,4.9001,4.9018,4.9001,5.0723,5.3485,5.3525,5.3532,5.3501,5.3501,5.3501,5.3501,5.3501,5.3501,5.3501,4.3329,4.3135,4.3045,4.3284,4.3135,4.297,4.297,4.297,4.297,4.297,4.297,4.297,4.297,4.297,4.2701,4.2058,4.1998,4.1818,4.1414,4.1384,4.098,4.0068,3.9783,3.9454,3.9035,3.9424,3.9439,3.9035,3.929,3.9424,3.9409,3.9155,3.9035,3.902,3.8766,3.8422,3.8018,3.8003,3.8012,3.8067,3.8609,3.8886,3.902,3.9769,4.0341,4.0753,4.042,4.1156,4.2182,4.1376,4.1456,4.183,4.1542,4.1644,4.188,4.188,4.1687,4.1335,4.0817,4.0001,3.9434,3.996,4.0018,3.9862,3.9557,3.8922,3.8153,3.7593,3.7218,3.7255,3.7898,3.8018,3.8421,3.9596,0.0,4.0451,4.1573,4.2044,4.2504,4.3149,4.3011,4.3122,4.3843,4.3282,4.3198,4.4046,4.4319,4.5,4.6128,4.729,4.8286,4.8967,4.8984,4.8996,4.9001,4.9001,4.9001,4.9001,4.9001,4.899,4.8984,4.8984,4.8988,4.8996,4.8971,5.0688,5.3525,5.3515,5.35,5.3501,5.3501,5.3501,5.3501,5.3501,5.3501,5.3501,4.3329,4.3329,4.3329,4.3329,4.3329,4.3329,4.3329,4.3329,4.3329,4.3329,4.3329,4.3329,4.3329,4.3329,4.315,4.2701,4.2671,4.2476,4.2028,4.1803,4.1384,4.0726,4.0711,4.0502,4.0053,4.0277,4.0172,3.9723,3.9514,3.9424,3.9424,3.9424,3.9424,3.9424,3.9424,3.9155,3.8721,3.8716,3.8728,3.8817,3.9631,3.9886,3.9784,4.0863,4.119,4.1069,4.0617,4.1227,4.2102,4.1568,4.1803,4.2248,4.2301,4.2455,4.2588,4.2391,4.2282,4.1977,4.0668,3.9694,3.9211,3.9836,3.9909,3.9718,3.9532,3.9045,3.8427,3.788,3.7719,3.7913,3.8586,3.8706,3.9179,4.0476,4.0943,4.1577,4.2844,4.2993,4.3201,4.3807,4.3133,4.2858,4.3531,4.3029,4.3202,4.4467,4.5028,4.5805,4.6989,4.8314,4.9405,5.0367,5.0388,4.9953,4.9001,4.9007,4.9035,4.9024,4.9024,4.9001,4.9013,4.9974,5.0426,5.0385,5.0423,5.1579,5.3479,5.3483,5.3501,5.3501,5.3501,5.3501,5.3501,5.3501,5.3501,5.3501,4.3344,4.3344,4.3344,4.3344,4.3344,4.3344,4.3344,4.3344,4.3344,4.3329,4.3329,4.3329,4.3329,4.3329,4.3329,4.3329,4.3329,4.3329,4.3329,4.2731,4.2073,4.1429,4.1384,4.1384,4.1384,4.0741,4.0412,4.0397,3.9753,3.9424,3.9424,3.9424,3.9424,3.9424,3.9424,3.9424,3.9424,3.9424,3.9424,3.9508,4.0353,4.0291,3.9765,4.1355,4.1558,4.1007,4.1757,4.1997,4.2029,4.2136,4.2219,4.2204,4.2307,4.2828,4.3255,4.2493,4.2303,4.177,3.9345,3.9222,3.971,3.9785,3.9795,3.9626,3.8821,3.8642,3.858,3.8467,3.8407,3.8616,3.9305,3.9439,3.9681,4.0569,4.1295,4.2022,4.2855,4.2793,4.2958,4.3639,4.294,4.2626,4.3284,4.3344,4.3862,4.5151,4.5309,4.6394,4.8844,4.8984,5.0367,5.3427,5.3511,5.2055,4.9055,4.9017,4.8979,4.9022,4.9039,4.903,4.9105,5.2123,5.3485,5.3485,5.3525,5.3479,5.3479,5.3483,5.3501,5.3501,5.3501,5.3501,5.3501,5.3501,5.3501,5.3501,4.3928,4.4018,4.4167,4.4631,4.4706,4.4556,4.4092,4.4018,4.3853,4.3389,4.3329,4.3329,4.3329,4.3329,4.3329,4.3329,4.3329,4.3329,4.3329,4.315,4.2955,4.2761,4.2312,4.1848,4.1384,4.1639,4.1324,4.0397,4.0666,4.0561,4.0113,4.0576,4.0546,4.0113,4.0113,3.9843,3.9424,3.9424,3.9424,3.9511,4.0375,4.0607,4.0415,4.0945,4.1314,4.1546,4.0551,4.0945,4.1926,4.132,4.1931,4.3063,4.3704,4.3675,4.3289,4.3096,4.2582,4.1819,4.0466,4.0225,4.0277,3.9857,3.9612,3.9589,3.9967,3.9956,3.9832,3.9826,4.0172,4.0753,4.1633,4.1273,4.1331,4.2811,4.2723,4.2698,4.3379,4.3412,4.3448,4.3393,4.3593,4.3808,4.4003,4.5114,4.6126,4.695,4.7151,4.776,4.8955,4.8986,5.0385,5.3378,5.3488,5.3071,5.2196,5.0048,4.8983,4.9002,5.1146,5.214,5.2213,5.3088,5.3462,5.3482,5.3533,5.3483,5.3483,5.3484,5.3501,5.3501,5.3501,5.3501,5.3501,5.3501,5.3501,5.3501,4.4182,4.4317,4.4526,4.5185,4.508,4.4766,4.4377,4.4317,4.4077,4.3419,4.3554,4.3629,4.3359,4.3329,4.3329,4.3329,4.3329,4.3449,4.3703,4.3479,4.3329,4.3329,4.2955,4.2566,4.2162,4.2282,4.1968,4.1175,4.1309,4.1175,4.0786,4.119,4.1175,4.0786,4.0786,4.0561,4.0187,4.0187,4.0053,3.9901,4.0766,4.0729,4.0186,4.0576,4.0792,4.0849,3.9788,4.0071,4.0931,4.0768,4.1783,4.3382,4.458,4.4285,4.3553,4.3553,4.3025,4.2266,4.1626,4.1109,4.0591,4.0071,3.9703,3.9553,4.006,4.0323,4.0397,4.0397,4.092,4.1581,4.2129,4.179,4.1864,4.3301,4.2984,4.2812,4.358,4.3576,4.3456,4.3284,4.3913,4.4317,4.4317,4.5889,4.7247,4.8001,4.8816,4.9759,5.071,4.9655,5.0374,5.3372,5.3496,5.3532,5.3532,5.1663,5.0757,5.082,5.2663,5.3477,5.3532,5.3532,5.3516,5.3501,5.3501,5.3501,5.3501,5.3501,5.3501,5.3501,5.3501,5.3501,5.3501,5.3501,5.3501,5.3501,4.4362,4.4496,4.4706,4.5364,4.4975,4.4571,4.4511,4.4496,4.4257,4.3599,4.4032,4.4182,4.3584,4.3509,4.3509,4.3509,4.3509,4.3733,4.4272,4.3748,4.3419,4.3419,4.3359,4.3359,4.3419,4.2776,4.2417,4.2357,4.1818,4.1519,4.1474,4.1534,4.1519,4.1474,4.1474,4.1429,4.1384,4.1384,4.0995,4.0471,4.1281,4.0741,3.9481,4.037,4.0152,3.9471,3.9589,3.9559,3.9643,4.0539,4.1716,4.3165,4.4739,4.4625,4.3874,4.3811,4.3313,4.2794,4.2574,4.1666,4.0701,4.0543,4.0038,3.9574,3.9514,4.0053,4.0576,4.0576,4.11,4.164,4.1701,4.1625,4.1836,4.2736,4.2622,4.2741,4.3587,4.3516,4.3404,4.3344,4.4018,4.4466,4.4554,4.6249,4.7791,4.8813,5.0426,5.2007,5.3434,5.0924,5.0642,5.3394,5.3466,5.3501,5.3501,5.3501,5.3483,5.3496,5.3496,5.3532,5.3501,5.3501,5.3501,5.3501,5.3501,5.3501,5.3501,5.3501,5.3501,5.3501,5.3501,5.3501,5.3501,5.3501,5.3501,5.3501,4.5648,4.5888,4.6097,4.6756,4.6756,4.6486,4.5978,4.5888,4.5648,4.496,4.499,4.5035,4.4885,4.487,4.487,4.487,4.487,4.4706,4.4332,4.4182,4.4107,4.4107,4.3599,4.3584,4.4092,4.3464,4.2865,4.2357,4.2731,4.2656,4.2162,4.2671,4.2641,4.2147,4.2147,4.1863,4.1384,4.1384,4.0995,4.0397,4.0603,4.0139,3.9469,4.0182,4.0366,4.0233,4.0771,4.0592,4.0351,4.1208,4.169,4.2254,4.3802,4.3701,4.2856,4.2381,4.1955,4.1635,4.1051,4.1053,4.1264,4.1205,4.1055,4.0816,4.0307,4.11,4.1938,4.1938,4.2462,4.313,4.3944,4.3425,4.3193,4.4229,4.3608,4.3199,4.3341,4.3753,4.3913,4.3389,4.484,4.5981,4.6342,4.903,5.1251,5.2336,5.2775,5.3111,5.3477,5.2875,5.2791,5.3462,5.3466,5.3501,5.3501,5.3501,5.3484,5.35,5.35,5.3534,5.3501,5.3501,5.3501,5.3501,5.3501,5.3501,5.3501,5.3501,5.3501,5.3501,5.3501,5.3501,5.3501,5.3501,5.3501,5.3501,4.6127,4.6322,4.6531,4.7189,4.7055,4.6711,4.6367,4.6322,4.6082,4.5394,4.5589,4.5663,4.5334,4.5289,4.5424,4.5753,4.5484,4.5155,4.4811,4.4781,4.4646,4.4332,4.3988,4.3958,4.4302,4.3658,4.3165,4.2821,4.3165,4.3165,4.2836,4.3165,4.315,4.2821,4.2821,4.2626,4.2312,4.2312,4.1938,4.1324,4.137,4.0935,4.0424,4.077,4.0651,4.0516,4.1129,4.119,4.104,4.2268,4.2432,4.2279,4.3856,4.3712,4.2954,4.2604,4.2168,4.1833,4.1803,4.1594,4.1459,4.1773,4.1848,4.1669,4.101,4.1639,4.2357,4.2357,4.288,4.3488,4.4004,4.363,4.3472,4.4004,4.3886,4.3808,4.3808,4.4362,4.4616,4.399,4.5777,4.7546,4.8907,5.0627,5.2196,5.3416,5.3501,5.3517,5.3482,5.3517,5.3517,5.3482,5.3517,5.3501,5.3501,5.3501,5.3501,5.3501,5.3501,5.3501,5.3501,5.3501,5.3501,5.3501,5.3501,5.3501,5.3501,5.3501,5.3501,5.3501,5.3501,5.3501,5.3501,5.3501,5.3501,5.3501,4.6352,4.6486,4.6666,4.7204,4.686,4.6486,4.6486,4.6486,4.6292,4.5708,4.6142,4.6277,4.5708,4.5633,4.5873,4.6441,4.5963,4.5589,4.5484,4.5454,4.5214,4.4691,4.4489,4.4489,4.4661,4.3853,4.3404,4.3329,4.3329,4.3329,4.3329,4.3329,4.3329,4.3329,4.3329,4.3329,4.3329,4.3329,4.2955,4.2434,4.2359,4.2001,4.1385,4.1535,4.125,4.0845,4.1534,4.1639,4.1761,4.3072,4.3061,4.2617,4.4083,4.3989,4.3314,4.321,4.2865,4.2626,4.3045,4.2462,4.1848,4.2387,4.2521,4.2387,4.1833,4.2132,4.2521,4.2521,4.2955,4.3329,4.3329,4.3329,4.3329,4.3329,4.3883,4.4287,4.4146,4.493,4.5266,4.487,4.667,4.8794,5.1017,5.1559,5.2271,5.3416,5.3501,5.3501,5.3501,5.3501,5.3501,5.3501,5.3501,5.3501,5.3501,5.3501,5.3501,5.3501,5.3501,5.3501,5.3501,5.3501,5.3501,5.3501,5.3501,5.3501,5.3501,5.3501,5.3501,5.3501,5.3501,5.3501,5.3501,5.3501,5.3501,5.3501,4.704,4.7174,4.7189,4.7294,4.7234,4.7174,4.7174,4.7174,4.713,4.704,4.7115,4.713,4.704,4.704,4.707,4.716,4.7085,4.6785,4.6217,4.6181,4.6137,4.6052,4.5466,4.5451,4.6052,4.4764,4.3912,4.3329,4.3329,4.3329,4.3329,4.3329,4.3329,4.3329,4.3329,4.3329,4.3329,4.3329,4.2955,4.2434,4.2359,4.1998,4.1486,4.2059,4.2204,4.2238,4.2847,4.2701,4.2314,4.2558,4.2496,4.2554,4.3277,4.3409,4.3225,4.2656,4.2821,4.309,4.2626,4.2776,4.309,4.318,4.321,4.318,4.309,4.3135,4.321,4.321,4.3269,4.3329,4.3329,4.3329,4.3329,4.3329,4.3883,4.4116,4.353,4.5019,4.5948,4.5319,4.7028,4.8925,5.0399,5.2157,5.3298,5.3501,5.3501,5.3501,5.3501,5.3501,5.3501,5.3501,5.3501,5.3501,5.3501,5.3501,5.3501,5.3501,5.3501,5.3501,5.3501,5.3501,5.3501,5.3501,5.3501,5.3501,5.3501,5.3501,5.3501,5.3501,5.3501,5.3501,5.3501,5.3501,5.3501,5.3501,4.7249,4.7309,4.7309,4.7309,4.7309,4.7309,4.7309,4.7309,4.7309,4.7309,4.7309,4.7309,4.7309,4.7309,4.7309,4.7309,4.7309,4.7025,4.6367,4.6621,4.6666,4.6337,4.6028,4.6013,4.6322,4.5327,4.4503,4.3883,4.3509,4.3329,4.3329,4.3329,4.3329,4.3329,4.3329,4.3329,4.3329,4.3329,4.3165,4.2895,4.2865,4.2761,4.2455,4.2791,4.2716,4.2443,4.2716,4.2836,4.2895,4.2895,4.2895,4.2955,4.324,4.3329,4.3284,4.2985,4.3105,4.3269,4.2985,4.312,4.3419,4.3793,4.3599,4.3434,4.3793,4.3883,4.3778,4.3404,4.3329,4.3329,4.3329,4.3629,4.3883,4.3883,4.4766,4.5296,4.5034,4.6072,4.7045,4.7457,4.9725,5.1441,5.2038,5.2925,5.3501,5.3501,5.3501,5.3501,5.3501,5.3501,5.3501,5.3501,5.3501,5.3501,5.3501,5.3501,5.3501,5.3501,5.3501,5.3501,5.3501,5.3501,5.3501,5.3501,5.3501,5.3501,5.3501,5.3501,5.3501,5.3501,5.3501,5.3501,5.3501,5.3501,5.3501,5.3501]},{"header":{"parameterUnit":"m.s-1","parameterCategory":1,"la1":30.6,"la2":28.766,"lo1":-90.7593,"lo2":-88.6598,"dy":0.0162,"dx":0.0183,"nx":116,"ny":114,"refTime":"2023-10-07T06:00:00:Z","depth":0,"parameterNumber":3,"parameterNumberName":"V-component_of_WINDS"},"data":[0.0,0.0,0.0,0.0,0.0,0.0,0.0,0.0,0.0,0.0,0.0,0.0,0.0,0.0,0.0,0.0,0.0,0.0,0.0,0.0,0.0,0.0,0.0,0.0,0.0,0.0,0.0,0.0,0.0,0.0,0.0,0.0,0.0,0.0,0.0,0.0,0.0,0.0,0.0,0.0,0.0,0.0,0.0,0.0,0.0,0.0,0.0,0.0,0.0,0.0,0.0,0.0,0.0,0.0,0.0,0.0,0.0,0.0,0.0,0.0,0.0,0.0,0.0,0.0,0.0,0.0,0.0,0.0,0.0,0.0,0.0,0.0,0.0,0.0,0.0,0.0,0.0,0.0,0.0,0.0,0.0,0.0,0.0,0.0,0.0,0.0,0.0,0.0,0.0,0.0,0.0,0.0,0.0,0.0,0.0,0.0,0.0,0.0,0.0,0.0,0.0,0.0,0.0,0.0,0.0,0.0,0.0,0.0,0.0,0.0,0.0,0.0,0.0,0.0,0.0,0.0,0.0,0.0,0.0,0.0,0.0,0.0,0.0,0.0,0.0,0.0,0.0,0.0,0.0,0.0,0.0,0.0,0.0,0.0,0.0,0.0,0.0,0.0,0.0,0.0,0.0,0.0,0.0,0.0,0.0,0.0,0.0,0.0,0.0,0.0,0.0,0.0,0.0,0.0,0.0,0.0,0.0,0.0,0.0,0.0,0.0,0.0,0.0,0.0,0.0,0.0,0.0,0.0,0.0,0.0,0.0,0.0,0.0,0.0,0.0,0.0,0.0,0.0,0.0,0.0,0.0,0.0,0.0,0.0,0.0,0.0,0.0,0.0,0.0,0.0,0.0,0.0,0.0,0.0,0.0,0.0,0.0,0.0,0.0,0.0,0.0,0.0,0.0,0.0,0.0,0.0,0.0,0.0,0.0,0.0,0.0,0.0,0.0,0.0,0.0,0.0,0.0,0.0,0.0,0.0,0.0,0.0,0.0,0.0,0.0,0.0,0.0,0.0,0.0,0.0,0.0,0.0,0.0,0.0,0.0,0.0,0.0,0.0,0.0,0.0,0.0,0.0,0.0,0.0,0.0,0.0,0.0,0.0,0.0,0.0,0.0,0.0,0.0,0.0,0.0,0.0,0.0,0.0,0.0,0.0,0.0,0.0,0.0,0.0,0.0,0.0,0.0,0.0,0.0,0.0,0.0,0.0,0.0,0.0,0.0,0.0,0.0,0.0,0.0,0.0,0.0,0.0,0.0,0.0,0.0,0.0,0.0,0.0,0.0,0.0,0.0,0.0,0.0,0.0,0.0,0.0,0.0,0.0,0.0,0.0,0.0,0.0,0.0,0.0,0.0,0.0,0.0,0.0,0.0,0.0,0.0,0.0,0.0,0.0,0.0,0.0,0.0,0.0,0.0,0.0,0.0,0.0,0.0,0.0,0.0,0.0,0.0,0.0,0.0,0.0,0.0,0.0,0.0,0.0,0.0,0.0,0.0,0.0,0.0,0.0,0.0,0.0,0.0,0.0,0.0,0.0,0.0,0.0,0.0,0.0,0.0,0.0,0.0,0.0,0.0,0.0,0.0,0.0,0.0,0.0,0.0,0.0,0.0,0.0,0.0,0.0,0.0,0.0,0.0,0.0,0.0,0.0,0.0,0.0,0.0,0.0,0.0,0.0,0.0,0.0,0.0,0.0,0.0,0.0,0.0,0.0,0.0,0.0,0.0,0.0,0.0,0.0,0.0,0.0,0.0,0.0,0.0,0.0,0.0,0.0,0.0,0.0,0.0,0.0,0.0,0.0,0.0,0.0,0.0,0.0,0.0,0.0,0.0,0.0,0.0,0.0,0.0,0.0,0.0,0.0,0.0,0.0,0.0,0.0,0.0,0.0,0.0,0.0,0.0,0.0,0.0,0.0,0.0,0.0,0.0,0.0,0.0,0.0,0.0,0.0,0.0,0.0,0.0,0.0,0.0,0.0,0.0,0.0,0.0,0.0,0.0,0.0,0.0,0.0,0.0,0.0,0.0,0.0,0.0,0.0,0.0,0.0,0.0,0.0,0.0,0.0,0.0,0.0,0.0,0.0,0.0,0.0,0.0,0.0,0.0,0.0,0.0,0.0,0.0,0.0,0.0,0.0,0.0,0.0,0.0,0.0,0.0,0.0,0.0,0.0,0.0,0.0,0.0,0.0,0.0,0.0,0.0,0.0,0.0,0.0,0.0,0.0,0.0,0.0,0.0,0.0,0.0,0.0,0.0,0.0,0.0,0.0,0.0,0.0,0.0,0.0,0.0,0.0,0.0,0.0,0.0,0.0,0.0,0.0,0.0,0.0,0.0,0.0,0.0,0.0,0.0,0.0,0.0,0.0,0.0,0.0,0.0,0.0,0.0,0.0,0.0,0.0,0.0,0.0,0.0,0.0,0.0,0.0,0.0,0.0,0.0,0.0,0.0,0.0,0.0,0.0,0.0,0.0,0.0,0.0,0.0,0.0,0.0,0.0,0.0,0.0,0.0,0.0,0.0,0.0,0.0,0.0,0.0,0.0,0.0,0.0,0.0,0.0,0.0,0.0,0.0,0.0,0.0,0.0,0.0,0.0,0.0,0.0,0.0,0.0,0.0,0.0,0.0,0.0,0.0,0.0,0.0,0.0,0.0,0.0,0.0,0.0,0.0,0.0,0.0,0.0,0.0,0.0,0.0,0.0,0.0,0.0,0.0,0.0,0.0,0.0,0.0,0.0,0.0,0.0,0.0,0.0,0.0,0.0,0.0,0.0,0.0,0.0,0.0,0.0,0.0,0.0,0.0,0.0,0.0,0.0,0.0,0.0,0.0,0.0,0.0,0.0,0.0,0.0,0.0,0.0,0.0,0.0,0.0,0.0,0.0,0.0,0.0,0.0,0.0,0.0,0.0,0.0,0.0,0.0,0.0,0.0,0.0,0.0,0.0,0.0,0.0,0.0,0.0,0.0,0.0,0.0,0.0,0.0,0.0,0.0,0.0,0.0,0.0,0.0,0.0,0.0,0.0,0.0,0.0,0.0,0.0,0.0,0.0,0.0,0.0,0.0,0.0,0.0,0.0,0.0,0.0,0.0,0.0,0.0,0.0,0.0,0.0,0.0,0.0,0.0,0.0,0.0,0.0,0.0,0.0,0.0,0.0,0.0,0.0,0.0,0.0,0.0,0.0,0.0,0.0,0.0,0.0,0.0,0.0,0.0,0.0,0.0,0.0,0.0,0.0,0.0,0.0,0.0,0.0,0.0,0.0,0.0,0.0,0.0,0.0,0.0,0.0,0.0,0.0,0.0,0.0,0.0,0.0,0.0,0.0,0.0,0.0,0.0,0.0,0.0,0.0,0.0,0.0,0.0,0.0,0.0,0.0,0.0,0.0,0.0,0.0,0.0,0.0,0.0,0.0,0.0,0.0,0.0,0.0,0.0,0.0,0.0,0.0,0.0,0.0,0.0,0.0,0.0,0.0,0.0,0.0,0.0,0.0,0.0,0.0,0.0,0.0,0.0,0.0,0.0,0.0,0.0,0.0,0.0,0.0,0.0,0.0,0.0,0.0,0.0,0.0,0.0,0.0,0.0,0.0,0.0,0.0,0.0,0.0,0.0,0.0,0.0,0.0,0.0,0.0,0.0,0.0,0.0,0.0,0.0,0.0,0.0,0.0,0.0,0.0,0.0,0.0,0.0,0.0,0.0,0.0,0.0,0.0,0.0,0.0,0.0,0.0,0.0,0.0,0.0,0.0,0.0,0.0,0.0,0.0,0.0,0.0,0.0,0.0,0.0,0.0,0.0,0.0,0.0,0.0,0.0,0.0,0.0,0.0,0.0,0.0,0.0,0.0,0.0,0.0,0.0,0.0,0.0,0.0,0.0,0.0,0.0,0.0,0.0,0.0,0.0,0.0,0.0,0.0,0.0,0.0,0.0,0.0,0.0,0.0,0.0,0.0,0.0,0.0,0.0,0.0,0.0,0.0,0.0,0.0,0.0,0.0,0.0,0.0,0.0,0.0,0.0,0.0,0.0,0.0,0.0,0.0,0.0,0.0,0.0,0.0,0.0,0.0,0.0,0.0,0.0,0.0,0.0,0.0,0.0,0.0,0.0,0.0,0.0,0.0,0.0,0.0,0.0,0.0,0.0,0.0,0.0,0.0,0.0,0.0,0.0,0.0,0.0,0.0,0.0,0.0,0.0,0.0,0.0,0.0,0.0,0.0,0.0,0.0,0.0,0.0,0.0,0.0,0.0,0.0,0.0,0.0,0.0,0.0,0.0,0.0,0.0,0.0,0.0,0.0,0.0,0.0,0.0,0.0,0.0,0.0,0.0,0.0,0.0,0.0,0.0,0.0,0.0,0.0,0.0,0.0,0.0,0.0,0.0,0.0,0.0,0.0,0.0,0.0,0.0,0.0,0.0,0.0,0.0,0.0,0.0,0.0,0.0,0.0,0.0,0.0,0.0,0.0,0.0,0.0,0.0,0.0,0.0,0.0,0.0,0.0,0.0,0.0,0.0,0.0,0.0,0.0,0.0,0.0,0.0,0.0,0.0,0.0,0.0,0.0,0.0,0.0,0.0,0.0,0.0,0.0,0.0,0.0,0.0,0.0,0.0,0.0,0.0,0.0,0.0,0.0,0.0,0.0,0.0,0.0,0.0,0.0,0.0,0.0,0.0,0.0,0.0,0.0,0.0,0.0,0.0,0.0,0.0,0.0,0.0,0.0,0.0,0.0,0.0,0.0,0.0,0.0,0.0,0.0,0.0,0.0,0.0,0.0,0.0,0.0,0.0,0.0,0.0,0.0,0.0,0.0,0.0,0.0,0.0,0.0,0.0,0.0,0.0,0.0,0.0,0.0,0.0,0.0,0.0,0.0,0.0,0.0,0.0,0.0,0.0,0.0,0.0,0.0,0.0,0.0,0.0,0.0,0.0,0.0,0.0,0.0,0.0,0.0,0.0,0.0,0.0,0.0,0.0,0.0,0.0,0.0,0.0,0.0,0.0,0.0,0.0,0.0,0.0,0.0,0.0,0.0,0.0,0.0,0.0,0.0,0.0,0.0,0.0,0.0,0.0,0.0,0.0,0.0,0.0,0.0,0.0,0.0,0.0,0.0,0.0,0.0,0.0,0.0,0.0,0.0,0.0,0.0,0.0,0.0,0.0,0.0,0.0,0.0,0.0,0.0,0.0,0.0,0.0,0.0,0.0,0.0,0.0,0.0,0.0,0.0,0.0,0.0,0.0,0.0,0.0,0.0,0.0,0.0,0.0,0.0,0.0,0.0,0.0,0.0,0.0,0.0,0.0,0.0,0.0,0.0,0.0,0.0,0.0,0.0,0.0,0.0,0.0,0.0,0.0,0.0,0.0,0.0,0.0,0.0,0.0,0.0,0.0,0.0,0.0,0.0,0.0,0.0,0.0,0.0,0.0,0.0,0.0,0.0,0.0,0.0,0.0,0.0,0.0,0.0,0.0,0.0,0.0,0.0,0.0,0.0,0.0,0.0,0.0,0.0,0.0,0.0,0.0,0.0,0.0,0.0,0.0,0.0,0.0,0.0,0.0,0.0,0.0,0.0,0.0,0.0,0.0,0.0,0.0,0.0,0.0,0.0,0.0,0.0,0.0,0.0,0.0,0.0,0.0,0.0,0.0,0.0,0.0,0.0,0.0,0.0,0.0,0.0,0.0,0.0,0.0,0.0,0.0,0.0,0.0,0.0,0.0,0.0,0.0,0.0,0.0,0.0,0.0,0.0,0.0,0.0,0.0,0.0,0.0,0.0,0.0,0.0,0.0,0.0,0.0,0.0,0.0,0.0,0.0,0.0,0.0,0.0,0.0,0.0,0.0,0.0,0.0,0.0,0.0,0.0,0.0,0.0,0.0,0.0,0.0,0.0,0.0,0.0,0.0,0.0,0.0,0.0,0.0,0.0,0.0,0.0,0.0,0.0,0.0,0.0,0.0,0.0,0.0,0.0,0.0,0.0,0.0,0.0,0.0,0.0,0.0,0.0,0.0,0.0,0.0,0.0,0.0,0.0,0.0,0.0,0.0,0.0,0.0,0.0,0.0,0.0,0.0,0.0,0.0,0.0,0.0,0.0,0.0,0.0,0.0,0.8056,0.0,0.0,0.0,0.0,0.0,0.0,0.0,0.0,0.0,0.0,0.0,0.0,0.0,0.0,0.0,0.0,0.0,0.0,0.0,0.0,0.0,0.0,0.0,0.0,0.0,0.0,0.0,0.0,0.0,0.0,0.0,0.0,0.0,0.0,0.0,0.0,0.0,0.0,1.6419,1.6491,1.7046,1.7988,1.5177,1.3481,1.2916,0.0,0.0,0.0,0.0,0.0,0.0,0.0,0.0,0.0,0.0,0.0,0.0,0.0,0.0,0.0,0.0,0.0,0.0,0.0,0.0,0.0,0.0,0.0,0.0,0.0,0.0,0.0,0.0,0.0,0.0,0.0,0.0,0.0,0.0,0.0,0.0,0.0,0.0,0.0,0.0,0.0,0.0,0.0,0.0,0.0,0.0,0.0,0.0,0.0,0.0,0.0,0.0,0.0,0.0,0.0,0.0,0.0,0.0,0.0,0.0,0.0,0.0,0.0,0.0,0.0,0.0,0.0,0.0,0.0,0.0,0.0,0.7415,0.0,0.0,0.0,0.0,0.0,0.0,0.0,0.0,0.0,0.0,0.0,0.0,0.0,0.0,0.0,0.0,0.0,0.0,0.0,0.0,0.0,0.0,0.0,0.0,1.5879,1.6107,1.5074,1.4381,0.0,0.0,0.0,0.0,0.0,0.0,0.0,1.6363,1.6849,1.819,1.8257,1.8995,2.0281,1.6079,1.3816,1.3311,1.3321,0.0,0.0,0.0,0.0,0.0,0.0,0.0,0.0,0.0,0.0,0.0,0.0,0.0,0.0,0.0,0.0,0.0,0.0,0.0,0.0,0.0,0.0,0.0,0.0,0.0,0.0,0.0,0.0,0.0,0.0,0.0,0.0,0.0,0.0,0.0,0.0,0.0,0.0,0.0,0.0,0.0,0.0,0.0,0.0,0.0,0.0,0.0,0.0,0.0,0.0,0.0,0.0,0.0,0.0,0.0,0.0,0.0,0.0,0.0,0.0,0.0,0.0,0.0,1.4358,1.377,1.3947,1.2544,1.1288,0.9963,0.9228,0.8111,0.6909,0.0,0.0,0.0,0.0,0.0,0.0,0.0,0.0,0.0,0.0,0.0,0.0,0.0,0.0,0.0,0.0,0.0,0.0,0.0,0.0,0.0,0.0,1.7001,1.7418,1.8507,1.7496,1.6786,0.0,0.0,0.0,0.0,0.0,0.0,1.7758,1.9075,1.9989,2.0543,2.3777,2.4564,2.3005,2.0221,1.7495,1.506,1.505,1.5074,1.4887,0.0,0.0,0.0,0.0,0.0,0.0,0.0,0.0,0.0,0.0,0.0,0.0,0.0,0.0,0.0,0.0,0.0,0.0,0.0,0.0,0.0,0.0,0.0,0.0,0.0,0.0,0.0,0.0,0.0,0.0,0.0,0.0,0.0,0.0,0.0,0.0,0.0,0.0,0.0,0.0,0.0,1.1391,1.3386,0.0,0.0,0.0,0.0,0.0,0.0,0.0,0.0,0.0,0.0,0.0,0.0,0.0,1.7252,1.8123,1.7861,1.7742,1.7898,1.6394,1.5617,1.5389,1.4302,1.2584,1.052,1.1426,0.0,0.6936,0.7104,0.0,0.0,0.0,0.0,0.0,0.0,0.0,0.0,0.0,0.0,0.0,0.0,0.0,0.0,0.0,0.0,0.0,0.0,0.0,0.0,0.0,1.9272,1.9622,1.987,1.8838,1.8272,1.8406,1.7555,0.0,0.0,0.0,1.8408,1.9641,2.1054,2.2577,2.4199,2.5896,2.6225,2.5287,2.3014,2.0471,1.7783,1.6161,1.4408,1.2597,1.1211,0.0,0.0,0.0,0.0,0.0,0.0,0.0,0.0,0.0,0.0,0.0,0.0,0.0,0.0,0.0,0.0,0.0,0.0,0.0,0.0,0.0,0.0,0.0,0.0,0.0,0.0,0.0,0.0,0.0,0.0,0.0,0.0,0.0,0.0,0.0,0.0,0.0,0.0,0.0,1.4147,1.4592,1.4177,1.2744,1.1754,0.0,0.0,0.0,0.0,0.0,0.0,0.0,0.0,0.0,2.0002,1.991,2.0239,2.0974,1.9807,1.8971,1.853,1.6555,1.5569,1.5264,1.3464,1.2075,1.1084,1.1187,1.0302,0.8936,0.9582,0.9432,0.9087,0.0,0.0,0.0,0.0,1.3766,1.3319,0.0,0.0,0.0,0.0,0.0,0.0,0.0,0.0,0.0,0.0,0.0,0.0,2.0877,2.1437,2.1729,2.1605,2.0586,1.9973,1.9978,1.9377,1.9294,2.0041,2.0009,2.0519,2.1729,2.3063,2.4757,2.6822,2.6741,2.6433,2.5863,2.4329,2.1816,1.8578,1.6379,1.4091,1.1745,1.0929,1.0594,1.0494,0.0,0.0,0.0,0.0,0.0,0.0,0.0,0.0,0.0,0.0,0.0,0.0,0.0,0.0,0.0,0.0,0.0,0.0,0.0,0.0,0.0,0.0,0.0,0.0,0.0,0.0,0.0,0.0,0.0,0.0,0.0,0.0,0.0,0.0,0.0,0.0,0.0,1.6278,1.6533,1.4346,1.4309,1.3843,0.0,0.0,0.0,0.0,0.0,0.0,2.0353,2.096,2.1767,2.3062,2.2548,2.248,2.2819,2.1186,1.9887,1.8943,1.6566,1.5395,1.5306,1.2929,1.1744,1.1508,1.1293,1.1048,1.0872,1.1409,1.1212,1.0678,1.2606,1.2911,1.2588,1.4896,1.512,1.4365,0.0,0.0,0.0,0.0,0.0,0.0,0.0,0.0,0.0,0.0,0.0,2.1801,2.284,2.297,2.3415,2.4496,2.3329,2.2418,2.2145,2.1529,2.0929,2.0497,2.1969,2.3129,2.3816,2.5474,2.6584,2.7165,2.6842,2.5696,2.3754,2.3659,2.0738,1.5631,1.5484,1.5341,1.4932,1.1881,1.0574,1.0497,0.9259,0.0,0.0,0.0,0.0,0.0,0.0,0.0,0.0,0.0,0.0,0.0,0.0,0.0,0.0,0.0,0.0,0.0,0.0,0.0,0.0,0.0,0.0,0.0,0.0,0.0,0.0,0.0,0.0,0.0,0.0,0.0,0.0,0.0,0.0,0.0,0.0,0.0,0.0,1.4213,1.4813,0.0,0.0,0.0,0.0,2.126,2.3675,2.4865,2.4532,2.4866,2.5159,2.525,2.358,2.2673,2.273,2.1271,2.0313,1.9781,1.7059,1.5922,1.6084,1.3794,1.2285,1.1582,1.2864,1.282,1.175,1.1091,1.0825,1.0977,1.3124,1.3941,1.4151,1.6078,1.6908,1.6871,0.0,0.0,0.0,0.0,0.0,0.0,0.0,0.0,2.105,2.1715,2.2615,2.3414,2.4067,2.5063,2.5547,2.5209,2.4548,2.3979,2.3745,2.2844,2.2802,2.3917,2.4804,2.5712,2.6661,2.6884,2.7116,2.7394,2.6736,2.6146,2.554,2.2571,2.01,1.8203,1.8248,1.7173,1.5188,1.1973,1.0594,1.0539,1.012,0.9942,0.0,0.0,0.0,0.0,0.0,0.0,0.0,0.0,0.0,0.0,0.0,0.0,0.0,0.0,0.0,0.0,0.0,0.0,0.0,0.0,0.0,0.0,0.0,0.0,0.0,0.0,0.0,0.0,0.0,0.0,0.0,0.0,0.0,0.0,0.0,0.0,0.0,1.827,1.6581,0.0,2.1078,2.3119,2.4308,2.4559,2.6203,2.7026,2.6713,2.7102,2.7143,2.6658,2.499,2.3886,2.3348,2.1543,2.0068,1.902,1.6852,1.5707,1.5462,1.3453,1.2287,1.2088,1.2771,1.2824,1.2523,1.3043,1.3378,1.3605,1.4209,1.48,1.5481,1.686,1.6979,1.6505,0.0,0.0,0.0,0.0,0.0,0.0,0.0,0.0,2.1984,2.273,2.3607,2.4421,2.5077,2.6333,2.673,2.5771,2.5328,2.4908,2.4344,2.3637,2.3973,2.5686,2.6602,2.7388,2.8014,2.7201,2.6766,2.6791,2.6217,2.5847,2.5571,2.0881,1.8695,1.8656,1.7855,1.6688,1.5215,1.1968,1.059,1.0608,1.0595,1.0597,1.0639,0.0,0.0,0.0,0.0,0.0,0.0,0.0,0.0,0.0,0.0,0.0,0.0,0.0,0.0,0.0,0.0,0.0,0.0,0.0,0.0,0.0,0.0,0.0,0.0,0.0,0.0,0.0,0.0,0.0,0.0,0.0,0.0,0.0,0.0,0.0,2.1456,1.9912,1.9606,2.1446,2.6362,2.7722,2.8092,2.7597,2.8236,2.86,2.8593,2.8211,2.7824,2.7455,2.5658,2.4323,2.3446,2.1365,1.9766,1.8562,1.6589,1.5458,1.5163,1.3164,1.2305,1.2318,1.2619,1.2968,1.3362,1.4172,1.4996,1.5723,1.569,1.6016,1.669,1.785,1.7766,1.7125,0.0,0.0,0.0,0.0,0.0,0.0,0.0,2.2107,2.2513,2.3566,2.4064,2.474,2.5817,2.6664,2.6879,2.6184,2.5789,2.5068,2.396,2.3908,2.4392,2.5472,2.7233,2.8022,2.7621,2.6492,2.5698,2.5346,2.5179,2.4532,2.3375,1.8695,1.6487,1.639,1.3981,1.3799,1.5099,1.2036,1.0777,1.0746,1.0627,1.0629,1.0938,0.0,0.0,0.0,0.0,0.0,0.0,0.0,0.0,0.0,0.0,0.0,0.0,0.0,0.0,0.0,0.0,0.0,0.0,0.0,0.0,0.0,0.0,0.0,0.0,0.0,0.0,0.0,0.0,0.0,0.0,0.0,0.0,0.0,2.3643,2.5127,2.4424,1.8808,2.3754,2.7596,2.7611,2.9146,3.0148,3.011,2.9667,2.9593,3.0107,2.8097,2.7116,2.7604,2.5351,2.3723,2.2823,2.0839,1.943,1.8543,1.6334,1.5234,1.5163,1.3237,1.2305,1.2318,1.2681,1.3327,1.4224,1.4224,1.5331,1.7054,1.7521,1.7674,1.7823,1.8874,1.9248,1.9035,0.0,0.0,0.0,0.0,0.0,0.0,0.0,2.2539,2.3064,2.3505,2.4421,2.4922,2.4641,2.5325,2.5552,2.4944,2.4542,2.4173,2.3925,2.3806,2.4384,2.5799,2.7228,2.7395,2.6134,2.5454,2.466,2.3803,2.3033,2.2029,2.0724,1.7862,1.6504,1.6387,1.3968,1.3173,1.3632,1.3942,1.4057,1.3861,1.1561,1.0606,1.096,0.0,0.0,0.0,0.0,0.0,0.0,0.0,0.0,0.0,0.0,0.0,0.0,0.0,0.0,0.0,0.0,0.0,0.0,0.0,0.0,0.0,0.0,0.0,0.0,0.0,0.0,0.0,0.0,0.0,0.0,0.0,0.0,2.9302,2.6013,2.6087,2.5434,2.2409,2.5328,2.7623,2.7625,2.8582,2.8975,2.8209,2.8511,2.8266,2.7326,2.7037,2.6504,2.5639,2.4089,2.281,2.1812,1.99,1.8686,1.8184,1.6839,1.586,1.5163,1.3882,1.2952,1.2305,1.3117,1.3587,1.3953,1.5375,1.6228,1.6747,1.6856,1.7343,1.7932,1.822,1.8359,1.827,0.0,0.0,0.0,0.0,0.0,0.0,0.0,2.2729,2.3082,2.333,2.4177,2.4444,2.3816,2.4427,2.4527,2.3512,2.3527,2.3467,2.3162,2.3982,2.4855,2.5743,2.6511,2.6368,2.5227,2.4013,2.3127,2.2568,2.14,1.9991,1.833,1.7072,1.6498,1.6458,1.5005,1.3861,1.295,1.3959,1.476,1.5249,1.3377,1.1803,1.0945,1.4154,1.6148,1.718,1.6517,1.647,1.6609,1.619,0.0,0.0,0.0,0.0,0.0,0.0,0.0,0.0,0.0,0.0,0.0,0.0,0.0,0.0,0.0,0.0,0.0,0.0,0.0,0.0,0.0,0.0,0.0,0.0,2.822,2.8381,2.5482,2.5047,2.428,2.2243,2.461,2.6466,2.6515,2.7354,2.7749,2.7453,2.7187,2.69,2.6476,2.6018,2.5703,2.5511,2.3963,2.2617,2.152,1.9927,1.8844,1.8271,1.7153,1.6079,1.5163,1.4593,1.381,0.0,1.3882,1.4522,1.5013,1.614,1.6853,0.0,0.0,0.0,0.0,0.0,1.8008,1.8008,0.0,0.0,0.0,0.0,0.0,0.0,0.0,2.2695,2.2797,2.3028,2.345,2.3487,2.2925,2.351,2.3398,2.2018,2.2609,2.2835,2.2349,2.4101,2.5244,2.5359,2.53,2.4978,2.4444,2.248,2.1481,2.147,2.0272,1.8598,1.6507,1.6501,1.6486,1.6522,1.6502,1.5337,1.3312,1.3036,1.4063,1.5877,1.5887,1.4072,1.1705,1.4378,1.7231,1.9601,1.8225,1.7999,1.8233,1.7277,0.0,0.0,0.0,0.0,0.0,0.0,0.0,0.0,0.0,0.0,0.0,0.0,0.0,0.0,0.0,0.0,0.0,0.0,0.0,0.0,0.0,0.0,0.0,0.0,2.8993,2.6205,2.3641,2.3344,2.2606,2.0472,2.286,2.4745,2.4933,2.5767,2.6522,2.7169,2.5925,2.5595,2.6698,0.0,0.0,0.0,0.0,2.2717,2.1614,2.0429,1.9442,1.863,1.7446,1.6395,1.5443,1.5443,1.4848,1.3954,1.495,1.586,1.6636,1.6706,1.7285,1.8008,1.8008,1.8008,1.8008,1.8008,1.8008,1.8008,0.0,0.0,0.0,0.0,0.0,0.0,0.0,2.2695,2.26,2.2344,2.2398,2.2041,2.0956,2.1017,2.0982,2.0686,2.1134,2.2035,2.344,2.3354,2.3624,2.4496,2.3951,2.3165,2.2149,2.1737,2.1024,2.0113,1.9827,1.8598,1.6507,1.6501,1.6494,1.6498,1.6485,1.623,1.5672,1.3751,1.5246,1.8931,1.8952,1.7879,1.6161,1.5478,1.7141,1.9667,1.8622,1.8303,1.8305,1.7699,1.6721,1.5781,1.5737,1.4243,0.0,0.0,0.0,0.0,0.0,0.0,0.0,0.0,0.0,0.0,0.0,0.0,0.0,0.0,0.0,0.0,0.0,0.0,0.0,3.0863,3.0984,2.9124,2.5044,2.4992,2.4693,2.2834,2.3283,2.3932,2.4447,2.4743,2.5094,2.5531,2.489,2.47,2.5205,2.4457,2.4027,2.3929,2.2842,2.1829,2.0794,1.989,1.9295,1.916,0.0,0.0,1.6848,1.6848,1.61,1.495,1.593,1.6419,1.6636,1.7432,1.7862,1.8008,1.8008,1.8008,1.8008,1.8008,1.8008,1.8008,0.0,0.0,0.0,0.0,0.0,0.0,0.0,2.184,2.1782,2.1592,2.1562,2.1148,2.0078,2.0162,2.0093,1.9636,2.0483,2.163,2.3169,2.3202,2.3358,2.3687,2.3109,2.2378,2.1521,2.0931,2.0294,1.969,1.9328,1.88,1.8066,1.7016,1.6524,1.6479,1.6492,1.6522,1.6357,1.3928,1.4249,1.6562,1.8858,1.8912,1.7592,1.7545,1.8481,1.9724,1.9294,1.909,1.8984,1.8228,1.7981,1.7664,1.6157,1.5014,1.4176,0.0,0.0,0.0,0.0,0.0,0.0,0.0,0.0,0.0,0.0,0.0,0.0,0.0,0.0,2.7943,2.931,0.0,2.9,2.8987,2.97,2.9044,2.5595,2.5216,2.4657,2.2853,2.3115,2.3506,2.3865,2.3878,2.4222,2.5071,2.4481,2.4249,2.4464,2.4658,2.4045,2.2631,2.2388,2.1729,2.0638,1.9929,1.96,1.96,1.9394,1.8724,1.756,1.808,1.7478,1.6243,1.7447,1.7661,1.7373,1.8016,1.8457,1.8652,1.8652,1.8389,1.8008,1.8008,1.8008,1.8008,0.0,0.0,0.0,0.0,0.0,0.0,0.0,2.0991,2.0959,2.0862,2.0781,2.0434,1.9707,1.9849,1.9814,1.9214,2.032,2.1519,2.2639,2.3176,2.328,2.2996,2.2524,2.1892,2.1193,2.021,1.97,1.953,1.8912,1.888,1.935,1.7424,1.6479,1.6479,1.6517,1.6522,1.6361,1.4437,1.3598,1.3945,1.765,1.8697,1.813,1.9125,1.9596,1.9803,1.9809,1.9798,1.9683,1.8919,1.915,1.9383,1.6983,1.6258,1.6231,1.6266,1.795,0.0,0.0,0.0,0.0,0.0,0.0,0.0,0.0,3.3287,3.9218,3.6108,3.3795,3.2251,3.2287,3.2258,3.1234,2.7985,2.8085,2.7922,2.6334,2.5831,2.4872,2.276,2.2974,2.3314,2.3558,2.316,2.3573,2.5071,2.4593,2.4355,2.466,2.5149,2.4509,2.2377,2.2536,2.2096,2.0751,2.0256,2.0039,2.0039,1.9697,1.9113,1.8341,1.911,1.8724,1.7687,1.8841,1.8896,1.8281,1.8623,1.8965,1.9287,1.9287,1.8867,1.8252,1.8164,1.8135,1.8115,0.0,0.0,0.0,0.0,0.0,0.0,0.0,0.0,2.0862,2.0449,2.0008,1.9743,1.9696,1.9303,1.9346,2.0058,2.0822,2.1757,2.2978,2.2661,2.245,2.2471,2.2041,2.1212,1.9933,1.9912,1.96,1.9006,1.8744,1.849,1.8262,1.7059,1.6485,1.6504,1.6505,1.6478,1.6476,1.6218,1.6103,1.6115,1.6666,1.7932,1.9495,1.8709,1.8958,1.9787,1.9825,1.9798,1.9798,1.9683,1.9726,1.9748,1.94,1.9329,1.9316,1.9294,1.9548,2.0234,2.2254,2.4736,2.7365,2.9972,3.1162,3.2131,0.0,3.727,3.9237,3.6134,3.5267,3.5078,3.5034,3.5032,3.4151,3.1372,2.858,2.7216,2.8416,2.8593,2.7495,2.4838,2.3689,2.3381,2.4065,2.2662,2.2708,2.5209,2.5291,2.5532,2.6201,2.5799,2.5107,2.4015,2.3615,2.2682,2.1134,2.0762,2.0498,2.0498,2.0439,2.0215,1.9684,1.9769,1.9535,1.9064,1.9268,1.9238,1.915,1.9189,1.9248,1.9287,1.9287,1.9228,1.9092,1.8711,1.8494,1.8516,0.0,0.0,0.0,0.0,0.0,0.0,0.0,0.0,0.0,1.9965,1.9507,1.9214,1.9244,1.9043,1.9435,2.0767,2.1131,2.1993,2.3693,2.3235,2.297,2.3097,2.2565,2.1829,2.0872,2.0517,2.022,1.9947,1.9196,1.8585,1.8074,1.6975,1.7173,1.8338,1.707,1.7216,1.8405,1.8405,1.7661,1.661,1.7918,1.899,1.969,1.8597,1.8067,1.7956,1.8617,1.9282,0.0,1.9809,1.9798,1.9826,1.9801,1.9811,1.9805,1.981,2.0877,2.2594,2.522,2.776,2.9974,3.1029,3.3871,3.668,3.7942,3.9182,3.9263,3.615,3.5477,3.5488,3.5495,3.4222,3.2786,3.1675,3.0322,2.8959,2.7728,2.8628,2.8808,2.6922,2.6892,2.6595,2.5602,2.4259,2.4164,2.5908,2.5443,2.5664,2.7101,2.6104,2.5245,2.4668,2.3864,2.2783,2.1611,2.1426,2.1338,2.1338,2.1338,2.1103,2.0684,2.0684,2.0586,2.04,2.0146,2.0322,2.0781,2.0527,2.0566,2.0801,2.0801,2.0644,2.0303,1.9365,1.9014,1.8994,0.0,0.0,0.0,0.0,0.0,0.0,0.0,0.0,0.0,0.0,1.9006,1.8727,1.8893,1.9217,1.9886,2.1017,2.1642,2.2554,2.3998,2.3998,2.3982,2.4133,2.354,2.289,2.2197,2.1398,2.0845,2.0678,1.9714,1.8823,1.8106,1.7352,1.7983,1.9746,1.8142,1.8289,1.9784,1.9784,1.8896,1.7497,1.8796,1.9296,1.9208,1.8326,1.7709,1.7494,1.8338,1.8643,1.8596,1.8806,1.8454,1.802,1.8671,1.8908,1.9021,1.9634,2.2145,2.5145,2.7066,2.9419,3.1259,3.1278,3.5699,3.9875,3.9027,3.8829,3.8191,3.5938,3.5477,3.5472,3.5463,3.3914,3.2238,3.1169,3.0498,2.9487,2.7687,2.8831,2.9464,2.8682,2.9327,2.9168,2.754,2.6691,2.6389,2.6934,2.6441,2.6734,2.8109,2.6641,2.5401,2.4837,2.3961,2.3063,2.206,2.1943,2.1885,2.1885,2.1885,2.1719,2.1416,2.1416,2.1416,2.1396,2.1074,2.1299,2.1865,2.1543,2.1602,2.1885,2.1885,2.1689,2.1299,2.0352,1.9775,1.9443,0.0,0.0,0.0,0.0,0.0,0.0,0.0,0.0,0.0,0.0,0.0,0.0,0.0,1.9958,2.0654,2.0707,2.2428,2.3578,2.3638,2.4807,2.5525,2.5555,2.4863,2.4143,2.3464,2.2219,2.1259,2.0607,2.0054,1.9216,1.8211,1.8154,1.8725,1.9798,1.9728,1.9718,1.9817,1.9817,1.9749,1.9609,1.8486,1.8036,1.8001,1.7483,1.8329,1.9691,1.9766,1.7934,1.562,1.6376,1.5063,1.3501,1.5874,1.6617,1.7038,1.9154,2.3435,2.7488,2.7557,2.9495,3.1476,3.151,3.5808,3.9305,3.6341,3.5642,3.5615,3.5508,3.5474,3.5501,3.5518,3.5395,3.4154,3.0465,2.8081,2.7377,2.9396,2.9762,2.9818,2.9755,2.9748,2.9786,0.0,2.9689,2.9198,2.8109,2.9074,2.9637,2.9749,2.7685,2.5768,2.433,2.4193,2.3618,2.249,2.209,2.1885,2.1885,2.1885,2.1875,2.1865,2.1865,2.1865,2.1865,2.1855,2.1865,2.1885,2.1875,2.1875,2.1885,2.1885,2.1875,2.1865,2.1826,2.0996,1.9834,0.0,0.0,0.0,0.0,0.0,0.0,0.0,0.0,0.0,0.0,0.0,0.0,0.0,0.0,0.0,0.0,2.2622,2.3535,2.4852,2.536,2.5734,2.6061,2.5819,2.5303,2.4498,2.37,2.3178,2.2926,2.1778,2.0948,2.037,1.9629,2.0252,2.1996,2.1996,2.1984,2.1817,1.9602,1.8594,1.8566,1.8131,1.7996,1.8044,1.8266,1.8983,1.978,0.0,1.9141,1.8362,1.8614,1.8135,1.734,1.6699,1.6501,1.7626,2.3325,2.6209,2.7615,2.7587,2.9516,3.1482,3.1505,3.2959,3.4577,3.5308,3.5518,3.5477,3.5477,3.5512,3.4727,3.2208,3.1732,3.1294,3.0019,2.9167,2.895,2.9702,2.9821,2.9829,2.9786,2.9795,0.0,0.0,0.0,0.0,2.929,2.9591,2.918,2.7675,2.6875,2.5937,2.467,2.3859,2.3256,2.293,2.2783,2.2715,2.2715,2.2432,2.2305,2.2305,2.2305,2.2305,2.2314,2.2598,2.2715,2.2715,2.2715,2.2715,2.2715,2.2715,2.2549,2.2305,2.2305,2.1846,2.1201,0.0,0.0,0.0,0.0,0.0,0.0,0.0,0.0,0.0,0.0,0.0,0.0,0.0,0.0,0.0,0.0,0.0,2.3343,2.4801,2.5107,2.564,2.658,2.5938,2.5618,2.5684,2.4603,2.4069,2.415,2.3255,2.2559,2.2063,2.1335,2.2145,2.431,2.4291,2.4329,2.4193,2.195,2.0216,1.9059,2.046,2.0186,1.8885,1.8671,1.8826,0.0,1.9186,1.9427,1.9789,1.9815,1.9774,1.9564,1.8138,1.8282,2.0173,2.5912,2.7605,2.7809,2.8749,3.0208,3.149,3.1504,3.1477,3.1868,3.3156,3.3464,3.3465,3.3465,3.3494,3.2453,2.9223,2.9244,2.9779,2.9812,2.9796,2.9814,2.9756,2.9783,2.9905,3.0338,3.0012,2.9816,0.0,0.0,0.0,2.9893,2.978,2.8762,2.6345,2.5946,2.5441,2.483,2.3917,2.3369,2.3369,2.3213,2.3135,2.3135,2.2861,2.2734,2.2734,2.2734,2.2734,2.2754,2.3018,2.3135,2.3135,2.3135,2.3135,2.3135,2.3135,2.2969,2.2734,2.2734,2.2568,2.2295,0.0,0.0,0.0,0.0,0.0,0.0,0.0,0.0,0.0,0.0,0.0,0.0,0.0,0.0,0.0,0.0,0.0,0.0,2.3602,2.4235,2.5301,2.7065,2.5392,2.5203,2.6814,2.5077,2.4179,2.4347,2.4328,2.3941,2.3301,2.3384,2.4594,2.6672,2.6314,2.6193,2.6238,2.6274,2.4061,2.1011,2.4637,2.383,2.0448,1.8791,1.8065,1.8025,1.8176,1.9033,1.9977,1.9858,1.9874,1.9991,2.0012,2.1655,2.4109,2.6808,2.7679,2.832,3.082,3.152,3.1489,3.1499,3.1377,3.0979,3.005,2.9827,2.9771,2.9771,2.9822,2.9185,2.7089,2.8387,2.9866,2.9942,2.9895,2.9764,2.9776,2.9905,3.0325,3.1217,3.0526,2.9977,2.9992,3.1976,0.0,3.0,0.0,2.8448,2.5879,2.4903,2.4546,2.4896,2.4167,2.3789,2.3789,2.3359,2.3135,2.3135,2.3135,2.3135,2.3135,2.3135,2.3135,2.3135,2.3135,2.3135,2.3135,2.3135,2.3135,2.3135,2.3135,2.3135,2.3135,2.3135,2.3135,2.3027,0.0,0.0,0.0,0.0,0.0,0.0,0.0,0.0,0.0,0.0,0.0,0.0,0.0,0.0,0.0,0.0,0.0,0.0,2.4116,2.4818,2.5474,2.6222,2.625,2.6373,2.662,2.6097,2.5875,2.5907,2.5889,2.5786,2.5684,2.7351,2.8413,2.8746,2.4177,2.2118,2.2155,2.2809,2.2519,2.1523,2.0529,2.0308,2.0545,2.0108,1.9112,1.8312,2.0915,2.2017,2.1996,2.0367,2.1038,2.2617,2.2616,2.3098,2.4099,2.6807,2.8979,3.0671,3.1319,3.1474,3.1482,3.1475,2.9646,2.81,2.945,2.9818,2.9808,2.9808,2.9782,2.963,2.9023,2.9384,3.0347,3.1983,3.0848,2.9821,2.9818,3.1245,3.173,3.0348,3.1392,3.2239,3.2237,3.4216,0.0,0.0,2.8121,2.6474,2.5756,2.5067,2.4742,2.451,2.4065,2.3789,2.3789,2.3359,2.3135,2.3135,2.3135,2.3135,2.3135,2.3135,2.3135,2.3135,2.3135,2.3135,2.3135,2.3135,2.3135,2.3135,2.3135,2.3135,2.3135,2.3135,2.3135,2.3105,0.0,0.0,0.0,0.0,0.0,0.0,0.0,0.0,0.0,0.0,0.0,0.0,0.0,0.0,0.0,0.0,0.0,0.0,0.0,2.405,2.4636,2.5102,2.5525,2.5942,2.6469,2.6008,2.5995,2.6469,2.6527,2.6493,2.6518,2.5961,2.5751,2.5574,2.2166,2.0611,2.0619,2.1138,2.1318,0.0,0.0,1.9763,2.0627,2.0636,2.0012,1.9595,2.3251,2.6303,2.818,2.572,2.5869,2.7055,2.7056,2.6153,2.5486,2.7487,2.9711,3.1355,3.0893,3.0072,2.9538,3.0541,2.9302,2.829,2.9529,2.977,2.9792,2.9792,2.9795,2.9808,2.9831,3.1353,3.2494,3.1757,3.2268,3.2062,3.0073,3.1722,3.2616,3.1429,3.2352,3.3445,3.4472,3.5135,3.4429,0.0,2.8833,2.6599,2.6139,2.5803,2.5444,2.5,2.458,2.417,2.3799,2.3359,2.3135,2.3135,2.3135,2.3135,2.3135,2.3135,2.3135,2.3135,0.0,2.3135,2.3135,2.3135,2.3135,2.3135,2.3135,2.3135,2.3135,2.3135,2.3135,2.3135,0.0,0.0,0.0,0.0,0.0,0.0,0.0,0.0,0.0,0.0,0.0,0.0,0.0,0.0,0.0,0.0,0.0,0.0,0.0,0.0,2.3529,2.4248,2.4332,2.5049,2.647,2.5542,2.5269,2.5727,2.5524,2.5518,2.5623,2.2359,2.0631,2.0275,2.0381,2.0391,2.0407,2.0524,2.0517,2.0517,2.0564,2.0605,2.0597,0.0,2.0938,2.1859,2.5767,3.053,3.4652,3.2675,3.1799,3.1485,3.1336,2.9504,2.7549,2.8363,2.9869,3.1081,3.0065,2.8389,2.7372,2.928,2.983,2.9805,2.9819,2.9821,2.9792,2.9792,2.9792,2.9792,2.9792,3.318,3.4792,3.124,3.3909,3.502,3.1255,3.2043,3.317,3.3456,3.3558,3.4287,3.6041,3.5161,3.4274,3.3684,3.0648,2.8244,2.6993,2.6854,2.6478,2.5664,2.5273,2.4687,2.3887,2.3496,2.3281,2.3223,2.3223,2.3193,2.3135,2.3135,2.3135,2.3135,0.0,0.0,2.3135,2.3135,2.3135,2.3135,2.3135,2.3135,2.3135,2.3135,2.3135,2.3135,0.0,0.0,0.0,0.0,0.0,0.0,0.0,0.0,0.0,0.0,2.082,2.1186,0.0,0.0,0.0,0.0,0.0,0.0,0.0,0.0,0.0,2.4693,2.5036,2.5617,2.6502,2.633,2.473,2.1614,2.0184,2.0201,2.1663,2.1836,2.0679,1.8442,1.9203,1.9438,1.9226,2.0212,2.0276,1.9925,2.0391,2.0576,2.0617,2.0587,0.0,0.0,2.9386,3.1307,3.2436,3.4213,3.3336,3.1329,3.0408,2.9718,2.9142,2.84,2.9134,3.0073,2.9824,2.9507,2.9315,2.9715,2.9808,2.977,2.9768,2.9831,2.9792,2.9792,2.9792,2.9792,2.9792,3.188,3.4001,3.5051,3.5874,3.6082,3.5347,3.3987,3.3816,3.5647,3.5801,3.5711,3.5519,3.5849,0.0,0.0,3.2309,3.07,2.8692,2.8296,2.7242,2.53,2.5107,2.4824,2.4316,2.4228,2.4023,2.3682,2.3682,2.3486,2.3135,2.3135,2.3135,2.3135,2.3135,0.0,2.3135,2.3135,2.3135,2.3135,2.3135,2.3135,2.3135,2.3135,2.3135,2.3135,0.0,0.0,0.0,0.0,0.0,0.0,0.0,2.2007,2.188,2.1689,2.1565,2.1805,2.268,2.2485,2.2695,0.0,0.0,0.0,0.0,0.0,0.0,0.0,2.5215,2.5188,2.3477,2.2533,2.1179,1.9243,0.0,1.8431,1.9253,2.0073,1.9867,1.8705,1.9277,1.938,1.9175,1.9677,2.0002,2.0202,2.0505,2.0571,2.0607,0.0,0.0,0.0,3.094,3.1475,3.1675,3.2956,3.3518,3.3135,3.0787,3.0577,3.1103,3.0207,2.9113,2.8296,2.952,2.977,2.9831,2.9821,2.9833,2.9792,2.9792,2.9792,2.9792,2.9792,2.9792,2.9792,2.9792,3.067,3.1707,3.281,3.493,3.6413,3.6367,3.5493,3.5211,3.629,3.6019,3.5812,3.5912,3.5301,3.4591,3.3981,3.2906,3.1416,2.9442,2.8078,2.6741,2.5439,2.5195,2.4971,2.4756,2.4531,2.4316,2.4111,2.3896,2.3799,2.3789,2.334,2.3262,2.3467,2.3242,0.0,2.3135,2.3135,2.3135,2.3135,2.3135,2.3135,2.3135,2.3135,2.3135,2.3135,0.0,0.0,0.0,0.0,0.0,0.0,0.0,2.1579,2.1755,2.2597,2.2791,2.3034,2.3516,2.3331,2.3578,0.0,0.0,0.0,0.0,0.0,0.0,0.0,0.0,0.0,0.0,0.0,0.0,1.8553,1.8212,0.0,0.0,0.0,0.0,0.0,1.9337,1.9206,1.9014,1.9014,1.9403,0.0,0.0,2.1115,0.0,0.0,0.0,0.0,0.0,3.0758,3.1142,3.1143,3.2544,3.379,3.1079,3.0989,3.187,3.1211,2.9189,2.7605,2.9319,2.977,2.9804,2.9808,2.9795,2.9795,2.9795,2.9827,2.9792,2.9792,2.9792,2.9792,2.9792,2.9782,2.9797,2.9767,3.3089,3.5846,3.6363,3.6806,3.6975,3.6482,3.6001,3.5986,3.6354,3.4734,0.0,3.435,3.2855,0.0,2.9621,2.7573,2.6182,2.5752,2.54,2.5215,2.5215,2.4873,2.4658,2.4551,2.4219,2.4189,2.4394,2.3721,2.3545,2.3769,2.3428,0.0,0.0,2.3135,2.3135,2.3135,2.3135,2.3135,2.3135,2.3135,2.3135,2.3135,0.0,0.0,0.0,0.0,0.0,0.0,0.0,2.1498,2.167,2.3777,2.4359,2.476,2.5144,2.3924,2.3578,0.0,0.0,0.0,0.0,0.0,0.0,0.0,0.0,0.0,0.0,0.0,0.0,2.0375,1.8788,0.0,0.0,0.0,0.0,0.0,0.0,1.8135,1.8125,1.8125,0.0,0.0,0.0,0.0,0.0,0.0,0.0,0.0,0.0,2.8252,2.9997,2.9926,3.0095,3.0276,2.9923,2.9935,2.9896,2.9158,2.925,2.9542,2.9732,2.9764,2.9774,2.9803,2.9813,2.9813,2.9813,2.9794,2.9792,2.9792,2.9792,2.9792,2.9792,2.9766,2.98,2.9785,3.1833,3.411,3.6144,3.8158,3.8681,3.6666,3.695,3.7076,3.6465,3.5114,3.4326,3.4385,3.1949,0.0,2.9158,2.7402,2.6182,2.5752,2.5693,2.5674,2.5674,2.5635,2.541,2.501,2.4971,2.4766,2.4414,2.4336,2.4111,2.3789,2.375,0.0,0.0,2.3135,2.3135,2.3135,2.3135,2.3135,2.3135,2.3135,2.3135,2.3135,0.0,0.0,0.0,0.0,0.0,0.0,2.1255,2.13,2.1819,2.3305,2.3665,2.4341,2.5925,2.4303,2.3855,2.5645,0.0,0.0,0.0,0.0,0.0,0.0,0.0,0.0,0.0,0.0,1.8867,2.0596,1.9885,0.0,0.0,0.0,0.0,0.0,0.0,1.8008,1.7998,1.7976,0.0,0.0,0.0,0.0,0.0,0.0,0.0,0.0,0.0,0.0,2.9797,2.9802,2.9834,2.9821,2.9821,2.9795,2.9727,2.9423,3.0528,3.1762,3.177,3.0809,2.9656,2.9069,2.9317,2.9818,2.9798,2.9775,2.9792,2.9792,2.9792,2.9792,2.9792,2.9827,2.9829,2.9792,3.1687,3.3403,3.4312,3.5763,3.6363,3.5449,3.5428,3.5357,3.481,0.0,3.1859,3.0856,2.9713,0.0,2.8226,2.7288,2.6562,2.6143,2.5879,2.5742,2.5742,2.5742,2.5644,2.5469,2.5195,2.5117,2.5195,2.4658,2.4473,2.4541,2.4277,0.0,0.0,2.3525,2.3379,2.3135,2.3135,2.3135,2.3135,2.3135,2.3135,2.3135,0.0,0.0,0.0,0.0,0.0,2.0003,2.0693,2.1189,2.1863,2.2944,2.3381,2.4362,2.6276,2.5056,2.4762,2.6377,2.6534,0.0,0.0,0.0,0.0,0.0,0.0,0.0,0.0,0.0,1.9393,2.0585,2.0088,1.9806,0.0,0.0,1.8848,1.8256,0.0,0.0,0.0,0.0,0.0,0.0,0.0,0.0,0.0,0.0,0.0,0.0,0.0,0.0,0.0,0.0,0.0,2.8946,2.9591,2.9356,2.8791,2.8803,3.086,3.2918,3.1905,3.056,2.9048,2.7865,2.8287,2.9168,2.9671,2.954,2.9365,2.9702,2.9792,2.9792,2.9792,2.9792,2.9774,2.9801,3.1686,3.3116,3.3119,3.406,3.4685,3.4711,3.4896,3.481,3.4032,3.2441,3.0569,2.8417,0.0,0.0,2.7861,2.7441,2.6953,2.6406,2.5967,2.5742,2.5742,2.5742,2.5742,2.5732,2.542,2.543,2.5713,2.5088,2.4902,2.5049,2.4746,0.0,0.0,2.3789,2.3535,2.3135,2.3135,2.3135,2.3135,2.3135,2.3135,2.3135,0.0,0.0,0.0,0.0,0.0,0.0,2.0618,2.1184,2.1893,2.2948,2.4064,2.5234,2.6339,2.6452,2.644,2.6533,2.6521,0.0,0.0,0.0,0.0,0.0,0.0,0.0,0.0,0.0,2.0543,2.0626,1.8864,1.8873,2.0615,2.0575,1.9965,1.8952,0.0,0.0,0.0,0.0,0.0,0.0,0.0,0.0,2.6533,0.0,0.0,0.0,0.0,0.0,0.0,0.0,0.0,0.0,0.0,2.8336,2.6501,2.6503,2.9612,3.2376,2.9196,2.8304,2.7914,2.6149,2.6475,2.7581,2.942,2.894,2.8426,2.9534,2.9792,2.9792,2.9792,2.9792,2.9836,2.9829,3.1663,3.311,3.3083,3.4061,3.4663,3.4675,3.6181,3.6472,3.4673,3.3186,3.1133,2.8495,0.0,0.0,2.8281,2.7891,2.7275,2.6416,2.5967,2.5742,2.5742,2.5742,2.5742,2.5742,2.5732,2.5732,2.5742,2.5723,2.5488,0.0,0.0,0.0,0.0,2.3789,2.3535,2.3135,2.3135,2.3135,2.3135,2.3135,2.3135,2.3135,0.0,0.0,0.0,0.0,0.0,0.0,0.0,2.1142,2.1893,2.2948,2.4064,2.5247,2.6408,2.6533,2.6527,2.6527,2.4003,0.0,0.0,0.0,0.0,0.0,0.0,0.0,0.0,0.0,2.1217,2.2582,2.0282,1.9421,2.0014,1.9781,2.0088,2.0772,1.9825,1.9541,0.0,0.0,0.0,0.0,0.0,2.6533,2.6533,0.0,0.0,0.0,0.0,0.0,0.0,0.0,0.0,0.0,0.0,0.0,0.0,2.4632,2.6256,2.8324,2.6909,2.6522,2.6306,2.5401,2.5543,2.6392,2.7975,2.8194,2.8426,2.9534,2.9792,2.9792,2.9792,2.9824,3.0826,3.3814,3.4918,3.5214,3.4717,3.5294,3.5855,3.5808,3.6135,3.5345,0.0,0.0,3.0548,2.8417,0.0,0.0,2.8291,2.7891,2.7402,2.6836,2.6406,2.6035,2.5742,2.5742,2.5742,2.5742,2.5742,2.5742,2.5742,2.5742,2.5664,0.0,0.0,0.0,0.0,2.3906,2.3535,2.3135,2.3135,2.3135,2.3135,2.3135,2.3135,2.3135,0.0,0.0,0.0,0.0,0.0,0.0,0.0,2.1362,2.1857,2.2456,2.3435,2.4785,2.6327,2.5147,2.4308,2.425,2.2017,0.0,0.0,0.0,0.0,0.0,0.0,0.0,0.0,2.2115,2.2296,2.3442,2.1658,2.074,2.0797,2.0472,2.0936,2.2103,2.1059,2.0841,0.0,0.0,0.0,0.0,2.6531,2.6533,2.6533,0.0,0.0,0.0,0.0,0.0,0.0,0.0,0.0,0.0,0.0,0.0,0.0,0.0,2.4395,2.5274,2.5393,2.5371,2.5347,2.5029,2.4963,2.543,2.7096,2.7288,2.7589,2.9431,2.9792,2.9792,2.9792,2.9799,3.0956,3.4528,3.5841,3.6565,3.6908,3.6842,3.6698,3.6198,3.58,3.4417,0.0,3.1021,3.0116,0.0,0.0,0.0,2.8291,2.7891,2.7461,2.7021,2.6602,2.6182,2.5742,2.5742,2.5742,2.5742,2.5742,2.5742,2.5742,2.5742,2.5742,0.0,0.0,0.0,0.0,2.4131,2.3682,2.3135,2.3135,2.3135,2.3154,2.332,2.3389,2.3408,0.0,0.0,0.0,0.0,0.0,0.0,0.0,2.1743,2.1879,2.1649,2.2575,2.4042,2.6077,2.3037,2.0799,2.0841,0.0,0.0,0.0,0.0,0.0,0.0,0.0,0.0,0.0,2.4601,2.35,2.3421,2.2773,2.2503,2.2648,2.2146,2.2351,2.301,2.3317,2.3243,0.0,0.0,0.0,0.0,2.6476,2.6533,0.0,0.0,0.0,0.0,0.0,0.0,0.0,0.0,0.0,0.0,0.0,0.0,0.0,0.0,0.0,0.0,0.0,2.4761,2.4814,2.4905,2.4609,2.4796,2.654,2.6179,0.0,2.9238,2.9792,2.9804,2.9777,2.9789,3.0514,3.2521,3.4695,3.6949,3.9123,3.8251,3.6943,3.5938,3.5218,3.3753,3.1169,3.0601,2.9743,0.0,0.0,0.0,2.8291,2.7891,2.7461,2.7021,2.6602,2.6182,2.5742,2.5742,2.5742,2.5742,2.5742,2.5742,2.5742,2.5742,2.5742,0.0,0.0,0.0,0.0,2.4365,2.3896,2.3223,2.3164,2.3174,2.3271,2.3652,2.3809,2.3896,0.0,0.0,0.0,0.0,0.0,0.0,0.0,0.0,0.0,0.0,2.3991,2.4694,2.4241,2.3385,2.2806,0.0,0.0,0.0,0.0,0.0,0.0,0.0,0.0,0.0,0.0,2.5022,2.3994,2.3406,2.2559,2.2127,2.2076,2.1575,2.2298,2.3931,2.4118,2.4749,0.0,0.0,0.0,0.0,2.6496,2.6533,0.0,0.0,0.0,0.0,2.4424,2.3897,0.0,0.0,0.0,0.0,0.0,0.0,0.0,0.0,2.3299,2.3174,2.3496,0.0,2.3502,2.3524,2.3486,2.3806,0.0,2.5995,2.6954,2.9303,2.9792,2.9786,2.9782,2.9788,2.9992,3.0503,3.2448,3.4614,3.6856,3.6612,3.6134,3.6099,3.5294,3.3626,3.0904,3.0811,3.0188,0.0,0.0,2.8291,2.8291,2.7891,2.7461,2.7021,2.6602,2.6182,2.5742,2.5742,2.5742,2.5742,2.5742,2.5742,2.5742,2.5742,2.5742,0.0,0.0,0.0,2.4844,2.3848,2.3711,2.4053,2.3398,2.3545,2.4092,2.3867,2.3994,2.4287,0.0,0.0,0.0,0.0,0.0,0.0,0.0,0.0,0.0,0.0,0.0,2.4707,2.3604,2.3254,0.0,0.0,0.0,0.0,0.0,0.0,0.0,0.0,0.0,0.0,2.6535,2.5826,2.5109,2.4396,2.3878,2.3514,2.3223,2.323,2.3783,2.4847,2.4752,0.0,0.0,0.0,0.0,2.6539,2.6515,0.0,0.0,0.0,0.0,0.0,2.3872,2.3194,0.0,2.2041,2.153,2.1357,0.0,0.0,0.0,0.0,2.2988,2.3135,2.3135,2.3135,2.3135,2.3135,2.314,2.3601,2.5485,2.5418,2.5848,2.9127,2.9792,2.9786,2.9794,3.1486,3.2848,3.2835,3.3429,3.45,3.6483,3.6125,3.5443,3.5154,3.3653,3.1965,0.0,2.9743,0.0,0.0,0.0,2.8291,2.8291,2.7705,2.7256,2.7021,2.6416,2.5977,2.5742,2.5742,2.5742,2.5742,2.5742,2.5742,2.5742,2.5742,2.5742,0.0,0.0,0.0,2.501,2.4316,2.4062,2.4102,2.3828,2.3887,2.415,2.4316,2.4521,2.4746,0.0,0.0,0.0,0.0,0.0,0.0,0.0,0.0,0.0,0.0,0.0,0.0,0.0,0.0,0.0,0.0,0.0,0.0,0.0,0.0,0.0,0.0,0.0,2.6462,2.6339,2.6483,2.6138,2.5473,2.5548,2.5335,2.4833,2.5215,2.5339,2.5364,2.4992,2.5385,0.0,0.0,0.0,2.6658,2.6569,0.0,0.0,0.0,0.0,0.0,0.0,0.0,0.0,2.1527,2.0867,2.0644,2.1094,0.0,0.0,0.0,0.0,0.0,2.3135,2.3096,2.3057,2.3057,2.3061,2.3614,2.5502,2.5059,2.516,2.8999,2.9792,2.9786,2.9782,3.3135,3.5988,3.6326,3.5698,3.5709,3.7358,3.6208,3.4848,3.3873,3.1685,0.0,2.8809,0.0,0.0,0.0,0.0,2.8291,2.8291,2.748,2.7012,2.7012,2.6182,2.5742,2.5742,2.5742,2.5742,2.5742,2.5742,2.5742,2.5742,2.5742,2.5742,0.0,0.0,0.0,2.5156,2.5029,2.4619,2.4111,2.4336,2.4277,2.417,2.4824,2.5117,2.5225,0.0,0.0,0.0,0.0,0.0,0.0,0.0,0.0,0.0,0.0,0.0,0.0,0.0,0.0,0.0,0.0,0.0,0.0,0.0,0.0,0.0,0.0,2.6471,2.6289,2.5737,2.6214,2.5963,2.4946,2.5385,2.5335,2.4768,2.4389,2.4237,2.4242,2.4269,2.4604,2.5077,0.0,0.0,2.7395,2.6749,0.0,0.0,0.0,0.0,0.0,0.0,0.0,0.0,2.285,2.1973,2.0644,2.1094,0.0,0.0,0.0,0.0,0.0,2.3135,2.3093,2.3123,2.3123,2.3136,2.3155,2.3549,2.6301,2.8987,2.9664,2.9792,2.9829,2.9822,3.1913,3.4242,3.6109,3.6823,3.7566,3.9068,3.6549,3.4223,3.3456,0.0,2.9293,2.7949,0.0,0.0,0.0,0.0,2.8291,2.8291,2.748,2.7012,2.7012,2.6182,2.5742,2.5742,2.5742,2.5742,2.5742,2.5742,2.5742,2.5742,2.5742,2.5742,0.0,0.0,2.5352,2.5576,2.4824,2.4873,2.5371,2.4687,2.4834,2.541,2.5166,2.5312,2.5644,0.0,0.0,0.0,0.0,0.0,0.0,0.0,0.0,0.0,0.0,0.0,0.0,0.0,0.0,0.0,0.0,0.0,0.0,0.0,0.0,0.0,2.6533,2.6533,2.6339,2.6063,2.6354,2.6076,2.5247,2.5416,2.4991,2.4001,2.3746,2.3926,2.4404,2.395,2.4259,2.5161,0.0,2.619,2.7803,0.0,0.0,0.0,0.0,0.0,0.0,0.0,0.0,0.0,0.0,2.1308,2.0596,2.081,0.0,0.0,0.0,0.0,0.0,2.3014,2.3087,2.3133,2.3093,2.3135,2.3724,2.6166,2.8288,2.9764,2.9795,2.982,2.977,2.9782,3.2599,3.5226,3.6218,3.7308,3.824,3.8523,3.6199,3.4298,0.0,0.0,2.952,2.9143,0.0,0.0,0.0,0.0,0.0,2.8291,2.748,2.7012,2.7012,2.6182,2.5742,2.5742,2.5742,2.5742,2.5742,2.5742,2.5742,2.5742,2.5742,2.5742,2.5723,0.0,2.5547,2.5713,2.5303,2.5225,2.5361,2.5195,2.5225,2.5381,2.541,2.5557,2.5742,0.0,0.0,0.0,0.0,0.0,0.0,0.0,0.0,0.0,0.0,0.0,0.0,0.0,0.0,0.0,0.0,0.0,0.0,0.0,0.0,2.6589,2.6782,2.6589,2.6408,2.6088,2.6219,2.5927,2.5222,2.5279,2.4575,2.3315,2.3195,2.3525,2.4212,2.3408,2.3756,2.4916,2.5225,2.6268,2.7746,0.0,0.0,0.0,0.0,0.0,0.0,0.0,0.0,0.0,0.0,0.0,0.0,0.0,0.0,0.0,2.1207,2.1762,2.2376,2.2695,2.2978,2.3119,2.3091,2.3887,2.5541,2.8996,2.9824,2.9816,2.9824,3.0251,3.0528,3.0565,3.4186,3.7153,3.7165,3.7862,3.8209,3.777,3.6027,3.4757,3.4564,3.1895,3.0055,0.0,0.0,0.0,0.0,0.0,0.0,2.8144,2.7432,2.6973,2.6875,2.6133,2.5742,2.5742,2.5742,2.5742,2.5742,2.5742,2.5742,2.5742,2.5742,2.5742,2.5742,2.5742,2.5742,2.5742,2.5742,2.5537,2.5254,2.5605,2.5527,2.5273,2.5605,2.5752,2.5879,0.0,0.0,0.0,0.0,0.0,0.0,0.0,0.0,0.0,0.0,0.0,0.0,0.0,0.0,0.0,0.0,0.0,0.0,0.0,0.0,2.685,2.7604,2.6905,2.5988,2.4958,2.5385,2.5134,2.4117,2.4607,2.4285,2.3256,2.2895,2.2713,2.2621,2.2422,2.2732,2.3404,2.5456,2.6446,2.6744,2.8138,0.0,0.0,0.0,0.0,0.0,0.0,0.0,0.0,0.0,0.0,0.0,0.0,0.0,2.114,2.0751,2.1438,2.2213,2.2002,2.2539,2.3084,2.3109,2.6223,2.937,2.9736,2.9797,2.9803,2.9844,3.1464,3.2883,3.2872,3.6483,3.9495,3.9491,3.8396,3.7758,3.8412,0.0,3.5622,3.5222,3.2683,0.0,0.0,0.0,0.0,0.0,0.0,0.0,2.7734,2.7266,2.6836,2.6445,2.5977,2.5742,2.5742,2.5742,2.5742,2.5742,2.5742,2.5742,2.5742,2.5742,2.5742,2.5742,2.5742,2.5742,2.5742,2.5742,2.5723,2.5693,2.5723,2.5713,2.5693,2.5723,2.6005,2.6386,0.0,0.0,0.0,0.0,0.0,0.0,0.0,0.0,0.0,0.0,0.0,0.0,0.0,0.0,0.0,0.0,0.0,0.0,0.0,0.0,2.6211,2.6892,2.6658,2.6101,2.5322,2.4953,2.4233,2.3198,2.2741,2.265,2.2796,2.2524,2.2631,2.29,2.2804,2.2736,2.2725,2.4914,2.6102,2.6783,2.8621,2.8875,0.0,0.0,0.0,0.0,0.0,0.0,0.0,0.0,2.2627,2.1527,2.1741,2.1316,2.081,2.0634,2.0931,2.1471,2.2361,2.4875,2.7278,2.7281,2.8548,2.9825,2.9785,3.194,3.3884,3.3871,3.4542,3.4689,3.3367,3.4459,3.6063,3.7419,3.7165,3.6947,3.718,3.6208,3.523,3.4718,3.2214,0.0,0.0,0.0,0.0,0.0,0.0,0.0,2.7676,2.7012,2.6553,2.6396,2.5967,2.5742,2.5742,2.5742,2.5742,2.5742,2.5742,2.5742,2.5742,2.5742,2.5742,2.5742,2.5742,2.5742,2.5742,2.5742,2.5742,2.5742,2.5742,2.5742,2.5752,2.6015,2.6269,2.6428,0.0,0.0,0.0,0.0,0.0,0.0,0.0,0.0,0.0,0.0,0.0,0.0,0.0,0.0,0.0,0.0,0.0,0.0,2.5071,2.541,2.5908,2.6637,2.6557,2.6176,2.5548,2.4476,2.3644,2.29,2.1822,2.1605,2.2123,2.2185,2.2357,2.2744,2.2418,2.2349,2.2389,2.4356,2.5541,2.6358,2.8439,2.8687,0.0,0.0,0.0,0.0,0.0,0.0,0.0,0.0,2.3194,2.2391,2.2001,2.1282,2.0566,2.0586,2.0574,2.0876,2.2019,2.5973,2.9966,3.0699,3.0335,2.9838,2.9837,3.3225,3.6377,3.6376,3.5849,3.4933,3.3399,3.3063,3.3861,3.6018,3.6214,3.5879,3.5295,3.4919,3.4406,3.3672,3.1372,0.0,0.0,0.0,0.0,0.0,0.0,0.0,0.0,2.6709,2.6328,2.6182,2.5889,2.5742,2.5742,2.5742,2.5742,2.5742,2.5742,2.5742,2.5742,2.5742,2.5742,2.5742,2.5742,2.5742,2.5742,2.5742,2.5742,2.5742,2.5742,2.5762,2.5995,2.6269,2.6606,2.6849,0.0,0.0,0.0,0.0,0.0,0.0,0.0,0.0,0.0,0.0,0.0,0.0,0.0,0.0,0.0,0.0,0.0,0.0,2.4004,2.4983,2.597,2.6878,2.6598,2.6126,2.5435,2.4141,2.3447,2.329,2.2007,2.1354,2.1415,2.1739,2.1885,2.1875,2.1002,2.1224,2.2347,2.3984,2.4853,2.5149,2.7249,2.777,0.0,0.0,0.0,0.0,0.0,0.0,0.0,0.0,2.4066,2.3188,2.1255,2.0654,2.0586,2.0566,2.0643,2.0668,2.0713,2.5127,3.0311,3.2541,3.1434,2.9819,2.9785,3.3221,3.6337,3.635,3.4653,3.3171,3.3106,3.3132,3.3795,3.6032,3.5808,3.4718,3.3007,3.3256,3.3194,3.1811,3.011,0.0,0.0,0.0,0.0,0.0,0.0,0.0,0.0,2.6387,2.6182,2.5752,2.5742,2.5742,2.5742,2.5742,2.5742,2.5742,2.5742,2.5742,2.5742,2.5742,2.5742,2.5742,2.5742,2.5742,2.5742,2.5742,2.5742,2.5742,2.5742,2.6005,2.6406,2.6406,2.6957,2.7718,0.0,0.0,0.0,0.0,0.0,0.0,0.0,0.0,0.0,0.0,0.0,0.0,0.0,0.0,0.0,0.0,0.0,0.0,2.3966,2.4293,2.4936,2.5945,2.5265,2.4969,2.5139,2.37,2.26,2.1843,2.0759,2.0824,2.2,2.2491,2.2287,2.1546,2.0879,2.078,2.1253,2.4138,2.5,2.4729,2.709,2.788,2.7511,0.0,0.0,0.0,0.0,0.0,0.0,0.0,0.0,0.0,2.4509,2.3694,2.2145,2.0926,2.3677,2.7071,2.7073,2.8378,2.9965,3.061,3.0315,3.0175,3.1814,3.3115,3.4045,3.4102,3.4819,3.4979,3.3408,3.3132,0.0,3.4705,3.4638,3.4151,3.304,3.2227,3.1292,2.9936,2.8448,0.0,0.0,0.0,0.0,0.0,0.0,0.0,0.0,2.6103,2.5869,2.5742,2.5742,2.5742,2.5742,2.5742,2.5742,2.5742,2.5742,2.5742,2.5742,2.5742,2.5742,2.5742,2.5742,2.5742,2.5742,2.5742,2.5742,2.5742,2.5742,2.6005,2.6406,2.6681,2.6967,2.7302,0.0,0.0,0.0,0.0,0.0,0.0,0.0,0.0,0.0,0.0,0.0,0.0,0.0,0.0,0.0,0.0,0.0,0.0,0.0,0.0,2.4178,2.4681,2.4386,2.4108,2.3806,2.2539,2.1767,2.1517,2.0847,2.0937,2.1651,2.1293,2.0893,2.0543,1.985,1.9724,2.0115,2.2774,2.3683,2.3514,2.6037,2.7075,2.7189,0.0,0.0,0.0,0.0,0.0,0.0,0.0,0.0,0.0,2.7423,2.6862,2.5506,2.3919,2.6433,2.9788,2.9833,2.9792,2.9845,2.977,2.9801,3.036,3.2631,3.3127,3.3107,3.3069,3.4147,3.4792,3.377,3.3283,0.0,3.3998,3.4047,3.3555,3.2008,3.1164,2.9924,2.8208,2.7093,0.0,0.0,0.0,0.0,0.0,0.0,0.0,0.0,2.5879,2.5742,2.5742,2.5742,2.5742,2.5742,2.5742,2.5742,2.5742,2.5742,2.5742,2.5742,2.5742,2.5742,2.5742,2.5742,2.5742,2.5742,2.5742,2.5742,2.5742,2.5742,2.6005,2.6476,2.6653,2.6995,2.7351,0.0,0.0,0.0,0.0,0.0,0.0,0.0,0.0,0.0,0.0,0.0,0.0,0.0,0.0,0.0,0.0,0.0,0.0,0.0,0.0,2.3712,2.3321,2.3777,2.3353,2.1876,2.1091,2.1064,2.1826,2.1818,2.1396,2.0522,1.8867,1.8529,1.9133,1.8434,1.8392,1.8967,2.0719,2.1531,2.1889,2.4386,2.583,2.6511,2.6511,0.0,0.0,0.0,0.0,0.0,0.0,0.0,0.0,2.9675,2.9774,2.9555,2.8293,2.8594,2.9521,2.9739,2.9842,2.9839,2.9824,2.9917,3.0597,3.2389,3.2773,3.283,3.2769,3.2782,3.3066,3.3986,3.3538,3.3169,3.3734,3.3734,3.2796,3.0441,3.0079,2.905,2.6606,2.5977,0.0,0.0,0.0,0.0,0.0,0.0,0.0,0.0,2.5742,2.5742,2.5742,2.5742,2.5742,2.5742,2.5742,2.5742,2.5742,2.5742,2.5742,2.5742,2.5742,2.5742,2.5742,2.5742,2.5742,2.5742,2.5742,2.5742,2.5742,2.5742,2.6005,2.6447,2.6399,2.6949,2.7698,0.0,0.0,0.0,0.0,0.0,0.0,0.0,0.0,0.0,0.0,0.0,0.0,0.0,0.0,0.0,0.0,0.0,0.0,0.0,0.0,2.3306,2.3309,2.2733,2.2008,2.0934,2.1401,2.1523,2.1377,2.1036,2.0819,2.0609,1.9542,1.8732,1.8303,1.8556,1.8706,1.884,2.0946,2.1833,2.1889,2.4386,2.583,2.6511,2.6511,2.6539,0.0,0.0,0.0,0.0,0.0,0.0,0.0,2.8655,2.9843,2.9711,2.9436,2.8009,2.7059,2.9242,2.9787,2.9799,2.9794,3.1111,3.2063,3.0803,3.0512,3.0474,3.0532,3.0499,3.1054,3.3026,3.271,3.2444,3.3156,3.2411,3.13,2.9748,2.874,2.7546,2.6064,2.5791,0.0,0.0,0.0,0.0,0.0,0.0,0.0,2.5742,2.5742,2.5742,2.5742,2.5742,2.5742,2.5742,2.5742,2.5742,0.0,2.5742,2.5742,2.5742,2.5742,2.5742,2.5742,2.5742,2.5742,2.5742,2.5742,2.5742,2.5742,2.5742,2.6005,2.6446,2.6705,2.6973,2.7242,0.0,0.0,0.0,0.0,0.0,0.0,0.0,0.0,0.0,0.0,0.0,0.0,0.0,0.0,0.0,0.0,0.0,0.0,0.0,0.0,0.0,2.1991,2.1544,2.1178,2.0879,2.1338,2.1562,2.1553,2.1103,2.079,2.0584,1.961,1.8787,1.8273,1.8392,1.8375,1.8419,2.0043,2.0862,2.1385,2.3442,2.4516,2.5003,2.6049,2.6468,2.6664,2.78,0.0,0.0,0.0,0.0,0.0,0.0,0.0,2.9837,2.9811,2.8797,2.7945,2.9406,3.0161,3.0423,2.9961,3.0666,3.1191,3.0077,2.9774,2.9779,2.9782,2.977,3.0338,3.1991,3.216,3.2075,3.2141,3.1589,3.0586,2.8773,2.8049,2.7125,2.583,2.5742,0.0,0.0,0.0,0.0,0.0,0.0,2.5742,2.5742,2.5742,2.5742,2.5742,2.5742,2.5742,2.5742,2.5742,2.5742,2.5742,2.5742,2.5742,2.5742,2.5742,2.5742,2.5742,2.5742,2.5742,2.5742,2.5742,2.5742,2.5742,2.5742,2.5869,2.6132,2.6279,2.6656,2.709,0.0,0.0,0.0,0.0,0.0,0.0,0.0,0.0,0.0,0.0,0.0,0.0,0.0,0.0,0.0,0.0,0.0,0.0,0.0,0.0,0.0,2.0621,2.0617,2.0742,2.1113,2.1191,2.1377,2.166,2.1299,2.0889,2.0439,1.9451,1.8821,1.8516,1.8164,1.8008,1.8076,1.8993,1.9671,2.03,2.2293,2.3095,2.3376,2.5651,0.0,2.6532,2.647,2.6719,2.7275,2.8723,0.0,0.0,0.0,0.0,2.9792,2.9792,2.9792,2.9804,2.9789,3.0707,3.1398,3.0089,3.0115,3.0311,2.9861,2.9999,3.0133,2.9842,2.977,3.0089,3.0991,3.139,3.1503,3.1185,3.0808,2.9852,2.7861,2.74,2.6849,2.583,2.5742,0.0,0.0,0.0,0.0,0.0,0.0,2.5576,2.5732,2.5664,2.5664,2.5742,2.5742,2.5703,2.5625,2.5703,2.5703,2.5625,2.5703,2.5742,2.5742,2.5742,2.5742,2.5742,2.5742,2.5742,2.5742,2.5742,2.5742,2.5742,2.5742,2.5742,2.5742,2.5879,2.6371,2.7046,0.0,0.0,0.0,0.0,0.0,0.0,0.0,0.0,0.0,0.0,0.0,0.0,0.0,0.0,0.0,0.0,0.0,0.0,2.2272,0.0,0.0,2.0663,2.0617,2.0596,2.0654,2.1035,2.1074,2.0742,2.0684,2.043,1.999,1.9502,1.8857,1.8086,1.8037,1.8008,1.8095,1.9322,1.9282,1.8639,2.1818,2.3065,2.3349,0.0,0.0,0.0,2.6502,2.7716,2.9125,2.752,2.8187,0.0,0.0,0.0,2.9792,2.9792,2.9792,2.9777,2.9829,3.1271,3.2341,3.0306,3.1229,3.216,3.0262,3.0817,3.1327,3.0096,2.9829,2.9824,2.9973,2.9995,3.0121,3.0608,2.924,2.7955,2.7683,2.6668,2.5927,2.5742,2.5742,0.0,0.0,0.0,0.0,0.0,2.5029,2.4932,2.5693,2.5371,2.5332,2.5723,2.5742,2.5557,2.5166,2.5547,2.5547,2.5166,2.5557,2.5742,2.5742,2.5742,2.5742,2.5742,2.5742,2.5742,2.5742,2.5742,2.5742,2.5742,2.5742,2.5742,2.5762,2.6543,2.6939,2.7102,0.0,0.0,0.0,0.0,0.0,0.0,0.0,0.0,0.0,0.0,0.0,0.0,0.0,0.0,0.0,2.0539,2.0151,1.9809,1.9459,2.0092,2.0149,1.9525,1.996,2.0312,2.0557,2.0762,2.0644,2.0195,2.0195,1.9853,1.9199,1.9014,1.8848,1.8721,1.8721,1.8721,1.874,1.9152,1.9093,1.8826,1.9813,2.2195,0.0,0.0,0.0,0.0,0.0,0.0,2.8015,2.8238,2.9025,2.9783,2.9806,0.0,0.0,0.0,2.9792,2.9789,2.9799,3.0524,3.1238,3.1052,3.114,3.111,3.0527,3.0905,3.1267,3.0764,3.0181,2.9715,2.9685,3.0025,3.0043,2.9105,2.8767,2.8068,2.6408,2.565,2.5232,2.5342,2.5146,0.0,0.0,0.0,0.0,0.0,2.5146,2.5059,2.5703,2.5078,2.4912,2.5352,2.5361,2.5273,2.5068,2.5518,2.5635,2.5449,2.5644,2.5742,2.5742,2.5742,2.5742,2.5742,2.5742,2.5742,2.5742,2.5742,2.5742,2.5742,2.5742,2.5742,2.5762,2.6406,2.6774,2.7133,0.0,0.0,0.0,0.0,0.0,0.0,0.0,0.0,0.0,0.0,0.0,0.0,0.0,0.0,0.0,0.0,1.915,1.8276,1.7269,1.8533,1.9055,1.8457,1.9394,2.0068,2.0391,2.04,2.0244,1.9912,1.9697,1.9316,1.8799,1.8691,1.8926,1.9434,1.9219,1.9121,1.9121,1.9146,1.916,1.9287,1.8833,0.0,0.0,0.0,0.0,0.0,0.0,0.0,0.0,0.0,0.0,2.9834,2.977,2.9806,0.0,0.0,0.0,2.9764,2.9779,2.9824,3.0096,3.1187,3.088,3.0385,3.0549,3.0901,3.12,3.1035,3.0512,2.9822,2.9195,2.9523,2.9286,2.7271,2.7804,2.7586,2.5243,2.4751,2.4775,2.4873,2.4609,2.4717,0.0,0.0,0.0,0.0,2.5215,2.5146,2.5713,2.4902,2.4619,2.5059,2.4961,2.4853,2.4746,2.5176,2.5518,2.5742,2.5625,2.5625,2.5732,2.5615,2.5566,2.5566,2.5566,2.5635,2.5723,2.5586,2.5615,2.5742,2.5742,2.5742,2.5752,2.6386,2.6705,2.7031,0.0,0.0,0.0,0.0,0.0,0.0,0.0,0.0,0.0,0.0,0.0,0.0,0.0,1.9823,1.9798,1.9798,1.915,1.8276,1.7269,1.8533,1.8931,1.8037,1.9248,0.0,1.9951,1.9951,1.9932,1.9912,1.9102,1.8887,1.9248,1.8828,1.9082,1.9844,1.9033,1.8672,1.8701,0.0,0.0,0.0,0.0,0.0,0.0,0.0,0.0,0.0,0.0,0.0,0.0,0.0,0.0,0.0,0.0,2.977,2.9792,0.0,0.0,0.0,2.9817,2.9804,2.9817,2.988,3.088,3.1572,3.0184,3.1035,3.17,3.0221,3.0658,3.0597,2.8252,2.7496,2.683,2.5259,2.551,2.553,2.4521,2.419,2.4171,2.4443,2.4424,2.46,0.0,0.0,0.0,0.0,2.4941,2.4824,2.5693,2.4902,2.4619,2.5059,2.4668,2.4258,2.3857,2.4277,2.4902,2.5732,2.5303,2.5322,2.5723,2.5293,2.5098,2.5098,2.5098,2.5352,2.5703,2.5281,2.5379,2.5742,2.5742,2.5742,2.5762,2.6661,2.6967,2.7147,0.0,0.0,0.0,0.0,0.0,0.0,0.0,0.0,0.0,0.0,0.0,0.0,0.0,1.9798,1.9592,1.915,1.8015,1.6931,1.6095,1.7039,1.7621,1.7598,1.8828,1.9639,1.9902,2.0185,2.049,2.0851,1.9618,1.9332,1.9825,1.8706,1.8601,1.9222,1.938,1.9609,1.9863,1.9587,0.0,0.0,0.0,0.0,0.0,0.0,0.0,0.0,0.0,0.0,0.0,0.0,0.0,0.0,0.0,0.0,0.0,2.9792,2.9792,2.9792,2.9792,2.9792,2.9892,3.0372,3.059,3.0511,3.0344,3.0158,3.0135,3.0261,2.9367,2.8487,2.831,2.7597,2.6697,2.557,2.4682,2.4102,2.4331,2.3835,2.3689,2.4346,2.418,2.4404,2.54,0.0,0.0,0.0,0.0,2.4971,2.5293,2.4482,2.4092,2.4238,2.4092,2.4072,2.4189,2.4619,2.4853,2.4883,2.4727,2.4736,2.4883,2.4727,2.4648,2.4639,2.4365,2.4648,2.5293,2.5192,2.5303,2.5742,2.5742,2.5879,2.6259,2.6798,2.7228,2.7573,0.0,0.0,0.0,0.0,0.0,0.0,0.0,0.0,0.0,0.0,0.0,0.0,0.0,0.0,1.9445,1.8639,1.7656,1.6717,1.59,1.6543,1.708,1.7373,1.8603,1.9561,2.0196,2.0637,2.1234,2.1937,2.0605,2.0017,2.0117,1.8924,1.8626,1.8908,1.935,1.9928,0.0,0.0,0.0,2.0113,0.0,0.0,2.4386,0.0,0.0,0.0,0.0,0.0,0.0,0.0,0.0,0.0,0.0,0.0,0.0,0.0,2.9641,2.9754,2.9553,2.9641,2.9892,3.0398,3.0322,3.0118,3.0294,2.9875,2.9521,2.9684,2.9031,2.8244,2.7809,2.7807,2.7323,2.554,2.4304,2.3648,2.4117,2.373,2.3633,2.4336,2.417,2.4394,2.542,0.0,0.0,0.0,0.0,0.0,2.5293,2.4473,2.3867,2.3584,2.3574,2.3949,2.4726,2.4667,2.4746,2.4945,2.4451,2.4277,2.4414,2.4268,2.4209,2.4189,2.3906,2.4277,2.5059,2.4896,2.5168,2.5742,2.5742,2.6005,2.6466,2.6804,2.7314,2.7728,0.0,0.0,0.0,0.0,0.0,0.0,0.0,0.0,0.0,0.0,0.0,0.0,0.0,0.0,0.0,1.8407,1.828,1.7857,1.6762,1.7139,1.7383,1.7383,1.8674,1.9775,2.0755,2.1207,2.1948,2.2962,2.1913,2.0962,2.0149,1.9561,1.9188,1.8889,1.8906,1.9588,2.0732,0.0,1.965,1.873,0.0,2.6526,2.6519,0.0,0.0,0.0,2.662,2.7951,0.0,2.7324,0.0,0.0,0.0,0.0,0.0,0.0,0.0,0.0,0.0,0.0,0.0,2.9792,3.0193,3.0365,2.9917,3.0206,3.0089,2.8491,2.9792,3.0181,2.6751,2.7865,2.8261,2.4921,2.4434,2.4287,2.3887,2.3938,2.4094,2.4385,2.4434,2.4609,2.5039,0.0,0.0,0.0,2.5742,2.5732,2.5723,2.4873,2.4014,2.3164,2.3154,2.3857,2.5305,2.4296,2.4516,2.5982,2.4496,2.3984,2.4365,2.3955,2.3779,2.3789,2.3789,2.4277,2.5049,2.4562,2.4956,2.5635,2.5742,2.6005,2.6467,2.6788,2.7273,2.7728,0.0,0.0,0.0,0.0,0.0,0.0,2.0997,2.1072,0.0,0.0,0.0,0.0,0.0,0.0,1.9859,1.8958,1.8387,1.7676,1.6782,1.7139,1.7383,1.7383,1.9351,2.0552,2.0755,2.2169,2.3397,2.4425,2.2413,2.162,2.2103,2.0163,1.8928,1.8276,1.8936,2.1305,2.4657,2.1796,0.0,2.4289,2.5861,2.6507,0.0,0.0,0.0,0.0,0.0,2.9262,2.968,0.0,2.8825,2.944,0.0,0.0,0.0,0.0,0.0,0.0,2.89,0.0,0.0,0.0,0.0,0.0,2.9649,2.9308,2.8835,2.9106,2.8339,2.7457,2.726,2.695,2.6275,2.5065,2.4893,2.4844,2.4736,2.4453,2.4414,2.4844,2.4893,2.5059,2.5508,0.0,0.0,0.0,2.5742,2.5596,2.5273,2.4434,2.3711,2.3154,2.3447,2.3683,2.374,2.3801,2.386,2.3919,2.3457,2.3379,2.3486,2.3369,2.3496,2.3789,2.3789,2.4277,2.5039,2.4575,2.4762,2.5246,2.5616,2.6005,2.6446,2.6537,2.7085,2.768,0.0,0.0,0.0,0.0,0.0,2.2266,2.1224,2.1489,2.1448,0.0,0.0,0.0,0.0,0.0,0.0,1.9683,1.9233,1.8669,1.7841,1.8434,1.8836,1.8836,2.0652,2.1881,2.228,2.3481,2.4624,2.5664,2.3945,2.3069,2.2857,2.1169,1.971,1.8535,0.0,0.0,0.0,0.0,0.0,0.0,2.7505,0.0,0.0,2.9333,2.9776,0.0,0.0,0.0,2.9631,2.865,2.8687,0.0,0.0,0.0,0.0,0.0,0.0,0.0,0.0,0.0,0.0,0.0,0.0,0.0,2.9624,2.8937,2.8101,2.8302,2.7406,2.6512,2.6085,2.6131,2.5924,2.5202,2.5225,2.5283,2.5098,2.4844,2.4853,2.5293,2.5352,2.5449,2.5713,2.5742,2.5742,2.5742,2.5742,2.5459,2.4834,2.4595,2.4008,2.3154,2.3799,2.4323,2.4478,2.3809,2.3809,2.4478,2.3551,2.3135,2.3144,2.333,2.3545,2.3799,2.3975,2.4336,2.4785,2.4717,2.4974,2.5363,2.5616,2.6005,2.6406,2.6406,2.6991,2.7725,0.0,0.0,2.3376,2.3828,2.3577,2.2859,2.1512,2.1965,2.2051,0.0,0.0,0.0,0.0,0.0,0.0,0.0,2.0433,2.0066,1.9518,2.0196,2.0684,2.0825,2.2116,2.328,2.4103,2.4849,2.5679,2.6622,2.5958,2.4719,2.3026,2.2299,2.1111,1.9468,0.0,0.0,0.0,0.0,0.0,2.6665,2.8944,2.9786,0.0,0.0,2.977,2.9779,2.9691,2.9679,2.9426,2.8101,2.7813,0.0,0.0,0.0,0.0,0.0,2.7468,0.0,0.0,0.0,0.0,0.0,0.0,0.0,2.9624,2.8858,2.7787,2.6622,2.6741,2.6454,2.4277,2.5412,2.6321,2.5189,2.5449,2.5654,2.5205,2.5185,2.5361,2.5762,2.585,2.5859,2.581,2.581,2.5791,2.5742,2.5693,2.5293,2.4463,2.5053,2.4779,2.3319,2.4372,2.5378,2.6307,2.4307,2.4221,2.6058,2.4059,2.3135,2.3154,2.3545,2.374,2.3809,2.418,2.4404,2.4521,2.4912,2.5293,2.5654,2.5713,2.5995,2.6299,2.6378,2.6903,2.7617,0.0,2.359,2.3715,2.3364,2.3966,2.389,2.2063,2.2862,2.3145,0.0,0.0,0.0,0.0,0.0,0.0,0.0,2.0658,2.0144,2.0511,1.9919,1.9919,2.0755,2.2116,2.301,2.3151,2.5574,2.6976,2.7118,2.6235,2.5142,2.4037,2.2648,2.1432,2.041,2.1449,2.2961,0.0,0.0,0.0,2.6687,2.8915,0.0,2.9768,2.9768,2.9819,2.9704,2.876,2.8623,2.885,2.8211,2.7783,2.7507,0.0,0.0,0.0,0.0,0.0,0.0,0.0,0.0,0.0,0.0,0.0,0.0,2.8426,2.8255,2.7638,2.5969,2.5699,2.544,2.4493,2.4893,2.5224,2.46,2.5508,2.6103,2.5664,2.5908,2.6162,2.625,2.6562,2.6631,2.6289,2.626,2.6113,2.5762,2.54,2.4971,2.4443,2.5053,2.5107,2.4467,2.5557,2.5797,2.5126,2.4702,2.4211,2.3724,2.3309,2.3135,2.3135,2.3223,2.3457,2.3799,2.3877,2.4307,2.4951,2.5029,2.5173,2.5232,2.5566,2.5752,2.584,2.6255,2.6734,2.7212,2.3502,2.3803,2.3991,2.3979,2.4443,2.4404,2.3119,2.3555,2.3767,0.0,0.0,0.0,0.0,0.0,0.0,0.0,0.0,0.0,0.0,2.0639,2.0851,2.1356,2.3033,2.3966,2.3966,2.6125,2.7055,2.6444,2.5973,2.4992,2.3481,2.2476,2.1842,2.1599,2.2239,2.386,2.6245,0.0,2.8462,2.8212,2.934,0.0,2.9796,2.9806,2.9792,2.9716,2.9151,2.8599,2.8122,2.8109,2.7921,0.0,0.0,2.7786,2.7451,0.0,2.6469,2.7127,0.0,0.0,0.0,2.9409,0.0,0.0,0.0,2.7683,2.6857,2.5434,2.4646,2.4125,2.383,2.4141,2.4424,2.4414,2.5156,2.5732,2.5742,2.6289,2.6699,2.6699,2.6699,2.6621,2.6406,2.6191,2.5977,2.5752,2.5322,2.4883,2.4443,2.5565,2.5787,2.4798,2.588,2.6224,2.563,2.4542,2.3963,2.3963,2.3387,2.3135,2.3144,2.3359,2.3585,2.3841,2.4036,2.4346,2.4756,2.498,2.5134,2.5143,2.5547,2.5742,2.5684,2.5964,2.6502,2.7045,2.3841,2.4167,2.4443,2.4895,2.5059,2.4946,2.4393,2.4305,2.4268,0.0,0.0,0.0,0.0,0.0,0.0,0.0,0.0,0.0,0.0,2.1645,2.2027,2.2253,2.3999,2.4991,2.5016,2.6682,2.7065,2.5914,2.6051,2.5055,2.2993,2.251,2.2418,2.2711,2.2778,2.4876,2.8275,0.0,0.0,2.949,0.0,2.9795,2.9808,2.9768,2.9716,2.9541,2.9377,2.8477,2.7435,2.7553,2.7642,2.7581,2.7422,2.7667,0.0,0.0,0.0,0.0,0.0,0.0,0.0,0.0,0.0,2.9118,0.0,0.0,0.0,2.4713,2.3714,2.3135,2.3135,2.3496,0.0,2.4131,0.0,0.0,0.0,2.6348,0.0,2.6894,2.667,2.6484,2.6396,2.5996,2.5742,2.5742,2.5503,2.5184,2.456,2.6388,2.6672,2.4934,2.6185,2.6637,2.6141,2.4392,2.38,2.4457,2.3551,2.3135,2.3154,2.3506,2.3703,2.3662,2.4006,2.4268,2.4443,2.4795,2.5039,2.5234,2.5596,2.5742,2.5742,2.5762,2.6352,2.7007,2.3779,2.477,2.5435,2.5498,2.5937,2.6088,2.5498,2.541,2.5247,0.0,0.0,0.0,0.0,0.0,0.0,0.0,0.0,0.0,2.2397,0.0,2.2253,2.3136,2.4355,2.4963,2.5028,2.7422,2.8186,2.7133,2.7133,2.6108,2.403,2.3395,2.3255,2.3414,2.3853,2.5043,2.6911,0.0,2.8172,0.0,2.939,2.9767,0.0,2.9779,2.9363,2.875,2.7858,2.7175,2.6571,0.0,2.586,2.5977,0.0,2.5753,2.4918,2.5972,0.0,0.0,0.0,0.0,0.0,0.0,2.8267,0.0,0.0,0.0,2.4713,2.3551,0.0,2.3135,2.3135,0.0,0.0,0.0,0.0,0.0,2.5195,2.5908,2.6455,2.6455,2.6748,2.6797,2.6426,2.5996,2.5742,2.5742,2.6337,2.6228,2.5085,2.7336,2.7661,2.5427,2.7005,2.7023,2.5041,2.4713,2.4125,2.3299,2.3135,2.3135,2.3135,2.3193,2.3193,2.3164,2.3252,2.3711,2.4424,2.4473,2.4951,2.5664,2.5713,2.5742,2.5752,2.6152,2.6643,2.7082,2.4339,2.4612,2.508,2.597,2.6565,2.6741,2.6189,2.6101,2.6013,0.0,0.0,0.0,0.0,0.0,0.0,0.0,0.0,2.1826,0.0,0.0,0.0,2.3436,2.5065,2.5948,2.5896,2.6989,2.7167,2.6268,2.5509,2.4571,2.3696,2.3496,2.3888,2.485,2.5396,2.6491,2.7938,0.0,2.8775,0.0,0.0,0.0,0.0,2.9301,2.8475,2.7406,2.6971,2.6677,2.654,0.0,2.6359,0.0,0.0,0.0,0.0,0.0,0.0,0.0,0.0,0.0,0.0,0.0,0.0,0.0,2.5909,0.0,2.4457,0.0,0.0,0.0,0.0,0.0,0.0,0.0,2.4131,0.0,0.0,0.0,2.5615,0.0,0.0,0.0,2.6025,0.0,0.0,0.0,2.639,2.6535,2.7172,2.7216,2.7061,2.654,2.6289,2.5786,2.4787,2.4125,2.3551,2.3135,2.3135,2.3135,2.3135,2.3135,2.3135,2.3154,2.3408,2.3721,2.4092,2.459,2.501,2.5371,2.5635,2.5742,2.5742,2.5888,2.6387,2.7017,2.5336,0.0,0.0,2.6664,2.7243,2.7369,2.6967,2.6917,0.0,0.0,0.0,0.0,2.5038,2.3633,0.0,0.0,2.3145,2.2907,0.0,0.0,2.4267,2.3484,2.5704,0.0,2.5937,2.6522,2.6372,2.5344,2.4551,2.3987,2.3698,2.4115,2.5105,2.647,2.6709,2.7673,2.9151,2.9001,2.9264,2.9792,2.9792,2.9691,2.9503,2.8975,2.7952,2.6766,2.6739,2.6441,2.6181,2.6586,2.6282,0.0,2.5324,0.0,0.0,0.0,0.0,0.0,2.4767,0.0,0.0,0.0,0.0,0.0,0.0,0.0,0.0,0.0,0.0,0.0,0.0,0.0,0.0,0.0,0.0,2.3896,0.0,2.4248,0.0,0.0,0.0,0.0,0.0,0.0,0.0,2.7317,2.6845,2.7066,2.8263,2.7125,2.6605,2.6984,2.5605,2.4628,2.4382,2.3551,2.3135,2.3135,2.3135,2.3135,2.3135,2.3135,2.3135,2.3154,2.3477,2.3691,2.3896,2.4575,2.5019,2.5117,2.5566,2.5742,2.5742,2.5742,2.6285,2.6977,2.6951,2.6443,0.0,2.7801,2.8059,2.8072,2.8059,0.0,0.0,0.0,0.0,0.0,0.0,0.0,0.0,0.0,0.0,2.3429,2.3265,0.0,2.4869,2.335,2.6325,2.6854,0.0,2.6394,2.6577,2.4851,2.5458,2.5376,2.4745,2.592,2.6977,2.7989,2.7501,2.8244,2.9729,2.9164,2.9264,2.9792,2.9792,2.9453,2.895,0.0,2.8338,2.753,2.7347,0.0,0.0,2.5389,2.4579,0.0,0.0,0.0,0.0,0.0,0.0,0.0,0.0,0.0,0.0,2.6349,0.0,0.0,0.0,0.0,2.3135,0.0,0.0,0.0,0.0,0.0,0.0,0.0,0.0,0.0,0.0,0.0,0.0,0.0,0.0,0.0,0.0,2.7494,2.74,2.6949,2.7992,2.8162,2.6978,2.7151,2.7017,2.632,2.5356,2.4296,2.3135,2.3135,2.3135,2.3135,2.3135,2.3135,2.3135,2.3135,2.3135,2.3135,2.3154,2.3378,2.3822,2.4272,2.4694,2.5117,2.5566,2.5742,2.5742,2.5742,2.6285,2.6956,0.0,0.0,0.0,0.0,0.0,0.0,0.0,2.9126,0.0,0.0,0.0,0.0,0.0,2.5452,2.4625,0.0,0.0,2.4125,2.336,2.4515,0.0,0.0,0.0,2.6484,0.0,0.0,2.5153,2.4787,2.474,2.4919,2.5398,2.6874,2.7917,2.8642,2.8839,2.9282,2.9779,2.9578,0.0,0.0,0.0,2.9679,2.9453,0.0,0.0,2.7813,2.6687,2.5937,0.0,2.5001,2.42,2.331,2.3069,2.2845,2.2814,2.3287,2.3985,0.0,0.0,0.0,2.5766,2.5853,0.0,0.0,0.0,0.0,0.0,0.0,0.0,0.0,0.0,0.0,0.0,0.0,0.0,0.0,0.0,0.0,0.0,0.0,0.0,0.0,0.0,0.0,0.0,2.6804,2.6966,2.7374,2.8129,2.7093,2.6469,2.6262,2.489,2.3988,2.3574,2.3281,2.3135,2.3135,2.3135,2.3135,2.3135,2.3135,2.3135,2.3164,2.3683,2.4077,2.4293,2.5006,2.5376,2.5527,2.5674,2.5742,2.5742,2.5742,2.6216,2.7091,2.7369,0.0,0.0,0.0,0.0,0.0,0.0,0.0,0.0,0.0,2.8063,0.0,2.6896,0.0,2.4971,0.0,2.4726,2.415,2.3381,2.4355,0.0,2.3492,2.5376,0.0,0.0,0.0,0.0,0.0,2.474,2.5326,2.6542,2.8021,2.8909,2.9252,2.9628,2.9792,2.9792,2.9792,2.9792,0.0,0.0,2.9792,0.0,0.0,2.8309,2.7717,0.0,2.5604,2.4619,2.4265,2.3372,2.2382,2.2464,2.2939,2.3417,2.3481,2.4358,2.5455,2.5611,2.5549,0.0,2.5585,2.4716,0.0,2.4149,0.0,0.0,0.0,0.0,0.0,0.0,0.0,0.0,0.0,0.0,0.0,0.0,2.3135,0.0,0.0,2.4844,2.5258,0.0,2.5979,2.6001,2.6645,2.6204,2.6423,0.0,0.0,2.5589,2.6251,2.4706,2.3789,2.3789,2.3359,2.3135,2.3135,2.3135,2.3135,2.3144,2.3252,2.335,2.3418,2.4106,2.4355,2.4423,2.5173,2.5533,2.5469,2.5664,2.5762,2.5928,2.5956,2.6511,2.7344,2.8963,2.944,0.0,0.0,2.9905,0.0,0.0,0.0,2.9824,0.0,2.6963,2.6141,2.5041,2.4082,2.3724,2.4156,2.3809,2.3448,2.3238,2.4244,0.0,0.0,2.5169,2.5153,2.2595,0.0,0.0,0.0,0.0,2.6645,2.8084,2.9287,2.9792,2.9792,2.9792,2.9792,2.9792,2.9792,2.9792,2.9792,2.9792,2.9792,2.9624,2.8505,2.7696,2.7179,2.7155,2.5273,2.2867,2.3228,2.2147,2.0654,2.0678,2.2019,2.3544,2.3542,2.4288,2.5444,2.681,2.606,2.5038,2.5405,0.0,0.0,0.0,0.0,2.3135,0.0,0.0,0.0,0.0,0.0,0.0,0.0,0.0,0.0,0.0,0.0,2.3379,0.0,2.4232,2.5523,2.8199,2.7441,2.6634,2.6262,2.582,2.5567,0.0,0.0,2.4636,2.6162,2.4656,2.3857,2.3857,2.3418,2.3193,2.3164,2.3193,2.3193,2.3193,2.3641,2.384,2.3849,2.4303,2.4429,2.4472,2.4965,2.516,2.5124,2.5547,2.6054,2.6487,2.6497,2.703,2.781,2.949,3.0018,3.0482,0.0,3.0344,3.0407,0.0,0.0,0.0,0.0,2.8339,2.7279,2.6224,2.6551,2.6129,2.4373,2.459,0.0,0.0,0.0,0.0,2.177,2.2855,2.3604,2.3722,2.4357,0.0,2.6058,0.0,2.7714,2.8084,2.9287,2.9792,2.9792,2.9792,2.9792,2.9792,2.9792,2.9792,2.9792,2.9792,2.9275,2.8518,0.0,2.7013,2.538,2.5115,2.4551,2.3861,2.2431,2.1325,2.0827,2.2224,2.3395,2.4283,2.4562,2.5648,2.6569,2.579,2.6134,2.6173,2.4346,2.4106,2.4125,0.0,0.0,0.0,0.0,0.0,0.0,0.0,0.0,0.0,0.0,0.0,0.0,0.0,0.0,0.0,2.6217,0.0,0.0,2.6189,2.5946,2.5717,2.5602,2.5476,2.5063,0.0,0.0,0.0,2.4955,2.4805,2.4746,2.4746,2.4307,2.3935,2.3623,2.3935,2.3926,2.3633,2.4026,2.4283,2.4242,2.47,2.4922,2.4975,2.5363,2.5538,2.5557,2.6073,2.6663,2.7379,2.7333,2.7493,2.7722,3.0043,3.0583,0.0,3.1662,0.0,0.0,3.1712,3.1072,0.0,2.8867,2.8362,0.0,2.5964,2.5987,2.5538,2.3995,2.3451,0.0,2.132,0.0,0.0,2.1514,2.2367,2.3176,2.3801,2.4452,0.0,2.6875,0.0,2.8119,2.8858,2.9534,2.9792,2.9792,2.9792,2.9792,2.9792,2.9792,2.9792,2.9792,2.9275,2.8688,0.0,2.7023,2.5975,2.4904,2.4029,2.3655,2.3368,2.2158,2.1843,2.1997,2.2736,2.4078,2.5301,2.5088,2.5575,2.6113,2.5242,2.5124,2.4971,2.3652,2.3557,2.3644,2.3173,2.3135,2.3135,0.0,0.0,0.0,0.0,0.0,0.0,0.0,0.0,0.0,0.0,0.0,0.0,0.0,2.5712,0.0,2.6249,2.5336,2.473,2.473,2.473,0.0,0.0,0.0,0.0,2.4424,2.5029,2.5273,2.5068,2.4824,2.4482,2.4072,2.4307,2.4248,2.4126,2.449,2.4693,2.4746,2.5169,2.5398,2.5363,2.5616,2.5869,2.6084,2.6712,2.7299,2.7718,2.7873,2.7978,2.7944,3.062,0.0,0.0,0.0,0.0,0.0,0.0,3.1336,0.0,2.7847,0.0,2.7105,2.5031,2.4156,2.357,2.3356,0.0,2.1027,2.1211,2.1252,2.1489,2.2014,2.3,2.3583,2.3807,2.4746,2.6014,0.0,0.0,2.8395,2.9792,2.9792,2.9792,2.9792,2.9792,2.9792,2.9792,2.9792,2.9792,2.9702,2.8493,2.7992,2.7683,2.5619,2.4935,2.4934,2.359,2.2755,2.2281,2.2471,2.2941,2.3289,2.303,2.4459,2.6149,2.5254,2.5004,2.4933,2.4707,2.366,2.2746,2.2984,2.2734,2.2519,2.2891,2.3018,2.3057,2.3057,2.3057,2.2939,0.0,0.0,0.0,0.0,0.0,0.0,0.0,0.0,0.0,0.0,0.0,0.0,0.0,0.0,0.0,0.0,0.0,0.0,0.0,0.0,0.0,2.4424,2.5283,2.5576,2.5244,0.0,2.4971,2.459,2.459,2.4555,2.4512,2.4982,2.5185,2.5163,2.5585,2.5742,2.5742,2.5742,2.6016,2.6507,2.7418,2.7728,2.7854,2.8155,2.8291,2.8291,3.1235,0.0,0.0,0.0,0.0,3.2466,3.1537,3.1022,3.0202,2.881,2.752,2.6295,2.4957,2.464,2.4074,2.2834,2.2869,0.0,0.0,0.0,0.0,2.2532,2.3924,2.5329,2.6601,2.7191,2.8119,0.0,0.0,2.9524,2.9792,2.9792,2.9792,2.9792,2.9792,2.9792,2.9792,2.9792,0.0,2.9702,2.8239,2.7359,2.6637,2.5294,2.4221,2.3503,2.3232,2.264,2.2138,2.3502,2.3387,2.2953,2.4544,2.5154,2.5242,2.5028,2.5004,2.4636,2.2999,2.2603,2.2527,2.178,2.1824,2.2012,2.209,2.2373,2.2627,2.2627,2.2627,2.2598,2.2519,0.0,0.0,0.0,0.0,0.0,0.0,0.0,0.0,0.0,0.0,2.5307,0.0,0.0,0.0,0.0,0.0,0.0,0.0,0.0,0.0,0.0,2.5283,0.0,0.0,0.0,2.5576,2.5508,2.5508,2.5254,2.5002,2.5447,2.5614,2.5572,2.5635,2.5742,2.5742,2.5742,2.6174,2.6912,2.7477,2.7873,2.8165,2.8281,2.8291,2.8301,3.1813,0.0,0.0,0.0,0.0,0.0,0.0,3.1173,0.0,2.871,2.7847,2.6871,2.5797,2.4997,2.419,2.3408,2.2909,2.2565,2.2422,2.2652,2.3158,2.3939,2.5168,0.0,2.6895,2.7706,2.8482,2.934,0.0,0.0,2.9792,2.9792,2.9792,2.9792,2.9792,2.9792,2.9792,0.0,0.0,2.8615,2.7926,2.6764,2.5462,2.4382,2.4079,2.4303,2.4303,2.4084,2.3861,2.3801,2.4154,2.4687,2.5104,2.5492,2.5664,2.5158,2.4636,2.3891,2.2403,2.1824,2.1527,2.1252,2.1396,2.1611,2.1836,2.2041,2.2187,2.2187,2.2187,2.2187,2.2187,2.2659,0.0,0.0,0.0,0.0,0.0,0.0,0.0,0.0,0.0,0.0,0.0,0.0,0.0,0.0,0.0,0.0,0.0,0.0,0.0,0.0,0.0,0.0,0.0,0.0,0.0,2.5742,2.5742,2.5605,2.5457,2.5615,2.5869,2.6064,2.603,2.6035,2.6122,2.6279,2.6618,2.7031,2.7728,2.8145,2.8291,2.8291,2.8427,2.8593,0.0,3.2767,0.0,0.0,3.2993,0.0,3.1562,3.1386,3.0648,2.873,2.8255,2.7763,2.6964,2.5304,2.4345,2.4345,2.3134,2.2726,2.357,2.3934,2.4591,2.547,2.6493,2.7083,2.7083,2.8002,2.8674,0.0,0.0,0.0,0.0,2.9792,2.9792,2.9792,0.0,0.0,0.0,0.0,2.8585,2.6657,2.7208,2.6168,2.4364,2.38,2.4303,2.5381,2.5613,2.5736,2.5618,2.4388,2.4997,2.6057,2.548,2.5734,2.5955,2.5004,2.3963,2.2925,2.1962,2.1155,2.0654,2.1006,2.1094,2.1182,2.1523,2.168,2.1748,2.1748,2.1748,2.1777,2.1865,2.2574,0.0,0.0,0.0,0.0,0.0,0.0,0.0,0.0,0.0,0.0,2.5347,0.0,0.0,0.0,0.0,0.0,0.0,0.0,0.0,0.0,0.0,2.5781,2.5879,0.0,2.6133,0.0,2.5791,2.5742,2.5742,2.5762,2.6015,2.6378,2.6456,2.6511,2.6543,2.6946,2.7159,2.7176,2.8009,2.8291,2.8291,2.8427,2.8593,2.8916,0.0,0.0,0.0,0.0,0.0,0.0,3.1562,3.1386,3.1009,2.9761,2.8767,2.8084,2.7924,2.6075,2.4724,2.4724,2.4315,2.4052,2.4135,2.553,2.6363,2.6451,2.7863,2.8687,2.8687,2.9288,2.9666,0.0,0.0,0.0,0.0,0.0,0.0,0.0,0.0,0.0,0.0,2.9792,2.7345,2.3695,2.5765,2.529,2.3388,2.4702,2.5296,2.5455,2.6196,2.6428,2.6358,2.6271,2.5698,2.5313,2.6119,2.5804,2.4933,2.3963,2.2925,2.1962,2.1011,2.0634,2.0576,2.0615,2.0625,2.0635,2.0684,2.1006,2.1299,2.1299,2.1299,2.1416,2.1816,2.1967,2.2619,0.0,0.0,0.0,0.0,0.0,2.2998,2.2617,0.0,0.0,0.0,2.3021,0.0,0.0,2.3721,0.0,0.0,0.0,0.0,2.4414,0.0,2.5928,2.6328,2.5977,2.5917,2.6345,2.5869,2.5742,2.5742,2.6142,2.6396,2.6378,2.674,2.6917,2.6946,2.7457,2.7582,2.7708,2.8145,2.8291,2.8301,2.872,2.8866,2.8967,0.0,0.0,0.0,0.0,0.0,0.0,0.0,3.1386,3.0997,2.993,2.8767,2.8347,2.9028,2.7128,2.6047,2.6685,2.6035,2.5842,2.6483,2.7179,2.7789,2.8455,2.9085,2.9453,2.9453,2.9679,2.9792,0.0,0.0,0.0,0.0,0.0,0.0,0.0,0.0,2.9792,2.9792,2.9792,2.7763,2.4594,2.5508,2.4766,2.3295,2.4786,2.5942,2.6813,2.7278,2.7442,2.7508,2.7755,2.7001,2.5886,2.5652,2.53,2.4719,2.3298,2.2446,2.1811,2.0857,2.0566,2.0566,2.0566,2.0566,2.0566,2.0566,2.0703,2.083,2.083,2.083,2.0967,2.1416,2.2251,2.3012,0.0,0.0,0.0,0.0,0.0,0.0,2.2539,0.0,2.2684,0.0,0.0,0.0,0.0,0.0,0.0,0.0,0.0,0.0,2.4805,0.0,2.5283,2.5986,2.582,2.5742,2.5956,2.584,2.581,2.6131,2.6289,2.6718,2.7182,2.7304,2.7468,2.7418,2.7673,2.7685,2.7728,2.8145,2.8291,2.8301,2.873,2.913,2.9409,3.3006,0.0,3.3269,0.0,3.293,3.2554,3.175,3.1373,3.0884,3.0131,2.9204,2.8937,2.9702,2.8131,2.729,2.8004,2.7452,2.729,2.8016,2.8426,2.8937,2.9792,2.9792,0.0,2.9792,2.9792,2.9792,2.9792,2.9792,0.0,0.0,0.0,0.0,0.0,2.9591,2.9792,2.9792,2.9792,2.833,2.6088,2.6088,2.529,2.4327,2.6005,2.7144,2.7859,2.8419,2.843,2.8331,2.848,2.736,2.5824,2.5098,2.4529,2.3902,2.2713,2.2014,2.1441,2.0789,2.0566,2.0566,2.0566,2.0566,2.0566,2.0566,2.0566,2.0566,2.0566,2.0674,2.0898,2.1348,2.2392,2.3063,2.2703,0.0,0.0,0.0,0.0,0.0,0.0,2.3073,2.2837,2.2183,2.3126,0.0,0.0,0.0,0.0,0.0,0.0,0.0,0.0,0.0,0.0,0.0,2.5869,2.5752,2.5888,2.5752,2.5947,2.6377,2.6712,2.7166,2.7863,2.7863,2.7863,2.7863,2.7863,2.7863,2.7873,2.8301,2.8447,2.8564,2.913,2.9454,2.9843,3.3081,3.352,3.3721,3.3169,3.2604,3.2227,3.2202,3.1311,3.062,3.0608,3.0131,2.9792,2.9792,2.8767,2.8096,2.8096,2.8096,2.8096,2.8096,2.9118,2.9792,0.0,0.0,2.9792,2.9792,2.9792,2.9792,2.9792,0.0,0.0,2.9792,0.0,2.9779,2.9779,2.9792,2.9792,2.9792,2.9792,2.8954,2.7587,2.7587,2.7094,2.6682,2.8871,2.9027,2.8267,2.9365,2.9328,2.8616,2.8233,2.6541,2.4543,2.4472,2.3363,2.2027,2.2038,2.1375,2.0644,2.0566,2.0566,2.0566,2.0566,2.0566,2.0566,2.0566,2.0566,2.0566,2.0566,2.0918,2.1357,2.1797,2.2217,2.2646,2.3066,0.0,0.0,0.0,0.0,0.0,2.428,2.4043,2.3299,2.1409,2.2393,0.0,0.0,0.0,0.0,0.0,0.0,0.0,2.5068,2.5488,0.0,2.6992,2.6162,2.5888,2.6396,2.5888,2.5898,2.6466,2.7253,2.7873,2.8291,2.8291,2.8291,2.8291,2.8291,2.8291,2.8301,2.872,2.8866,2.9003,2.9876,3.0181,3.0278,3.293,3.3219,3.3282,3.3106,3.2918,3.2667,3.2277,3.1926,3.1436,3.0708,3.0457,3.0218,2.9829,2.9456,2.9275,0.0,2.9275,2.9275,0.0,2.9624,2.9792,2.9792,2.9792,2.9792,2.9792,2.9792,2.9792,2.9792,0.0,0.0,0.0,2.9616,2.9566,2.9088,2.9603,2.9792,2.9792,2.9792,2.9094,2.7956,2.7956,2.7684,2.738,2.831,2.8875,2.9303,2.9633,2.9416,2.8637,2.7412,2.6025,2.4608,2.3371,2.2548,2.1852,2.1202,2.1036,2.0957,2.0644,2.0791,2.0947,2.0644,2.0566,2.0566,2.0566,2.0801,2.0937,2.0625,2.1162,2.1719,2.1865,2.2227,2.2893,2.4053,2.4542,0.0,0.0,0.0,0.0,0.0,2.3724,2.302,0.0,2.2129,0.0,0.0,0.0,0.0,0.0,0.0,0.0,0.0,2.5896,0.0,2.7012,2.6738,2.6514,2.6427,2.6202,2.6367,2.6816,2.7747,2.8155,2.8291,2.8291,2.8291,2.8291,2.8291,2.8291,2.8301,2.872,2.8875,2.9021,2.9896,3.0218,3.029,3.2905,3.3081,3.3081,3.3081,3.2893,3.2704,3.2554,3.2177,3.1662,3.0997,3.0733,3.0482,3.0143,2.9917,0.0,2.9792,2.9792,2.9792,2.9792,2.9792,2.9792,2.9792,2.9792,2.9792,2.9792,0.0,0.0,2.9792,2.9792,2.9616,2.9264,2.9616,2.9578,2.9138,2.9616,2.9792,2.9792,2.9792,2.9365,2.8767,2.8767,2.8626,2.8438,2.8669,2.9175,2.9791,2.9802,2.9197,2.8218,2.718,2.5553,2.3874,2.3132,2.2521,2.1855,2.1228,2.1264,2.1377,2.0937,2.1025,2.1123,2.0674,2.0693,2.0859,2.1025,2.1279,2.1396,2.1123,2.2018,2.2754,2.2754,2.3431,2.4315,2.5251,2.5786,2.6284,2.7035,0.0,0.0,0.0,0.0,0.0,0.0,2.2344,2.29,0.0,0.0,0.0,0.0,0.0,0.0,2.5958,2.6433,0.0,2.749,2.7143,2.6924,2.6914,2.6884,2.7041,2.7302,2.7999,2.8291,2.8291,2.8291,2.8291,2.8291,2.8291,2.8417,2.8573,2.9003,2.9215,2.9515,3.0244,3.0418,3.0441,3.2968,3.3081,3.3081,0.0,3.2629,0.0,3.2993,3.2177,3.1486,3.1449,3.1022,3.0708,3.067,3.0181,2.9854,2.9854,0.0,0.0,0.0,2.9792,2.9792,2.9792,2.9792,2.9792,2.9792,2.9792,2.9792,2.9792,2.9792,2.9792,2.9792,2.9792,2.9792,2.9792,2.9792,2.9792,2.9792,2.9792,2.9792,2.9792,2.9792,2.9792,2.9792,2.9792,2.9792,2.9792,2.9792,2.8913,2.761,2.7304,2.5149,2.2625,2.366,2.3018,2.1963,2.1934,2.1934,2.1836,2.1396,2.1299,2.1211,2.0771,2.0967,2.1387,2.1787,2.1904,2.1924,2.1967,2.3196,2.424,2.428,2.5491,2.6554,2.6565,2.7452,2.8096,2.8176,0.0,0.0,0.0,0.0,0.0,0.0,2.2939,2.3047,0.0,0.0,0.0,0.0,0.0,2.6465,2.6394,2.6885,2.749,2.8281,2.7476,2.7323,2.7708,2.7653,2.7703,2.7718,2.8145,2.8291,2.8291,2.8291,2.8301,2.8301,2.8301,2.8573,2.9013,2.9437,2.9895,3.0267,3.0733,3.0889,3.0889,0.0,0.0,3.3081,3.3081,3.2968,3.2918,3.3056,3.2855,3.2516,3.2077,3.1913,3.1675,3.1248,3.0733,3.0419,3.0419,3.0043,2.9792,2.9792,2.9792,2.9792,2.9792,2.9792,2.9792,2.9792,2.9792,2.9792,2.9792,2.9792,2.9792,2.9792,2.9792,2.9792,2.9792,2.9792,2.9792,2.9792,2.9792,2.9792,2.9792,2.9792,2.9792,2.9792,2.9792,2.9792,2.9792,2.9792,2.9032,2.785,2.6944,2.5596,2.4084,2.3523,2.3083,2.2783,2.2461,2.2363,2.2275,2.1846,2.1963,2.2109,2.168,2.165,2.1758,2.1865,2.2139,2.2508,2.3032,2.3908,2.4766,2.5315,2.5973,2.6801,2.7602,2.7924,2.8426,2.9287,2.9499,0.0,0.0,2.6461,2.5773,2.3181,2.3389,2.3867,0.0,0.0,0.0,0.0,2.6555,2.6843,2.6855,2.7641,2.8086,2.8291,2.8135,2.7873,2.7708,2.7727,2.7746,2.7718,2.8145,2.8291,2.8291,2.8291,2.8447,2.873,2.873,2.9013,2.9447,2.9898,3.0074,3.0267,3.0733,3.0889,3.0889,3.3068,3.3282,3.337,3.3119,3.3081,3.3081,3.3081,3.3081,3.2867,3.229,3.2215,3.2102,3.18,3.1286,3.1072,3.1323,3.0394,2.9792,2.9792,3.003,3.0168,3.0168,3.0168,3.0168,3.0168,2.993,2.9792,2.9792,3.0043,3.0043,2.9804,3.0043,3.003,2.9792,2.9792,2.9792,2.9792,2.9792,2.9792,2.9792,2.9792,2.9792,2.9792,2.9792,2.9792,2.9702,2.9197,2.8279,2.7197,2.613,2.4967,2.3877,2.3299,2.3135,2.3096,2.2861,2.2793,2.2705,2.2285,2.2344,2.2461,2.2227,2.2168,2.2217,2.2412,2.3043,2.3622,2.4022,2.525,2.6442,2.6749,2.7718,2.8486,2.8816,2.9053,2.9218,2.9052,2.9028,0.0,2.5909,2.6031,2.5817,2.4669,2.4286,2.4532,2.5532,0.0,0.0,2.6338,2.7162,2.7468,2.7304,2.7912,2.8291,2.8291,2.8291,2.8155,2.7999,2.7999,2.7999,2.7999,2.8165,2.8291,2.8291,2.8291,2.8564,2.8926,2.8872,2.9322,2.9882,3.0074,3.0286,3.0568,3.0752,3.0889,3.0889,3.342,3.3633,3.3771,3.3395,3.3257,3.3206,3.3206,3.3206,3.3031,3.2528,3.2466,3.2466,3.2466,3.1976,3.18,3.2177,3.0884,3.003,3.003,3.047,3.0733,3.0733,3.0733,3.0696,3.062,3.0156,2.9917,2.9917,3.047,3.0495,3.0043,3.0432,3.0344,2.9789,2.9817,2.9792,2.9792,2.9792,2.9792,2.9792,2.9792,2.9792,2.9792,2.9792,2.9702,2.9456,2.8438,2.7279,2.6141,2.5126,2.4039,2.3135,2.3135,2.3135,2.3135,2.3135,2.3135,2.3057,2.2705,2.2607,2.2607,2.2607,2.2607,2.2705,2.3057,2.3963,2.4872,2.5041,2.6696,2.8176,2.8335,2.9487,3.0369,2.998,3.0231,3.0002,2.8686,0.0,2.7544,2.5882,2.5627,2.5769,2.6066,2.5371,2.5349,2.6578,2.6888,2.6986,0.0,2.791,2.8288,2.7773,2.8105,2.8291,2.8291,2.8291,2.8291,2.8291,2.8291,2.8291,2.8291,2.8291,2.8291,2.8291,2.8291,2.8573,2.9005,2.8975,2.9512,3.0276,3.0276,3.0568,3.0889,3.0889,3.0889,3.0889,3.4487,3.4161,3.4022,3.4399,3.4085,3.3771,3.3771,3.3771,3.3746,3.3646,3.3646,3.3646,3.3646,3.3144,3.2654,3.2252,3.1562,3.1148,3.1148,3.1223,3.1273,3.1273,3.1273,3.106,3.062,3.0532,3.0482,3.0482,3.1009,3.1223,3.1135,3.0783,3.0311,2.9799,2.9839,2.9792,2.9792,2.9792,2.9792,2.9792,2.9792,2.9792,2.9792,2.9792,2.9197,2.8347,2.8176,2.6767,2.5041,2.4872,2.4039,2.3135,2.3135,2.3135,2.3135,2.3135,2.3135,2.3125,2.3057,2.3047,2.3047,2.3047,2.3047,2.3057,2.3125,2.3963,2.5041,2.6058,2.7197,2.8426,2.9365,2.9777,3.0043,3.0432,3.0168,2.9965,3.0169,0.0,2.8197,2.7008,2.6619,2.6146,2.5411,2.6464,2.74,2.801,2.9088,2.9639,2.9257,2.9361,2.9049,2.8193,2.8262,2.8291,2.8291,2.8291,2.8291,2.8291,2.8291,2.8291,2.8291,2.8291,2.8291,2.8291,2.8291,2.873,2.9447,2.9431,2.9966,3.0743,3.0743,3.0879,3.0889,3.0889,3.0889,3.0889,3.4776,3.4751,3.4776,3.4726,3.4512,3.4349,3.4349,3.4349,3.4349,3.4349,3.4349,3.4349,3.4349,3.411,3.3734,3.3169,3.2893,3.2616,3.2315,3.2001,3.1838,3.1838,3.1838,3.1587,3.1047,3.1035,3.1035,3.1035,3.1574,3.1675,3.1386,3.1449,3.1179,3.063,3.0641,3.0495,3.0231,2.9949,2.9974,3.0244,3.0527,3.0502,3.0152,2.9548,2.8851,2.7924,2.6767,2.5703,2.4713,2.4125,2.3551,2.3135,2.3135,2.3135,2.3135,2.3135,2.3135,2.3135,2.3135,2.3135,2.3135,2.3135,2.3135,2.3222,2.3877,2.4882,2.6047,2.7116,2.8267,2.9283,3.009,3.047,3.0733,3.0984,3.0313,0.0,0.0,2.7877,2.6704,2.6093,2.6532,2.7075,2.7746,2.8545,2.9532,3.0706,3.0341,2.9959,2.9714,2.9209,2.878,2.8291,2.8291,2.8291,2.8291,2.8291,2.8291,2.8291,2.8291,2.8291,2.8291,2.8291,2.8291,2.8291,2.8564,2.8976,2.9604,2.9805,3.0276,3.0889,3.0889,3.0889,3.0889,3.0889,3.0889,3.0889,3.519,3.5341,3.5454,3.5152,3.5002,3.4914,3.4914,3.4914,3.4914,3.4914,3.4914,3.4914,3.4914,3.4914,3.4688,3.4135,3.4085,3.3909,3.3483,3.3043,3.2679,3.2428,3.2277,3.2014,3.1587,3.1587,3.1587,3.1587,3.2139,3.2202,3.1788,3.2077,3.1989,3.1574,3.1449,3.1173,3.0771,3.0109,3.0134,3.0771,3.1487,3.1107,3.0078,2.9104,2.8245,2.7288,2.5658,2.494,2.4594,2.3574,2.3291,2.3271,2.3164,2.3213,2.3291,2.3291,2.3457,2.3515,2.3164,2.3135,2.3135,2.3135,2.3135,2.3387,2.4542,2.5714,2.6835,2.8009,2.9211,3.0143,3.0696,3.1122,3.1436,3.1562,0.0,0.0,0.0,2.7173,2.612,2.6123,2.7045,2.8358,3.0247,3.0804,3.1598,3.2971,3.1706,3.0669,3.0281,2.9332,2.8608,2.8291,2.8291,2.8291,2.8291,2.8291,2.8291,2.8291,2.8291,2.8291,2.8291,2.8291,2.8291,2.8301,2.872,2.9137,2.9647,2.9976,3.0441,3.0889,3.0889,3.0889,3.0889,3.0889,3.0889,3.0889,3.6245,3.5868,3.5692,3.6157,3.5818,3.5399,3.5399,3.5399,3.5399,3.5399,3.5399,3.5399,3.5399,3.5399,3.5265,3.4713,3.4663,3.465,3.46,3.4562,3.4073,3.3056,3.2503,3.219,3.2152,3.2152,3.2152,3.2152,3.2729,3.2993,3.2943,3.2441,3.219,3.2127,3.1625,3.1373,3.1298,3.0237,3.0225,3.1023,3.2431,3.1279,2.8833,2.8512,2.7272,2.5588,2.5941,2.53,2.4349,2.3867,2.374,2.3672,2.3271,2.3418,2.374,2.374,2.4424,2.4928,2.3495,2.3135,2.3135,2.3135,2.3135,2.3387,2.4542,2.5714,2.6937,2.855,2.9763,3.0708,3.1235,3.1361,3.1549,3.2077,0.0,0.0,3.0135,2.9121,2.8578,2.902,2.9569,3.0258,3.0852,3.2436,3.3506,3.3672,3.3887,3.349,3.223,3.0824,2.9621,2.8388,2.8291,2.8291,2.8291,2.8291,2.8291,2.8291,2.8291,2.8291,2.8291,2.8291,2.8291,2.8301,2.872,2.9137,2.9647,2.9976,3.0441,3.0889,3.0889,3.0889,3.0889,3.0889,3.0889,3.0889,3.6358,3.6194,3.6119,3.632,3.6194,3.6056,3.6056,3.6056,3.6056,3.6056,3.6056,3.6056,3.6056,3.6056,3.583,3.529,3.524,3.509,3.4751,3.4726,3.4387,3.3621,3.3382,3.3106,3.2754,3.3081,3.3093,3.2754,3.2968,3.3081,3.3068,3.2855,3.2754,3.2742,3.2528,3.224,3.1901,3.1888,3.1755,3.166,3.2685,3.1771,2.9806,2.9427,2.7855,2.5962,2.7008,2.6093,2.4477,2.5108,2.4786,2.415,2.3984,2.4043,2.418,2.418,2.4433,2.4836,2.5013,2.5361,2.5486,2.4728,2.5371,2.6259,2.6682,2.7635,2.8881,3.0171,3.0817,3.126,3.18,3.1901,3.1813,3.1638,0.0,2.9389,3.0204,2.9032,2.8669,3.0214,3.1249,3.2054,3.259,3.3968,3.5137,3.5827,3.4161,3.2995,3.2903,3.071,2.9157,2.87,2.871,2.8573,2.8291,2.8291,2.8291,2.8291,2.8291,2.8427,2.871,2.871,2.8856,2.915,2.9571,2.9857,2.9976,3.0432,3.0733,3.0889,3.0889,3.0889,3.0889,3.0889,3.0889,3.0889,3.6358,3.6358,3.6358,3.6358,3.6358,3.6358,3.6358,3.6358,3.6358,3.6358,3.6358,3.6358,3.6358,3.6358,3.6207,3.583,3.5805,3.5642,3.5265,3.5077,3.4726,3.4173,3.4161,3.3985,3.3608,3.3796,3.3709,3.3332,3.3156,3.3081,3.3081,3.3081,3.3081,3.3081,3.3081,3.2855,3.2491,3.2921,3.2786,3.2284,3.2093,3.1303,3.0253,2.9553,2.8309,2.7054,2.8177,2.7417,2.6054,2.6355,2.5869,2.5135,2.4545,2.4512,2.4712,2.497,2.5155,2.5473,2.6918,2.7794,2.7969,2.6617,2.7173,2.82,2.8459,2.9157,3.0157,3.1365,3.165,3.1813,3.2378,3.2478,3.2153,3.134,3.0435,2.9931,3.0139,2.9686,2.9969,3.1682,3.2948,3.3938,3.4472,3.5313,3.5931,3.6331,3.3777,3.2073,3.1695,2.9898,2.8957,2.8933,2.9092,2.8986,2.872,2.8437,2.831,2.8447,2.8447,2.872,2.916,2.9144,2.926,2.9679,2.9998,3.0231,3.0257,3.0723,3.0889,3.0889,3.0889,3.0889,3.0889,3.0889,3.0889,3.0889,3.637,3.637,3.637,3.637,3.637,3.637,3.637,3.637,3.637,3.6358,3.6358,3.6358,3.6358,3.6358,3.6358,3.6358,3.6358,3.6358,3.6358,3.5855,3.5303,3.4763,3.4726,3.4726,3.4726,3.4186,3.3909,3.3897,3.3357,3.3081,3.3081,3.3081,3.3081,3.3081,3.3081,3.3081,3.3081,3.3081,3.3081,3.2859,3.0408,2.9542,2.9694,2.8689,2.8429,2.8847,2.9239,2.9407,2.9157,2.7494,2.6896,2.6629,2.4921,2.4727,2.5352,2.6424,2.6691,2.7126,2.9114,2.996,3.006,2.8509,2.8124,2.8396,2.952,2.9785,3.0278,3.1851,3.2227,3.2403,3.298,3.3093,3.2711,3.1412,3.1686,3.1666,3.0427,3.1809,3.3112,3.3637,3.4772,3.5768,3.632,3.637,3.5837,3.4489,3.307,3.1146,2.8485,2.871,2.8933,2.8858,2.9357,2.9601,2.9621,2.873,2.8564,2.8876,2.8886,2.917,2.9651,2.964,2.9647,2.9647,2.9976,3.0257,3.0257,3.0723,3.0889,3.0889,3.0889,3.0889,3.0889,3.0889,3.0889,3.0889,3.686,3.6935,3.7061,3.745,3.7513,3.7387,3.6998,3.6935,3.6797,3.6408,3.6358,3.6358,3.6358,3.6358,3.6358,3.6358,3.6358,3.6358,3.6358,3.6207,3.6044,3.5881,3.5504,3.5115,3.4726,3.4939,3.4675,3.3897,3.4123,3.4035,3.3658,3.4048,3.4022,3.3658,3.3658,3.3432,3.3081,3.3081,3.3081,3.3007,3.2259,3.13,3.0455,3.1276,3.0293,2.8688,3.1116,3.1276,3.0182,3.0021,2.8818,2.7171,2.5744,2.5984,2.6919,2.7191,2.7918,2.8876,3.0355,3.0866,3.0766,2.9898,3.0671,3.149,3.0946,3.1782,3.2835,3.327,3.3709,3.3744,3.2968,3.3572,3.3469,3.139,3.1903,3.2616,3.2688,3.3161,3.3945,3.5454,3.6256,3.6759,3.6923,3.637,3.6038,3.6026,3.3788,3.1313,2.8836,2.9434,2.9679,2.9436,2.9802,3.0026,2.9984,2.9481,2.9287,2.9444,2.9381,2.965,2.9994,3.0036,3.0247,3.0568,3.0597,3.0723,3.0723,3.0879,3.0889,3.0889,3.0889,3.0889,3.0889,3.0889,3.0889,3.0889,3.7073,3.7186,3.7362,3.7914,3.7826,3.7563,3.7236,3.7186,3.6985,3.6433,3.6546,3.6609,3.6383,3.6358,3.6358,3.6358,3.6358,3.6458,3.6671,3.6483,3.6358,3.6358,3.6044,3.5717,3.5378,3.5479,3.5215,3.455,3.4663,3.455,3.4223,3.4562,3.455,3.4223,3.4223,3.4035,3.3721,3.3721,3.3608,3.3333,3.2864,3.2253,3.168,3.2131,3.1443,3.0365,3.2364,3.2449,3.155,3.1282,3.008,2.8443,2.7319,2.7942,2.8964,2.8964,2.9294,3.0009,3.151,3.1544,3.1288,3.1731,3.2438,3.2896,3.2152,3.2945,3.3897,3.3897,3.4336,3.4429,3.3662,3.4144,3.4053,3.2041,3.2982,3.3902,3.3744,3.4352,3.519,3.632,3.6847,3.7186,3.7186,3.6339,3.5442,3.4715,3.2618,3.0642,2.9277,2.9836,3.0118,2.989,3.0267,3.0441,3.0441,3.028,3.0048,2.9786,2.9795,3.0102,3.0441,3.0441,3.0587,3.0889,3.0889,3.0889,3.0889,3.0889,3.0889,3.0889,3.0889,3.0889,3.0889,3.0889,3.0889,3.0889,3.7224,3.7337,3.7513,3.8065,3.7739,3.74,3.7349,3.7337,3.7136,3.6584,3.6948,3.7073,3.6571,3.6508,3.6508,3.6508,3.6508,3.6697,3.7149,3.6709,3.6433,3.6433,3.6383,3.6383,3.6433,3.5893,3.5592,3.5542,3.509,3.4839,3.4801,3.4851,3.4839,3.4801,3.4801,3.4763,3.4726,3.4726,3.4399,3.3809,3.2689,3.2552,3.2982,3.1825,3.2225,3.3268,3.3219,3.3194,3.2971,3.1673,3.0868,3.0225,2.9472,3.01,3.1151,3.1106,3.0895,3.0949,3.2521,3.2261,3.1942,3.357,3.3596,3.3206,3.3156,3.3608,3.4048,3.4048,3.4487,3.4785,3.4682,3.4773,3.4487,3.3239,3.4514,3.5233,3.4054,3.5396,3.642,3.637,3.6935,3.7312,3.7055,3.6134,3.4404,3.17,3.0449,2.9724,2.9619,2.9996,3.0279,3.0209,3.0713,3.0889,3.0889,3.0889,3.0723,3.0267,3.0267,3.0441,3.0889,3.0889,3.0889,3.0889,3.0889,3.0889,3.0889,3.0889,3.0889,3.0889,3.0889,3.0889,3.0889,3.0889,3.0889,3.0889,3.8304,3.8504,3.868,3.9233,3.9233,3.9007,3.858,3.8504,3.8304,3.7726,3.7751,3.7789,3.7663,3.7651,3.7651,3.7651,3.7651,3.7513,3.7199,3.7073,3.701,3.701,3.6584,3.6571,3.6998,3.6471,3.5968,3.5542,3.5855,3.5793,3.5378,3.5805,3.578,3.5366,3.5366,3.5127,3.4726,3.4726,3.4399,3.3897,3.3619,3.3383,3.3119,3.3271,3.3721,3.4362,3.4363,3.4212,3.3709,3.234,3.1845,3.1552,3.0813,3.146,3.2441,3.1936,3.2779,3.3715,3.369,3.3841,3.4015,3.4422,3.4449,3.4248,3.3822,3.4487,3.519,3.519,3.5629,3.5712,3.4643,3.5322,3.5605,3.4246,3.5313,3.6088,3.5886,3.6551,3.6847,3.6408,3.7626,3.7904,3.6206,3.4651,3.2966,3.1137,3.0777,3.0509,3.0102,3.0527,3.0633,3.0247,3.0713,3.0889,3.0889,3.0889,3.0879,3.0733,3.0733,3.0752,3.0889,3.0889,3.0889,3.0889,3.0889,3.0889,3.0889,3.0889,3.0889,3.0889,3.0889,3.0889,3.0889,3.0889,3.0889,3.0889,3.8705,3.8868,3.9044,3.9597,3.9484,3.9195,3.8906,3.8868,3.8668,3.809,3.8253,3.8316,3.804,3.8002,3.8115,3.8391,3.8165,3.7889,3.76,3.7575,3.7462,3.7199,3.691,3.6885,3.7174,3.6634,3.6219,3.5931,3.6219,3.6219,3.5943,3.6219,3.6207,3.5931,3.5931,3.5768,3.5504,3.5504,3.519,3.4675,3.456,3.4197,3.362,3.3908,3.4262,3.4452,3.4665,3.4562,3.4285,3.3172,3.3152,3.363,3.2898,3.3541,3.4475,3.4193,3.4607,3.5102,3.5077,3.4901,3.4788,3.5052,3.5115,3.4964,3.4412,3.4939,3.5542,3.5542,3.5981,3.6168,3.5475,3.5966,3.6156,3.5475,3.6177,3.6759,3.6759,3.7224,3.7437,3.724,3.7568,3.698,3.4724,3.3669,3.2458,3.0995,3.0889,3.0743,3.0568,3.0743,3.0743,3.0568,3.0743,3.0889,3.0889,3.0889,3.0889,3.0889,3.0889,3.0889,3.0889,3.0889,3.0889,3.0889,3.0889,3.0889,3.0889,3.0889,3.0889,3.0889,3.0889,3.0889,3.0889,3.0889,3.0889,3.0889,3.8894,3.9007,3.9157,3.9609,3.932,3.9007,3.9007,3.9007,3.8843,3.8354,3.8718,3.8831,3.8354,3.8291,3.8492,3.8969,3.8567,3.8253,3.8165,3.814,3.7939,3.75,3.7497,3.7497,3.7475,3.6797,3.642,3.6358,3.6358,3.6358,3.6358,3.6358,3.6358,3.6358,3.6358,3.6358,3.6358,3.6358,3.6044,3.5449,3.5386,3.4932,3.442,3.4392,3.446,3.4578,3.4851,3.4939,3.4732,3.4108,3.456,3.5444,3.4908,3.5463,3.6345,3.6257,3.5968,3.5768,3.6119,3.5629,3.5115,3.5567,3.568,3.5567,3.5102,3.5353,3.568,3.568,3.6044,3.6358,3.6358,3.6358,3.6358,3.6358,3.6822,3.7161,3.7207,3.7701,3.8151,3.7985,3.6957,3.5451,3.329,3.2847,3.2189,3.0995,3.0889,3.0889,3.0889,3.0889,3.0889,3.0889,3.0889,3.0889,3.0889,3.0889,3.0889,3.0889,3.0889,3.0889,3.0889,3.0889,3.0889,3.0889,3.0889,3.0889,3.0889,3.0889,3.0889,3.0889,3.0889,3.0889,3.0889,3.0889,3.0889,3.0889,3.9471,3.9584,3.9597,3.9685,3.9634,3.9584,3.9584,3.9584,3.9546,3.9471,3.9534,3.9546,3.9471,3.9471,3.9496,3.9572,3.9509,3.9258,3.8781,3.8579,3.8542,3.8642,3.849,3.8477,3.8642,3.723,3.636,3.6358,3.6358,3.6358,3.6358,3.6358,3.6358,3.6358,3.6358,3.6358,3.6358,3.6358,3.6044,3.5449,3.5386,3.524,3.512,3.5136,3.5571,3.6075,3.6112,3.583,3.5349,3.5239,3.5344,3.5549,3.5993,3.6263,3.627,3.5793,3.5931,3.6157,3.5768,3.5893,3.6157,3.6232,3.6257,3.6232,3.6157,3.6194,3.6257,3.6257,3.6307,3.6358,3.6358,3.6358,3.6358,3.6358,3.6822,3.7182,3.7178,3.8111,3.8555,3.8027,3.6086,3.4258,3.32,3.1962,3.1082,3.0889,3.0889,3.0889,3.0889,3.0889,3.0889,3.0889,3.0889,3.0889,3.0889,3.0889,3.0889,3.0889,3.0889,3.0889,3.0889,3.0889,3.0889,3.0889,3.0889,3.0889,3.0889,3.0889,3.0889,3.0889,3.0889,3.0889,3.0889,3.0889,3.0889,3.0889,3.9647,3.9697,3.9697,3.9697,3.9697,3.9697,3.9697,3.9697,3.9697,3.9697,3.9697,3.9697,3.9697,3.9697,3.9697,3.9697,3.9697,3.9459,3.8906,3.912,3.9157,3.8881,3.8793,3.8781,3.8868,3.7866,3.7177,3.6822,3.6508,3.6358,3.6358,3.6358,3.6358,3.6358,3.6358,3.6358,3.6358,3.6358,3.6219,3.5994,3.5968,3.5881,3.5941,3.5906,3.5843,3.5772,3.5843,3.5943,3.5994,3.5994,3.5994,3.6044,3.6282,3.6358,3.632,3.6069,3.6169,3.6307,3.6069,3.6182,3.6433,3.6747,3.6584,3.6445,3.6747,3.6822,3.6734,3.642,3.6358,3.6358,3.6358,3.6609,3.6822,3.6822,3.7563,3.8176,3.8124,3.8831,3.8609,3.6745,3.4818,3.3247,3.2045,3.1331,3.0889,3.0889,3.0889,3.0889,3.0889,3.0889,3.0889,3.0889,3.0889,3.0889,3.0889,3.0889,3.0889,3.0889,3.0889,3.0889,3.0889,3.0889,3.0889,3.0889,3.0889,3.0889,3.0889,3.0889,3.0889,3.0889,3.0889,3.0889,3.0889,3.0889,3.0889,3.0889]}]]